[[{"header":{"parameterUnit":"m.s-1","parameterCategory":1,"la1":30.6,"la2":28.766,"lo1":-90.7593,"lo2":-88.6598,"dy":0.0162,"dx":0.0183,"nx":116,"ny":114,"refTime":"2023-08-17T12:00:00:Z","depth":0,"parameterNumber":2,"parameterNumberName":"U-component_of_WINDS"},"data":[0.0,0.0,0.0,0.0,0.0,0.0,0.0,0.0,0.0,0.0,0.0,0.0,0.0,0.0,0.0,0.0,0.0,0.0,0.0,0.0,0.0,0.0,0.0,0.0,0.0,0.0,0.0,0.0,0.0,0.0,0.0,0.0,0.0,0.0,0.0,0.0,0.0,0.0,0.0,0.0,0.0,0.0,0.0,0.0,0.0,0.0,0.0,0.0,0.0,0.0,0.0,0.0,0.0,0.0,0.0,0.0,0.0,0.0,0.0,0.0,0.0,0.0,0.0,0.0,0.0,0.0,0.0,0.0,0.0,0.0,0.0,0.0,0.0,0.0,0.0,0.0,0.0,0.0,0.0,0.0,0.0,0.0,0.0,0.0,0.0,0.0,0.0,0.0,0.0,0.0,0.0,0.0,0.0,0.0,0.0,0.0,0.0,0.0,0.0,0.0,0.0,0.0,0.0,0.0,0.0,0.0,0.0,0.0,0.0,0.0,0.0,0.0,0.0,0.0,0.0,0.0,0.0,0.0,0.0,0.0,0.0,0.0,0.0,0.0,0.0,0.0,0.0,0.0,0.0,0.0,0.0,0.0,0.0,0.0,0.0,0.0,0.0,0.0,0.0,0.0,0.0,0.0,0.0,0.0,0.0,0.0,0.0,0.0,0.0,0.0,0.0,0.0,0.0,0.0,0.0,0.0,0.0,0.0,0.0,0.0,0.0,0.0,0.0,0.0,0.0,0.0,0.0,0.0,0.0,0.0,0.0,0.0,0.0,0.0,0.0,0.0,0.0,0.0,0.0,0.0,0.0,0.0,0.0,0.0,0.0,0.0,0.0,0.0,0.0,0.0,0.0,0.0,0.0,0.0,0.0,0.0,0.0,0.0,0.0,0.0,0.0,0.0,0.0,0.0,0.0,0.0,0.0,0.0,0.0,0.0,0.0,0.0,0.0,0.0,0.0,0.0,0.0,0.0,0.0,0.0,0.0,0.0,0.0,0.0,0.0,0.0,0.0,0.0,0.0,0.0,0.0,0.0,0.0,0.0,0.0,0.0,0.0,0.0,0.0,0.0,0.0,0.0,0.0,0.0,0.0,0.0,0.0,0.0,0.0,0.0,0.0,0.0,0.0,0.0,0.0,0.0,0.0,0.0,0.0,0.0,0.0,0.0,0.0,0.0,0.0,0.0,0.0,0.0,0.0,0.0,0.0,0.0,0.0,0.0,0.0,0.0,0.0,0.0,0.0,0.0,0.0,0.0,0.0,0.0,0.0,0.0,0.0,0.0,0.0,0.0,0.0,0.0,0.0,0.0,0.0,0.0,0.0,0.0,0.0,0.0,0.0,0.0,0.0,0.0,0.0,0.0,0.0,0.0,0.0,0.0,0.0,0.0,0.0,0.0,0.0,0.0,0.0,0.0,0.0,0.0,0.0,0.0,0.0,0.0,0.0,0.0,0.0,0.0,0.0,0.0,0.0,0.0,0.0,0.0,0.0,0.0,0.0,0.0,0.0,0.0,0.0,0.0,0.0,0.0,0.0,0.0,0.0,0.0,0.0,0.0,0.0,0.0,0.0,0.0,0.0,0.0,0.0,0.0,0.0,0.0,0.0,0.0,0.0,0.0,0.0,0.0,0.0,0.0,0.0,0.0,0.0,0.0,0.0,0.0,0.0,0.0,0.0,0.0,0.0,0.0,0.0,0.0,0.0,0.0,0.0,0.0,0.0,0.0,0.0,0.0,0.0,0.0,0.0,0.0,0.0,0.0,0.0,0.0,0.0,0.0,0.0,0.0,0.0,0.0,0.0,0.0,0.0,0.0,0.0,0.0,0.0,0.0,0.0,0.0,0.0,0.0,0.0,0.0,0.0,0.0,0.0,0.0,0.0,0.0,0.0,0.0,0.0,0.0,0.0,0.0,0.0,0.0,0.0,0.0,0.0,0.0,0.0,0.0,0.0,0.0,0.0,0.0,0.0,0.0,0.0,0.0,0.0,0.0,0.0,0.0,0.0,0.0,0.0,0.0,0.0,0.0,0.0,0.0,0.0,0.0,0.0,0.0,0.0,0.0,0.0,0.0,0.0,0.0,0.0,0.0,0.0,0.0,0.0,0.0,0.0,0.0,0.0,0.0,0.0,0.0,0.0,0.0,0.0,0.0,0.0,0.0,0.0,0.0,0.0,0.0,0.0,0.0,0.0,0.0,0.0,0.0,0.0,0.0,0.0,0.0,0.0,0.0,0.0,0.0,0.0,0.0,0.0,0.0,0.0,0.0,0.0,0.0,0.0,0.0,0.0,0.0,0.0,0.0,0.0,0.0,0.0,0.0,0.0,0.0,0.0,0.0,0.0,0.0,0.0,0.0,0.0,0.0,0.0,0.0,0.0,0.0,0.0,0.0,0.0,0.0,0.0,0.0,0.0,0.0,0.0,0.0,0.0,0.0,0.0,0.0,0.0,0.0,0.0,0.0,0.0,0.0,0.0,0.0,0.0,0.0,0.0,0.0,0.0,0.0,0.0,0.0,0.0,0.0,0.0,0.0,0.0,0.0,0.0,0.0,0.0,0.0,0.0,0.0,0.0,0.0,0.0,0.0,0.0,0.0,0.0,0.0,0.0,0.0,0.0,0.0,0.0,0.0,0.0,0.0,0.0,0.0,0.0,0.0,0.0,0.0,0.0,0.0,0.0,0.0,0.0,0.0,0.0,0.0,0.0,0.0,0.0,0.0,0.0,0.0,0.0,0.0,0.0,0.0,0.0,0.0,0.0,0.0,0.0,0.0,0.0,0.0,0.0,0.0,0.0,0.0,0.0,0.0,0.0,0.0,0.0,0.0,0.0,0.0,0.0,0.0,0.0,0.0,0.0,0.0,0.0,0.0,0.0,0.0,0.0,0.0,0.0,0.0,0.0,0.0,0.0,0.0,0.0,0.0,0.0,0.0,0.0,0.0,0.0,0.0,0.0,0.0,0.0,0.0,0.0,0.0,0.0,0.0,0.0,0.0,0.0,0.0,0.0,0.0,0.0,0.0,0.0,0.0,0.0,0.0,0.0,0.0,0.0,0.0,0.0,0.0,0.0,0.0,0.0,0.0,0.0,0.0,0.0,0.0,0.0,0.0,0.0,0.0,0.0,0.0,0.0,0.0,0.0,0.0,0.0,0.0,0.0,0.0,0.0,0.0,0.0,0.0,0.0,0.0,0.0,0.0,0.0,0.0,0.0,0.0,0.0,0.0,0.0,0.0,0.0,0.0,0.0,0.0,0.0,0.0,0.0,0.0,0.0,0.0,0.0,0.0,0.0,0.0,0.0,0.0,0.0,0.0,0.0,0.0,0.0,0.0,0.0,0.0,0.0,0.0,0.0,0.0,0.0,0.0,0.0,0.0,0.0,0.0,0.0,0.0,0.0,0.0,0.0,0.0,0.0,0.0,0.0,0.0,0.0,0.0,0.0,0.0,0.0,0.0,0.0,0.0,0.0,0.0,0.0,0.0,0.0,0.0,0.0,0.0,0.0,0.0,0.0,0.0,0.0,0.0,0.0,0.0,0.0,0.0,0.0,0.0,0.0,0.0,0.0,0.0,0.0,0.0,0.0,0.0,0.0,0.0,0.0,0.0,0.0,0.0,0.0,0.0,0.0,0.0,0.0,0.0,0.0,0.0,0.0,0.0,0.0,0.0,0.0,0.0,0.0,0.0,0.0,0.0,0.0,0.0,0.0,0.0,0.0,0.0,0.0,0.0,0.0,0.0,0.0,0.0,0.0,0.0,0.0,0.0,0.0,0.0,0.0,0.0,0.0,0.0,0.0,0.0,0.0,0.0,0.0,0.0,0.0,0.0,0.0,0.0,0.0,0.0,0.0,0.0,0.0,0.0,0.0,0.0,0.0,0.0,0.0,0.0,0.0,0.0,0.0,0.0,0.0,0.0,0.0,0.0,0.0,0.0,0.0,0.0,0.0,0.0,0.0,0.0,0.0,0.0,0.0,0.0,0.0,0.0,0.0,0.0,0.0,0.0,0.0,0.0,0.0,0.0,0.0,0.0,0.0,0.0,0.0,0.0,0.0,0.0,0.0,0.0,0.0,0.0,0.0,0.0,0.0,0.0,0.0,0.0,0.0,0.0,0.0,0.0,0.0,0.0,0.0,0.0,0.0,0.0,0.0,0.0,0.0,0.0,0.0,0.0,0.0,0.0,0.0,0.0,0.0,0.0,0.0,0.0,0.0,0.0,0.0,0.0,0.0,0.0,0.0,0.0,0.0,0.0,0.0,0.0,0.0,0.0,0.0,0.0,0.0,0.0,0.0,0.0,0.0,0.0,0.0,0.0,0.0,0.0,0.0,0.0,0.0,0.0,0.0,0.0,0.0,0.0,0.0,0.0,0.0,0.0,0.0,0.0,0.0,0.0,0.0,0.0,0.0,0.0,0.0,0.0,0.0,0.0,0.0,0.0,0.0,0.0,0.0,0.0,0.0,0.0,0.0,0.0,0.0,0.0,0.0,0.0,0.0,0.0,0.0,0.0,0.0,0.0,0.0,0.0,0.0,0.0,0.0,0.0,0.0,0.0,0.0,0.0,0.0,0.0,0.0,0.0,0.0,0.0,0.0,0.0,0.0,0.0,0.0,0.0,0.0,0.0,0.0,0.0,0.0,0.0,0.0,0.0,0.0,0.0,0.0,0.0,0.0,0.0,0.0,0.0,0.0,0.0,0.0,0.0,0.0,0.0,0.0,0.0,0.0,0.0,0.0,0.0,0.0,0.0,0.0,0.0,0.0,0.0,0.0,0.0,0.0,0.0,0.0,0.0,0.0,0.0,0.0,0.0,0.0,0.0,0.0,0.0,0.0,0.0,0.0,0.0,0.0,0.0,0.0,0.0,0.0,0.0,0.0,0.0,0.0,0.0,0.0,0.0,0.0,0.0,0.0,0.0,0.0,0.0,0.0,0.0,0.0,0.0,0.0,0.0,0.0,0.0,0.0,0.0,0.0,0.0,0.0,0.0,0.0,0.0,0.0,0.0,0.0,0.0,0.0,0.0,0.0,0.0,0.0,0.0,0.0,0.0,0.0,0.0,0.0,0.0,0.0,0.0,0.0,0.0,0.0,0.0,0.0,0.0,0.0,0.0,0.0,0.0,0.0,0.0,0.0,0.0,0.0,0.0,0.0,0.0,0.0,0.0,0.0,0.0,0.0,0.0,0.0,0.0,0.0,0.0,0.0,0.0,0.0,0.0,0.0,0.0,0.0,0.0,0.0,0.0,0.0,0.0,0.0,0.0,0.0,0.0,0.0,0.0,0.0,0.0,0.0,0.0,0.0,0.0,0.0,0.0,0.0,0.0,0.0,0.0,0.0,0.0,0.0,0.0,0.0,0.0,0.0,0.0,0.0,0.0,0.0,0.0,0.0,0.0,0.0,0.0,0.0,0.0,0.0,0.0,0.0,0.0,0.0,0.0,0.0,0.0,0.0,0.0,0.0,0.0,0.0,0.0,0.0,0.0,0.0,0.0,0.0,0.0,0.0,0.0,0.0,0.0,0.0,0.0,0.0,0.0,0.0,0.0,0.0,0.0,0.0,0.0,0.0,0.0,0.0,0.0,0.0,0.0,0.0,0.0,0.0,0.0,0.0,0.0,0.0,0.0,0.0,0.0,0.0,0.0,0.0,0.0,0.0,0.0,0.0,0.0,0.0,0.0,0.0,0.0,0.0,0.0,0.0,0.0,0.0,0.0,0.0,0.0,0.0,0.0,0.0,0.0,0.0,0.0,0.0,0.0,0.0,0.0,0.0,0.0,0.0,0.0,0.0,0.0,0.0,0.0,0.0,0.0,0.0,0.0,0.0,0.0,0.0,0.0,0.0,0.0,0.0,0.0,0.0,0.0,0.0,0.0,0.0,0.0,0.0,0.0,0.0,0.0,0.0,0.0,0.0,0.0,0.0,0.0,0.0,0.0,0.0,0.0,0.0,0.0,0.0,0.0,0.0,0.0,0.0,0.0,0.0,0.0,0.0,0.0,0.0,0.0,0.0,0.0,0.0,0.0,0.0,0.0,0.0,0.0,0.0,0.0,0.0,0.0,0.0,0.0,0.0,0.0,0.0,0.0,0.0,0.0,0.0,0.0,0.0,0.0,0.0,0.0,-2.703,0.0,0.0,0.0,0.0,0.0,0.0,0.0,0.0,0.0,0.0,0.0,0.0,0.0,0.0,0.0,0.0,0.0,0.0,0.0,0.0,0.0,0.0,0.0,0.0,0.0,0.0,0.0,0.0,0.0,0.0,0.0,0.0,0.0,0.0,0.0,0.0,0.0,0.0,0.0,0.0,0.0,0.0,0.0,0.0,0.0,0.0,0.0,0.0,0.0,0.0,0.0,0.0,0.0,0.0,0.0,0.0,0.0,0.0,0.0,0.0,0.0,0.0,0.0,0.0,0.0,0.0,0.0,0.0,0.0,0.0,0.0,0.0,0.0,0.0,0.0,0.0,0.0,0.0,0.0,0.0,0.0,0.0,0.0,0.0,0.0,0.0,0.0,0.0,0.0,0.0,0.0,0.0,0.0,0.0,0.0,0.0,0.0,0.0,0.0,0.0,0.0,0.0,0.0,0.0,0.0,0.0,0.0,0.0,0.0,0.0,0.0,0.0,0.0,0.0,0.0,0.0,-2.6699,0.0,0.0,0.0,0.0,0.0,0.0,0.0,0.0,0.0,0.0,0.0,0.0,0.0,0.0,0.0,0.0,0.0,0.0,0.0,0.0,0.0,0.0,0.0,0.0,0.0,0.0,0.0,0.0,0.0,0.0,0.0,0.0,0.0,0.0,0.0,0.0,0.0,0.0,0.0,0.0,0.0,0.0,0.0,0.0,0.0,0.0,0.0,0.0,0.0,0.0,0.0,0.0,0.0,0.0,0.0,0.0,0.0,0.0,0.0,0.0,0.0,0.0,0.0,0.0,0.0,0.0,0.0,0.0,0.0,0.0,0.0,0.0,0.0,0.0,0.0,0.0,0.0,0.0,0.0,0.0,0.0,0.0,0.0,0.0,0.0,0.0,0.0,0.0,0.0,0.0,0.0,0.0,0.0,0.0,0.0,0.0,0.0,0.0,0.0,0.0,0.0,0.0,0.0,0.0,0.0,0.0,0.0,0.0,-2.744,-2.7365,-2.7365,-2.7299,-2.7278,-2.7294,-2.7177,-2.6487,-2.5498,-2.5828,0.0,0.0,0.0,0.0,0.0,0.0,0.0,0.0,0.0,0.0,0.0,0.0,0.0,0.0,0.0,0.0,0.0,0.0,0.0,0.0,0.0,0.0,0.0,0.0,0.0,0.0,0.0,0.0,0.0,0.0,0.0,0.0,0.0,0.0,0.0,0.0,0.0,0.0,-3.0764,-3.0764,-3.0451,-2.9839,-2.9343,0.0,0.0,0.0,0.0,0.0,0.0,0.0,0.0,0.0,0.0,0.0,0.0,0.0,0.0,0.0,0.0,0.0,0.0,0.0,0.0,0.0,0.0,0.0,0.0,0.0,0.0,0.0,0.0,0.0,0.0,0.0,0.0,0.0,0.0,0.0,0.0,0.0,0.0,0.0,0.0,0.0,0.0,0.0,-2.3651,-2.3803,0.0,0.0,0.0,0.0,0.0,0.0,0.0,0.0,0.0,0.0,0.0,0.0,0.0,-2.7892,-2.7391,-2.7845,-2.8084,-2.8084,-2.7485,-2.7227,-2.7227,-2.7215,-2.7197,-2.7197,-2.7169,0.0,-2.6943,-2.6984,0.0,0.0,0.0,0.0,0.0,0.0,0.0,0.0,0.0,0.0,0.0,0.0,0.0,0.0,0.0,0.0,0.0,0.0,0.0,0.0,0.0,0.0,0.0,0.0,0.0,0.0,0.0,0.0,0.0,0.0,0.0,0.0,0.0,0.0,0.0,0.0,-3.1086,-3.0973,-3.0973,-3.0973,-3.0843,-3.0607,-3.0346,-2.9839,-2.9132,-2.9061,0.0,0.0,0.0,0.0,0.0,0.0,0.0,0.0,0.0,0.0,0.0,0.0,0.0,0.0,0.0,0.0,0.0,0.0,0.0,0.0,0.0,0.0,0.0,0.0,0.0,0.0,0.0,0.0,0.0,0.0,0.0,0.0,0.0,0.0,0.0,0.0,0.0,0.0,0.0,-2.3578,-2.4271,-2.4465,-2.5015,-2.5383,0.0,0.0,0.0,0.0,0.0,0.0,0.0,0.0,0.0,-2.6899,-2.7387,-2.7646,-2.7749,-2.7982,-2.8239,-2.8454,-2.8184,-2.8057,-2.8057,-2.8057,-2.8057,-2.8057,-2.8057,-2.8057,-2.8012,-2.7419,-2.719,-2.719,0.0,0.0,0.0,0.0,-2.6757,-2.6528,0.0,0.0,0.0,0.0,0.0,0.0,0.0,0.0,0.0,0.0,0.0,0.0,0.0,0.0,0.0,-3.2702,0.0,0.0,0.0,0.0,0.0,0.0,0.0,0.0,0.0,0.0,0.0,0.0,-3.0973,-3.0973,-3.0973,-3.0973,-3.0973,-3.0973,-3.0973,-3.0503,-2.9647,-2.9647,-2.9466,0.0,0.0,0.0,0.0,0.0,0.0,0.0,0.0,0.0,0.0,0.0,0.0,0.0,0.0,0.0,0.0,0.0,0.0,0.0,0.0,0.0,0.0,0.0,0.0,0.0,0.0,0.0,0.0,0.0,0.0,0.0,0.0,0.0,0.0,0.0,0.0,0.0,0.0,-2.4176,-2.4935,-2.5211,-2.5481,-2.5729,0.0,0.0,0.0,0.0,0.0,0.0,-2.7392,-2.7373,-2.7483,-2.7557,-2.7557,-2.7782,-2.8172,-2.8172,-2.8356,-2.87,-2.87,-2.87,-2.87,-2.87,-2.87,-2.87,-2.87,-2.87,-2.8632,-2.7897,-2.7557,-2.7557,-2.7557,-2.7557,-2.7557,-2.7557,-2.7349,-2.7118,0.0,0.0,0.0,0.0,0.0,0.0,0.0,0.0,0.0,0.0,0.0,0.0,0.0,0.0,-3.3196,-3.2732,-3.3849,-3.4163,0.0,0.0,0.0,0.0,0.0,0.0,0.0,0.0,0.0,-3.0973,-3.0973,-3.0973,-3.0973,-3.0973,-3.0973,-3.0973,-3.0973,-3.0835,-3.062,-3.062,-3.0519,-3.0266,0.0,0.0,0.0,0.0,0.0,0.0,0.0,0.0,0.0,0.0,0.0,0.0,0.0,0.0,0.0,0.0,0.0,0.0,0.0,0.0,0.0,0.0,0.0,0.0,0.0,0.0,0.0,0.0,0.0,0.0,0.0,0.0,0.0,0.0,0.0,0.0,0.0,0.0,0.0,-2.5846,-2.6598,0.0,0.0,0.0,0.0,-2.7144,-2.7144,-2.7415,-2.792,-2.7943,-2.8149,-2.8609,-2.8632,-2.8632,-2.8654,-2.8654,-2.8677,-2.87,-2.87,-2.87,-2.87,-2.87,-2.87,-2.87,-2.87,-2.87,-2.87,-2.8654,-2.8632,-2.8632,-2.8632,-2.8632,-2.8632,-2.8632,-2.8632,-2.8589,0.0,0.0,0.0,0.0,0.0,0.0,0.0,0.0,0.0,0.0,0.0,0.0,0.0,-3.3275,-3.371,-3.4452,-3.4329,-3.4238,-3.4292,0.0,0.0,0.0,0.0,0.0,0.0,0.0,-3.1643,-3.0973,-3.0973,-3.0973,-3.0973,-3.0973,-3.0973,-3.0973,-3.0973,-3.0962,-3.0887,-3.0887,-3.0773,-3.052,-2.9922,-2.8817,0.0,0.0,0.0,0.0,0.0,0.0,0.0,0.0,0.0,0.0,0.0,0.0,0.0,0.0,0.0,0.0,0.0,0.0,0.0,0.0,0.0,0.0,0.0,0.0,0.0,0.0,0.0,0.0,0.0,0.0,0.0,0.0,0.0,0.0,0.0,0.0,0.0,-2.6322,-2.6808,0.0,-2.719,-2.7529,-2.7713,-2.7713,-2.7989,-2.8126,-2.7989,-2.8609,-2.8884,-2.87,-2.9343,-2.9848,-3.0193,-3.0193,-3.0354,-3.0675,-3.0675,-3.0675,-3.0675,-3.0652,-3.0652,-3.0675,-3.0652,-3.0468,-3.0193,-3.0193,-2.9596,-2.87,-2.87,-2.87,-2.87,-2.87,-2.87,-2.87,0.0,0.0,0.0,0.0,0.0,0.0,0.0,0.0,0.0,0.0,0.0,-3.2906,-3.3367,-3.3829,-3.4417,-3.5156,-3.481,-3.4564,-3.4614,0.0,0.0,0.0,0.0,0.0,0.0,-3.2527,-3.2017,-3.1487,-3.1487,-3.1517,-3.1548,-3.1365,-3.1287,-3.1261,-3.1078,-3.0973,-3.0973,-3.0973,-3.0924,-3.071,-2.9704,-2.8782,-2.7844,0.0,0.0,0.0,0.0,0.0,0.0,0.0,0.0,0.0,0.0,0.0,0.0,0.0,0.0,0.0,0.0,0.0,0.0,0.0,0.0,0.0,0.0,0.0,0.0,0.0,0.0,0.0,0.0,0.0,0.0,0.0,0.0,0.0,0.0,0.0,-2.6989,-2.7024,-2.7254,-2.7552,-2.7713,-2.8035,-2.8287,-2.8471,-2.8792,-2.8976,-2.8999,-2.9642,-2.9917,-2.9734,-3.0376,-3.0905,-3.1272,-3.1272,-3.1433,-3.1825,-3.1754,-3.1754,-3.1825,-3.1754,-3.1754,-3.1825,-3.1754,-3.157,-3.1272,-3.1272,-3.0652,-2.9711,-2.9343,-2.9206,-2.9206,-2.9206,-2.9206,-2.9206,0.0,0.0,0.0,0.0,0.0,0.0,0.0,0.0,0.0,0.0,-3.2998,-3.3429,-3.346,-3.466,-3.5278,-3.4785,-3.5326,-3.5204,-3.4172,-3.4099,0.0,0.0,0.0,0.0,-3.2759,-3.2696,-3.26,-3.241,-3.241,-3.2511,-3.2672,-3.2084,-3.1823,-3.1797,-3.1287,-3.1026,-3.1026,-3.1026,-3.1026,-3.0913,-2.9651,-2.8585,-2.7643,0.0,0.0,0.0,0.0,0.0,0.0,0.0,0.0,0.0,0.0,0.0,0.0,0.0,0.0,0.0,0.0,0.0,0.0,0.0,0.0,0.0,0.0,0.0,0.0,0.0,0.0,0.0,0.0,0.0,0.0,0.0,0.0,0.0,-2.6509,-2.655,-2.6896,-2.7901,-2.8012,-2.8218,-2.8677,-2.8746,-2.8999,-2.9504,-2.955,-2.9986,-3.0973,-3.1042,-3.1272,-3.1802,-3.1848,-3.1871,-3.1871,-3.1871,-3.1871,-3.1871,-3.18,-3.18,-3.1871,-3.1871,-3.1871,-3.1871,-3.1871,-3.1848,-3.1825,-3.1825,-3.1825,-3.171,-3.0652,-3.0262,-3.0262,-3.0262,-3.0262,-3.0239,0.0,0.0,0.0,0.0,0.0,0.0,0.0,0.0,0.0,0.0,-3.3306,-3.3798,-3.4814,-3.5275,-3.5493,-3.545,-3.5245,-3.481,-3.4138,0.0,0.0,0.0,0.0,0.0,-3.3591,-3.3145,-3.2815,-3.262,-3.262,-3.266,-3.2698,-3.2542,-3.2463,-3.2463,-3.2306,-3.2228,-3.2228,-3.2228,-3.1954,-3.1403,-3.0211,-2.8885,-2.7504,0.0,0.0,0.0,0.0,0.0,0.0,0.0,0.0,0.0,0.0,0.0,0.0,0.0,0.0,0.0,0.0,0.0,0.0,0.0,0.0,0.0,0.0,0.0,0.0,0.0,0.0,0.0,0.0,0.0,0.0,0.0,0.0,-2.7082,-2.7068,-2.736,-2.7817,-2.8448,-2.8838,-2.9137,-2.9274,-2.994,-3.0445,-3.0583,-3.0928,-3.1111,-3.1019,-3.1685,-3.1984,-3.1825,-3.2538,-3.2856,-3.2856,-3.2856,-3.2856,-3.2856,-3.2856,-3.2856,-3.2856,-3.2856,-3.2856,-3.2856,-3.2856,-3.265,-3.2282,-3.2282,-3.2124,-3.1779,-3.1433,-3.1318,-3.1341,-3.1341,-3.1111,-3.0744,0.0,0.0,0.0,0.0,0.0,0.0,0.0,0.0,0.0,0.0,-3.3921,-3.4568,-3.5429,-3.5737,-3.5767,-3.54,-3.5073,-3.4576,-3.3825,0.0,0.0,0.0,0.0,-3.4064,-3.4028,-3.3983,-3.3816,-3.3555,-3.3555,-3.3529,-3.3404,-3.3169,-3.3064,-3.3064,-3.2803,-3.2698,-3.2698,-3.2698,-3.2154,-3.1213,-3.0538,-2.9423,-2.8032,-2.7068,-2.6302,-2.5742,-2.5263,-2.5109,-2.515,-2.542,0.0,0.0,0.0,0.0,0.0,0.0,0.0,0.0,0.0,0.0,0.0,0.0,0.0,0.0,0.0,0.0,0.0,0.0,0.0,0.0,0.0,0.0,0.0,0.0,-2.7833,-2.8298,-2.8515,-2.8551,-2.8792,-2.9274,-2.9802,-3.0216,-3.0422,-3.0973,-3.1502,-3.1938,-3.2236,-3.2466,-3.2604,-3.3155,-3.3315,-3.304,-3.3614,-3.3912,-3.3912,-3.3912,-3.3912,-3.3912,-3.3912,-3.3912,-3.3912,-3.3683,-3.3591,-3.3568,-3.3361,-3.3109,-3.281,-3.281,-3.265,0.0,0.0,0.0,0.0,0.0,-3.157,-3.1272,0.0,0.0,0.0,0.0,0.0,0.0,0.0,0.0,0.0,0.0,0.0,-3.5552,-3.5614,-3.6138,-3.6068,-3.4975,-3.4909,-3.4467,0.0,0.0,0.0,-3.3403,-3.4478,-3.4815,-3.4256,-3.4845,-3.5055,-3.4804,-3.4765,-3.4633,-3.4397,-3.3901,-3.3692,-3.3666,-3.3117,-3.2881,-3.2881,-3.2802,-3.2051,-3.0876,-3.0793,-3.0007,-2.874,-2.7327,-2.6706,-2.6528,-2.6145,-2.592,-2.5941,-2.5937,0.0,0.0,0.0,0.0,0.0,0.0,0.0,0.0,0.0,0.0,0.0,0.0,0.0,0.0,0.0,0.0,0.0,0.0,0.0,0.0,0.0,0.0,0.0,0.0,-2.8723,-2.9804,-3.0331,-3.0124,-3.0032,-3.0354,-3.0859,-3.1387,-3.194,-3.1961,-3.2397,-3.3384,-3.3453,-3.3843,-3.4739,0.0,0.0,0.0,0.0,-3.4808,-3.4808,-3.4808,-3.4808,-3.4808,-3.4808,-3.4808,-3.4785,-3.4303,-3.4096,-3.4073,-3.3637,-3.3453,-3.3453,-3.3453,-3.343,-3.3269,-3.2354,-3.1986,-3.1986,-3.1917,-3.1823,-3.18,0.0,0.0,0.0,0.0,0.0,0.0,0.0,0.0,0.0,-3.4227,-3.4998,-3.5706,-3.623,-3.6415,-3.6068,-3.4975,-3.4909,-3.4641,0.0,0.0,-3.3627,-3.402,-3.4245,-3.4407,-3.4436,-3.4739,-3.495,-3.5021,-3.4653,-3.4459,-3.4397,-3.4293,-3.4241,-3.4241,-3.411,-3.4058,-3.4016,-3.3476,-3.2759,-3.1964,-3.1424,-3.0007,-2.8247,-2.7942,-2.7304,-2.6572,-2.6483,-2.6235,-2.5982,-2.6356,-2.648,-2.6542,-2.6915,0.0,0.0,0.0,0.0,0.0,0.0,0.0,0.0,0.0,0.0,0.0,0.0,0.0,0.0,0.0,0.0,0.0,0.0,0.0,0.0,-2.9453,-2.9911,-3.0485,-3.134,-3.2099,-3.2282,-3.1595,-3.1915,-3.242,-3.2948,-3.3338,-3.3821,-3.4463,-3.4509,-3.4601,-3.4785,-3.4808,-3.4808,-3.4808,-3.4808,-3.4808,-3.4808,-3.4808,-3.4808,-3.4808,0.0,0.0,-3.4808,-3.4693,-3.4647,-3.4647,-3.4555,-3.4509,-3.4509,-3.4509,-3.4257,-3.3798,-3.3224,-3.2994,-3.2948,-3.2512,-3.2351,-3.2282,0.0,0.0,0.0,0.0,0.0,0.0,0.0,0.0,0.0,0.0,-3.5125,-3.5828,-3.6414,-3.6006,-3.5494,-3.4942,-3.4438,0.0,0.0,-3.3459,-3.3431,-3.374,-3.4357,-3.4733,-3.4854,-3.5322,-3.5558,-3.5386,-3.4936,-3.4605,-3.4397,-3.4397,-3.4397,-3.4397,-3.4397,-3.4397,-3.4356,-3.3683,-3.2975,-3.2215,-3.156,-3.0454,-2.9126,-2.8903,-2.8477,-2.8003,-2.7457,-2.7158,-2.697,-2.6921,-2.6957,-2.6998,-2.7226,-2.7309,-2.7357,0.0,0.0,0.0,0.0,0.0,0.0,0.0,0.0,0.0,0.0,0.0,0.0,0.0,0.0,-2.7833,0.0,0.0,-2.9411,-3.0418,-3.1273,-3.1994,-3.2489,-3.3407,-3.366,-3.265,-3.3178,-3.3752,-3.4027,-3.4257,-3.4601,-3.5129,-3.5152,-3.5267,-3.552,-3.5543,-3.5543,-3.5543,-3.5543,-3.5543,-3.5543,-3.5543,-3.5543,-3.5543,-3.5543,-3.5543,-3.552,-3.5267,-3.5152,-3.5152,-3.49,-3.4808,-3.4756,-3.4133,-3.369,-3.3369,-3.2551,-3.2663,-3.3247,-3.2994,-3.2879,-3.2856,0.0,0.0,0.0,0.0,0.0,0.0,0.0,0.0,0.0,0.0,0.0,-3.5847,-3.6289,-3.5494,-3.4843,0.0,0.0,0.0,0.0,-3.329,-3.329,-3.329,-3.4461,-3.5106,-3.5189,-3.5848,-3.6018,-3.571,-3.5182,-3.4771,-3.4397,-3.4397,-3.4397,-3.4397,-3.4397,-3.4314,-3.4147,-3.3471,-3.276,-3.2064,-3.1383,-3.0713,-3.017,-2.976,-2.9531,-2.9255,-2.8326,-2.7951,-2.7809,-2.7452,-2.7309,-2.7309,-2.7309,-2.7309,-2.7357,-2.7762,-2.7573,0.0,0.0,0.0,0.0,0.0,0.0,0.0,0.0,0.0,-2.7672,-2.8031,-2.8172,-2.8488,-2.9476,-2.9947,-3.0471,-3.133,-3.2495,-3.3361,-3.3545,-3.4372,-3.4647,-3.3821,-3.4349,-3.4831,-3.4923,-3.4946,-3.5152,-3.5634,-3.5657,-3.5841,-3.6309,-3.6332,-3.6332,-3.6332,-3.6332,-3.6332,-3.6332,-3.6332,-3.6332,-3.6332,-3.6332,-3.6332,-3.6309,-3.5841,-3.5657,-3.5634,-3.4979,-3.4767,-3.4638,-3.3256,-3.2707,-3.2599,-3.1496,-3.1838,-3.2864,-3.2774,-3.2735,-3.2645,0.0,0.0,0.0,0.0,0.0,0.0,0.0,0.0,0.0,0.0,0.0,0.0,0.0,0.0,0.0,0.0,0.0,0.0,0.0,0.0,0.0,0.0,-3.414,-3.478,-3.5189,-3.5232,-3.5386,-3.571,-3.4895,-3.4439,-3.4397,-3.4397,-3.4397,-3.4397,-3.4397,-3.4063,-3.3471,-3.2717,-3.2021,-3.1339,-3.0623,-3.0261,-3.0216,-3.0125,-2.9577,-2.8724,-2.8186,-2.7715,-2.7357,-2.7309,-2.7309,-2.7309,-2.7309,-2.7309,-2.7309,-2.7357,0.0,-2.7404,-2.7857,-2.7951,-2.7809,-2.7404,-2.7309,-2.7404,0.0,0.0,-2.8636,-2.8615,-2.8949,-2.9437,-3.0025,-3.0166,-3.0838,-3.27,-3.3201,-3.3591,-3.4509,-3.5106,-3.5405,-3.529,-3.4992,-3.4969,-3.5405,-3.5428,-3.5657,-3.614,-3.6185,-3.6263,-3.6332,-3.6332,-3.6332,-3.6332,-3.6332,-3.6332,-3.6332,-3.6332,-3.6332,-3.6332,-3.6332,-3.6332,-3.6332,-3.6263,-3.6185,-3.6131,-3.5001,-3.4538,-3.4405,-3.2733,-3.1989,-3.1948,-3.1368,-3.1195,-3.132,-3.0924,-3.058,-3.0297,0.0,0.0,0.0,0.0,0.0,0.0,0.0,0.0,0.0,0.0,0.0,0.0,0.0,0.0,0.0,0.0,0.0,0.0,0.0,0.0,0.0,0.0,0.0,0.0,0.0,0.0,-3.5063,-3.5372,-3.4729,-3.4397,-3.4397,-3.4397,-3.4397,-3.4397,-3.4397,-3.4021,-3.3343,-3.263,-3.1933,-3.1273,-3.0487,-3.0216,-3.017,-2.9897,-2.9347,-2.8724,-2.8839,-2.8373,0.0,0.0,-2.7547,-2.7309,-2.7309,-2.7309,-2.7404,-2.7951,-2.7904,0.0,-2.7951,-2.8258,-2.8423,0.0,-2.8184,-2.8413,-2.9149,-2.9219,-2.9223,-2.9516,-2.9437,-2.9727,-3.0872,-3.1284,-3.1993,0.0,-3.4188,-3.4739,-3.5152,-3.5657,-3.5956,-3.5956,-3.5772,-3.5726,-3.5933,-3.5956,-3.6048,-3.6254,-3.6332,-3.6332,-3.6332,-3.6332,-3.6332,-3.6332,-3.6332,-3.6332,-3.6332,-3.6332,-3.6332,-3.6332,-3.6332,-3.6332,-3.6332,-3.6332,-3.6332,-3.6277,-3.5763,-3.5543,-3.5356,-3.3205,-3.2277,-3.2164,-3.0504,-2.9718,-2.9618,-3.0553,-3.0756,-3.0549,0.0,0.0,0.0,0.0,0.0,0.0,0.0,0.0,0.0,0.0,0.0,0.0,0.0,0.0,0.0,0.0,0.0,0.0,0.0,0.0,0.0,0.0,0.0,0.0,0.0,0.0,0.0,0.0,0.0,-3.4397,-3.4397,-3.4397,-3.4397,-3.4397,-3.423,-3.3768,-3.3043,-3.2326,-3.1625,-3.0937,-3.0442,-3.0216,-3.017,-2.9669,-2.9255,-2.8956,-2.9187,-2.8746,0.0,0.0,-2.7762,-2.7478,-2.7478,-2.7404,-2.7473,-2.843,-2.8559,-2.8381,-2.8381,0.0,0.0,-2.9203,-2.9203,-2.9386,-3.0122,-2.9854,-2.9593,-3.0061,-2.9623,-2.9661,-3.1356,-3.1936,-3.2633,-3.3982,-3.466,-3.5168,-3.565,-3.5754,-3.5927,-3.6277,-3.6332,-3.6332,-3.6332,-3.6332,-3.6332,-3.6332,-3.6332,-3.6332,-3.6332,-3.6332,-3.6332,-3.6332,-3.6332,-3.6332,-3.6332,-3.6332,-3.6332,-3.6332,-3.5982,-3.5817,-3.5763,-3.5411,-3.53,-3.5245,-3.4914,-3.4803,-3.4614,-3.2509,-3.1592,-3.1419,-2.9667,-2.881,-2.875,-3.0037,-3.0378,-3.0173,0.0,0.0,0.0,0.0,0.0,0.0,0.0,0.0,0.0,0.0,0.0,0.0,0.0,0.0,0.0,0.0,0.0,0.0,0.0,0.0,0.0,0.0,0.0,0.0,0.0,0.0,0.0,0.0,0.0,0.0,0.0,0.0,-3.4397,-3.4356,-3.3725,-3.3018,-3.2258,-3.1605,-3.0892,-3.0216,-3.0216,-3.0216,-3.017,-2.9669,-2.9485,-2.9393,-2.891,0.0,0.0,0.0,-2.7998,-2.7998,-2.7998,-2.7668,0.0,-2.8407,-2.9019,-2.9359,0.0,0.0,-3.0188,-3.0236,-3.0263,-3.0236,-3.0209,-2.9871,-2.9665,-3.0032,-2.9342,-2.9315,-3.1227,-3.1564,-3.2249,-3.4409,-3.4196,-3.4338,-3.6054,-3.53,-3.4969,-3.6145,-3.6332,-3.6332,0.0,-3.6332,-3.6332,-3.6332,-3.6332,-3.6332,-3.6332,-3.6332,-3.6332,-3.6332,-3.6332,-3.6332,-3.6332,-3.6332,-3.6332,-3.6277,-3.5102,-3.4525,-3.4525,-3.3304,-3.2716,-3.268,-3.1496,-3.0995,-3.0878,-2.9608,-2.9094,-2.9094,-2.9035,-2.8975,-2.8957,-2.9057,-2.856,-2.7879,0.0,0.0,0.0,0.0,0.0,0.0,0.0,0.0,0.0,0.0,0.0,0.0,0.0,0.0,0.0,0.0,0.0,0.0,0.0,0.0,0.0,0.0,0.0,0.0,0.0,0.0,0.0,0.0,0.0,0.0,0.0,0.0,0.0,-3.4356,-3.3683,-3.3,-3.2258,-3.1605,-3.0847,-3.0216,-3.0216,-3.0034,-2.9715,-2.9577,-2.9071,-2.8513,0.0,0.0,0.0,0.0,-2.8092,-2.7547,-2.7547,0.0,-2.7876,-2.8894,-2.9756,-3.0355,-3.0002,0.0,-3.0767,-3.1212,-3.1014,-3.0883,-3.1512,-3.0983,-3.0324,-3.0087,-2.9306,-2.8933,-2.9775,-3.0019,-3.0632,-3.2223,-3.3258,-3.3846,-3.3858,-3.4224,-3.4636,-3.5046,-3.5102,0.0,0.0,0.0,0.0,-3.6332,-3.6332,-3.6332,-3.6332,-3.5543,-3.5102,-3.5102,-3.428,-3.3866,-3.3866,-3.3866,-3.3866,-3.3866,-3.3417,-3.3247,-3.3191,-3.2794,-3.2623,-3.2566,-3.2166,-3.1994,-3.1879,-3.0704,-3.0197,-3.0079,-2.9035,-2.8696,-2.8636,-2.8439,-2.8158,-2.7948,0.0,0.0,0.0,0.0,0.0,0.0,0.0,0.0,0.0,0.0,0.0,0.0,0.0,0.0,0.0,0.0,0.0,0.0,0.0,0.0,0.0,0.0,0.0,0.0,0.0,0.0,0.0,0.0,0.0,0.0,0.0,0.0,0.0,0.0,0.0,-3.2587,-3.1889,-3.1205,-3.0623,-3.0216,-3.0216,-3.0034,-2.9715,-2.9577,-2.9117,0.0,0.0,0.0,0.0,0.0,0.0,-2.7187,-2.7687,-2.8216,-2.8809,-2.9473,-3.0228,-3.0882,-3.0976,-3.108,-3.13,-3.185,-3.1328,-3.0809,-3.1265,-3.0328,-2.9387,-2.925,-2.8368,-2.7994,-2.9197,-2.9347,-2.9788,-3.1304,-3.2529,-3.3053,-3.2654,-3.3719,-3.4469,-3.4469,-3.4469,-3.4969,0.0,0.0,0.0,-3.5653,-3.5245,-3.4947,-3.4947,-3.4224,-3.3832,-3.3832,-3.3021,-3.2623,-3.2623,-3.2623,-3.2395,-3.1937,-3.1937,-3.1707,-3.1303,-3.1303,-3.1245,-3.1129,-3.1129,-3.1072,-3.0897,-3.0119,-2.9766,-2.9707,-2.8737,-2.8337,-2.8277,-2.808,-2.79,-2.7864,0.0,0.0,0.0,0.0,0.0,0.0,0.0,0.0,0.0,0.0,0.0,0.0,0.0,0.0,0.0,0.0,0.0,0.0,0.0,0.0,0.0,0.0,0.0,0.0,0.0,0.0,0.0,0.0,0.0,0.0,0.0,0.0,0.0,0.0,0.0,0.0,-3.1178,-3.0486,-3.017,-3.0193,-3.0216,-3.017,-3.0125,-2.9623,0.0,0.0,0.0,0.0,0.0,0.0,0.0,0.0,0.0,-2.9261,-3.0032,-3.0053,-3.0444,-3.0991,-3.2015,-3.1913,-3.1607,-3.2167,-3.1206,-3.0068,-2.9565,-2.8116,-2.7096,-2.7599,-2.6645,-2.6536,0.0,0.0,-2.9496,-3.1521,-3.185,-3.2008,-3.2349,-3.3473,-3.4302,0.0,0.0,0.0,0.0,0.0,0.0,-3.4302,0.0,-3.268,-3.2623,-3.2566,-3.2509,-3.2509,-3.2452,-3.2452,-3.2452,-3.2452,-3.1822,-3.0704,-3.0704,-3.0079,-2.8993,-2.8993,-2.8815,-2.8457,-2.8457,-2.8277,-2.802,-2.802,-2.802,-2.802,-2.796,-2.796,-2.796,-2.796,-2.7779,-2.7521,0.0,0.0,0.0,0.0,0.0,0.0,0.0,0.0,0.0,0.0,0.0,0.0,0.0,0.0,0.0,0.0,0.0,0.0,0.0,0.0,0.0,0.0,0.0,0.0,0.0,0.0,0.0,0.0,0.0,0.0,0.0,0.0,0.0,0.0,0.0,0.0,-3.0153,-2.9813,-2.9688,-2.9711,0.0,-2.9988,-2.9577,0.0,0.0,0.0,0.0,0.0,0.0,0.0,0.0,0.0,0.0,-2.8287,-2.9119,-2.9807,-3.0099,-3.0339,-3.1043,-3.063,-3.0141,-3.0691,-2.9786,-2.8701,-2.8542,-2.7849,-2.7168,-2.6898,-2.6409,-2.6154,0.0,0.0,0.0,-2.7938,-2.9283,0.0,-2.9546,-3.0779,0.0,-3.1727,0.0,-3.2244,-3.3417,-3.2473,0.0,0.0,-3.3155,-3.3607,-3.268,-3.1785,-3.1265,-3.1265,-3.0412,-2.9884,-2.9884,-2.9884,-2.9785,-2.945,-2.945,-2.9153,-2.8636,-2.8636,-2.8457,-2.814,-2.814,-2.808,-2.802,-2.802,-2.802,-2.796,-2.7702,-2.7642,-2.7581,-2.7418,-2.7315,-2.7194,0.0,0.0,0.0,0.0,0.0,0.0,0.0,0.0,0.0,0.0,0.0,0.0,0.0,0.0,0.0,0.0,0.0,0.0,0.0,0.0,0.0,0.0,0.0,0.0,0.0,0.0,0.0,0.0,0.0,0.0,0.0,0.0,0.0,0.0,0.0,0.0,-2.9324,0.0,0.0,0.0,0.0,0.0,0.0,0.0,0.0,0.0,0.0,0.0,0.0,0.0,0.0,-2.6458,-2.6777,-2.7843,-2.9012,-2.961,0.0,-2.9921,-3.0401,-2.9899,-2.9206,-2.9323,-2.8466,-2.7503,-2.7314,-2.6735,-2.6209,-2.599,-2.5826,0.0,-2.6227,0.0,0.0,0.0,0.0,0.0,-2.8508,-3.0258,-3.1381,0.0,-3.082,0.0,-3.2509,-3.1496,-3.082,0.0,-3.1612,-3.1785,-3.1091,-3.0236,-2.9844,-3.002,-2.9213,-2.8874,-2.8975,-2.8975,-2.8975,-2.8975,-2.8975,-2.8815,-2.8517,-2.8517,-2.8217,-2.7762,0.0,-2.7719,-2.7599,-2.7599,-2.7599,-2.7599,-2.7418,-2.7297,-2.7297,-2.7133,-2.7073,-2.7073,0.0,0.0,0.0,0.0,0.0,0.0,0.0,0.0,0.0,0.0,0.0,0.0,0.0,0.0,0.0,0.0,0.0,0.0,0.0,0.0,0.0,0.0,0.0,0.0,0.0,0.0,0.0,0.0,0.0,0.0,0.0,0.0,0.0,0.0,0.0,0.0,0.0,0.0,0.0,0.0,0.0,0.0,0.0,0.0,0.0,0.0,0.0,0.0,0.0,0.0,-2.434,-2.6426,-2.6142,-2.7388,-2.8962,-2.9181,-2.9197,-2.9303,-2.9807,-2.9173,-2.8346,-2.7999,-2.7158,-2.6366,-2.6007,-2.5348,-2.4868,-2.5128,0.0,-2.5441,-2.65,-2.6391,-2.6481,-2.7585,0.0,-2.9201,-2.8449,-3.0527,-3.1707,-3.0645,-3.0529,-3.0975,-3.2052,-3.1208,-3.0625,-3.0567,-2.9583,-2.8971,-2.8934,-2.8636,-2.8636,-2.8856,-2.8696,-2.8696,-2.8916,-2.8975,-2.8975,-2.8975,-2.8934,-2.8755,-2.8457,-2.8397,-2.802,-2.7461,-2.7461,-2.7297,-2.7073,-2.7073,-2.7073,-2.7073,-2.7073,-2.7073,-2.7073,-2.7073,-2.7073,-2.7073,0.0,0.0,0.0,0.0,0.0,0.0,0.0,0.0,0.0,0.0,-2.7756,-2.8222,0.0,0.0,0.0,0.0,0.0,0.0,0.0,0.0,0.0,0.0,0.0,0.0,0.0,0.0,0.0,0.0,0.0,0.0,0.0,0.0,0.0,0.0,0.0,0.0,0.0,0.0,0.0,0.0,0.0,0.0,0.0,0.0,0.0,0.0,0.0,0.0,0.0,0.0,-2.3536,-2.4794,-2.5094,-2.6124,-2.7204,-2.7645,-2.7761,-2.7761,-2.7868,-2.726,-2.6537,-2.6482,-2.5769,-2.5121,-2.5051,-2.4923,0.0,0.0,-2.4868,-2.4923,-2.5145,-2.5778,-2.6343,-2.6583,0.0,0.0,0.0,0.0,-2.9431,0.0,0.0,0.0,0.0,0.0,0.0,0.0,-2.9168,-2.892,-2.8594,-2.8517,-2.8397,-2.8199,-2.8618,-2.8815,-2.8576,-2.8874,-2.8975,-2.8975,-2.8696,-2.8397,-2.808,-2.7762,-2.7478,-2.7194,-2.7194,0.0,-2.7073,-2.7073,-2.7073,-2.7073,-2.7073,-2.7073,-2.7073,-2.7073,-2.7073,-2.7073,0.0,0.0,0.0,0.0,0.0,0.0,0.0,0.0,-2.6636,-2.6739,-2.7105,-2.7533,-2.7945,-2.8211,0.0,0.0,0.0,0.0,0.0,0.0,0.0,0.0,0.0,0.0,0.0,0.0,0.0,0.0,0.0,0.0,0.0,0.0,0.0,0.0,0.0,0.0,0.0,0.0,0.0,0.0,0.0,0.0,0.0,0.0,0.0,0.0,0.0,0.0,0.0,0.0,-2.3219,-2.4034,-2.4228,-2.5443,-2.6676,-2.6732,-2.6735,-2.6735,-2.6735,-2.6244,-2.5705,-2.5511,-2.5284,-2.5052,-2.4864,0.0,0.0,0.0,-2.4812,-2.4937,-2.5237,0.0,0.0,0.0,0.0,0.0,0.0,0.0,0.0,0.0,0.0,0.0,0.0,0.0,0.0,-2.9382,-2.9215,-2.8931,-2.8556,-2.8324,-2.808,-2.7762,-2.8199,-2.8379,-2.8259,-2.8379,-2.8498,-2.8498,-2.8337,-2.808,-2.7702,-2.7581,-2.7358,-2.7073,-2.7073,-2.7073,-2.7073,-2.7073,-2.7073,-2.7073,-2.7073,-2.7073,-2.7073,-2.7073,-2.7073,-2.7073,0.0,0.0,0.0,0.0,0.0,0.0,0.0,-2.6336,-2.6233,-2.6233,-2.6173,-2.6382,-2.7017,-2.6849,-2.6602,0.0,0.0,0.0,0.0,0.0,0.0,0.0,0.0,0.0,0.0,0.0,0.0,0.0,0.0,0.0,0.0,0.0,0.0,0.0,0.0,0.0,0.0,0.0,0.0,0.0,0.0,0.0,0.0,0.0,0.0,0.0,0.0,0.0,0.0,0.0,-2.31,-2.3718,-2.3718,-2.4863,-2.6221,-2.5882,-2.5826,-2.5826,-2.5826,-2.5558,-2.5189,-2.4898,-2.5035,-2.5172,-2.4881,-2.4812,0.0,0.0,-2.4812,-2.4988,-2.5592,0.0,-2.6132,0.0,0.0,0.0,0.0,0.0,0.0,0.0,0.0,0.0,0.0,0.0,0.0,-2.9592,-2.9251,-2.887,-2.8518,-2.82,-2.7807,-2.7418,-2.7779,-2.796,-2.79,-2.796,-2.802,-2.802,-2.796,-2.7762,-2.7521,-2.7461,-2.7297,-2.7073,-2.7073,-2.7073,-2.7073,-2.7073,-2.7073,-2.7073,-2.7073,-2.7073,-2.7073,-2.7073,-2.7073,-2.7073,0.0,0.0,0.0,0.0,0.0,0.0,0.0,-2.5886,-2.5406,-2.5406,-2.4779,-2.4384,-2.4431,-2.5817,-2.642,0.0,0.0,0.0,0.0,0.0,0.0,0.0,0.0,0.0,0.0,0.0,0.0,0.0,0.0,0.0,0.0,0.0,0.0,0.0,0.0,0.0,0.0,0.0,0.0,0.0,0.0,0.0,0.0,0.0,0.0,0.0,0.0,0.0,0.0,0.0,0.0,-2.3718,-2.3718,-2.427,-2.4982,-2.4906,0.0,0.0,-2.4923,-2.4902,-2.4864,-2.483,-2.4847,-2.4864,-2.483,0.0,0.0,-2.4812,-2.4812,-2.4932,-2.5366,-2.5921,-2.6458,0.0,0.0,0.0,0.0,0.0,0.0,0.0,0.0,0.0,0.0,0.0,0.0,-2.9305,-2.8973,-2.8662,-2.8166,-2.8079,-2.7783,-2.715,-2.7719,-2.784,-2.7581,-2.784,-2.802,-2.802,-2.7702,-2.7521,-2.7521,-2.7237,-2.7133,-2.7073,-2.7073,-2.7073,0.0,-2.7073,-2.7073,-2.7073,-2.7073,-2.7073,-2.7073,-2.7073,-2.7073,-2.7073,0.0,0.0,0.0,0.0,0.0,0.0,-2.5851,-2.5535,-2.5123,-2.4636,-2.4312,-2.395,-2.3497,-2.4059,-2.432,0.0,0.0,0.0,0.0,0.0,0.0,0.0,0.0,0.0,0.0,0.0,0.0,0.0,0.0,0.0,0.0,0.0,0.0,0.0,0.0,0.0,0.0,0.0,0.0,0.0,0.0,0.0,0.0,0.0,0.0,0.0,0.0,0.0,0.0,0.0,0.0,0.0,-2.3682,-2.4213,0.0,0.0,-2.4812,-2.4812,-2.4812,-2.4812,-2.4812,-2.4812,-2.4812,-2.4812,-2.4812,0.0,-2.4812,-2.4812,-2.5001,-2.5258,-2.5634,-2.6127,-2.6565,0.0,0.0,0.0,0.0,0.0,0.0,0.0,0.0,0.0,0.0,0.0,-2.914,-2.9237,-2.9158,-2.8935,-2.8547,-2.8064,-2.7675,-2.7398,-2.7418,-2.7375,-2.7237,-2.7375,-2.7496,-2.7496,-2.7297,-2.7237,-2.7237,-2.7133,-2.7073,-2.7073,-2.7073,-2.7073,0.0,-2.7073,-2.7073,-2.7073,-2.7073,-2.7073,-2.7073,-2.7073,-2.7073,-2.7073,0.0,0.0,0.0,0.0,0.0,-2.5886,-2.5087,-2.4767,-2.4407,-2.3841,-2.3585,-2.3217,-2.2703,-2.2665,-2.2665,-2.2665,0.0,0.0,0.0,0.0,0.0,0.0,0.0,0.0,0.0,0.0,0.0,-2.5168,-2.538,0.0,0.0,0.0,0.0,0.0,0.0,0.0,0.0,0.0,0.0,0.0,0.0,0.0,0.0,0.0,0.0,0.0,0.0,0.0,0.0,0.0,0.0,0.0,0.0,0.0,0.0,0.0,-2.4812,-2.4812,-2.4812,-2.4812,-2.4812,-2.4812,-2.4812,-2.4812,0.0,0.0,-2.4812,-2.4812,-2.5121,-2.548,-2.5874,-2.6234,-2.661,0.0,0.0,0.0,0.0,0.0,0.0,0.0,0.0,-2.826,0.0,-2.9088,-2.9008,-2.9265,-2.9316,-2.9196,-2.8956,-2.8306,-2.7843,-2.7621,-2.7364,-2.7176,-2.7073,-2.7073,-2.7073,-2.7073,-2.7073,-2.7073,-2.7073,-2.7073,-2.7073,-2.7073,-2.7073,-2.7073,0.0,-2.7073,-2.7073,-2.7073,-2.7073,-2.7073,-2.7073,-2.7073,-2.7073,-2.7073,0.0,0.0,0.0,0.0,0.0,0.0,0.0,-2.3497,-2.3038,-2.3001,-2.2327,-2.1797,-2.1797,-2.1797,-2.1797,-2.1797,0.0,0.0,0.0,0.0,0.0,0.0,0.0,0.0,0.0,0.0,-2.4186,-2.3493,-2.4206,-2.4487,-2.4487,0.0,0.0,0.0,0.0,0.0,0.0,0.0,0.0,0.0,0.0,0.0,0.0,0.0,0.0,0.0,0.0,0.0,0.0,0.0,0.0,0.0,0.0,0.0,0.0,0.0,-2.4812,-2.4812,-2.4812,-2.4812,-2.4812,-2.4812,-2.4812,-2.4812,0.0,0.0,-2.4812,-2.4812,-2.5121,-2.548,-2.5874,-2.6234,-2.661,-2.7004,0.0,0.0,0.0,0.0,0.0,0.0,0.0,0.0,-2.8637,-2.9064,-2.9299,-2.9316,-2.9316,0.0,-2.9299,-2.8956,-2.8408,-2.7638,-2.7604,-2.7432,-2.7073,-2.7073,-2.7073,-2.7073,-2.7073,-2.7073,-2.7073,-2.7073,-2.7073,-2.7073,-2.7073,-2.7073,0.0,-2.7073,-2.7073,-2.7073,-2.7073,-2.7073,-2.7073,-2.7073,-2.7073,-2.7073,0.0,0.0,0.0,0.0,0.0,0.0,0.0,-2.315,-2.2815,-2.2252,-2.1949,-2.1797,-2.1797,-2.1797,-2.1797,-2.1797,0.0,0.0,0.0,0.0,0.0,0.0,0.0,0.0,0.0,0.0,-2.3493,-2.2755,-2.3493,-2.3797,-2.3797,-2.3797,-2.3797,0.0,0.0,0.0,0.0,0.0,0.0,0.0,0.0,0.0,0.0,0.0,0.0,0.0,0.0,0.0,0.0,0.0,0.0,0.0,0.0,0.0,0.0,0.0,0.0,0.0,-2.4812,-2.4812,-2.4812,-2.4812,-2.4812,-2.4812,-2.4812,-2.4812,-2.4812,-2.4812,-2.5326,-2.5788,-2.585,-2.6456,-2.6936,-2.7056,-2.7073,0.0,0.0,0.0,0.0,0.0,0.0,-2.8303,0.0,0.0,-2.9316,-2.9316,-2.9316,-2.9316,-2.9316,-2.9196,-2.8922,-2.8426,-2.7878,-2.7552,-2.7432,-2.7193,-2.7073,-2.7073,-2.7073,-2.7073,-2.7073,-2.7073,-2.7073,-2.7073,-2.7073,-2.7073,-2.7073,-2.7073,-2.7073,-2.7073,-2.7073,-2.7073,-2.7073,-2.7073,-2.7073,-2.7073,0.0,0.0,0.0,0.0,0.0,0.0,0.0,-2.2553,-2.2365,-2.1894,-2.1797,-2.1797,-2.1797,-2.1797,-2.1797,-2.1797,0.0,0.0,0.0,0.0,0.0,0.0,0.0,0.0,0.0,-2.2659,-2.2731,-2.2006,-2.2555,-2.2906,-2.3081,-2.2906,-2.2906,-2.3038,-2.258,0.0,0.0,0.0,0.0,0.0,0.0,0.0,-2.2603,0.0,0.0,0.0,0.0,0.0,0.0,0.0,0.0,0.0,0.0,0.0,0.0,0.0,-2.4812,0.0,0.0,-2.4812,-2.4812,-2.4812,-2.4812,-2.4812,-2.4812,-2.4812,-2.4812,-2.4812,-2.5355,-2.5885,-2.5885,-2.6559,-2.7073,-2.7073,-2.7073,0.0,0.0,0.0,0.0,-2.7358,0.0,0.0,0.0,-2.8871,-2.9316,-2.9316,-2.9316,-2.9316,-2.9316,-2.9316,-2.9213,-2.8991,-2.8237,-2.7758,-2.7604,-2.7261,-2.7073,-2.7073,-2.7073,-2.7073,-2.7073,-2.7073,-2.7073,-2.7073,-2.7073,-2.7073,0.0,-2.7073,-2.7073,-2.7073,-2.7073,-2.7073,-2.7073,-2.7073,-2.7073,-2.7073,0.0,0.0,0.0,0.0,0.0,0.0,0.0,0.0,0.0,-2.178,-2.1759,-2.1759,-2.1759,-2.1721,-2.1683,-2.1683,0.0,0.0,0.0,0.0,0.0,0.0,0.0,0.0,0.0,-2.1553,-2.1961,-2.1266,-2.1516,-2.1828,-2.2208,-2.1784,-2.1828,-2.2208,-2.2164,-2.1802,-2.1248,-2.0957,-2.1258,-2.1889,-2.1923,-2.2144,0.0,0.0,0.0,0.0,0.0,0.0,0.0,0.0,0.0,0.0,0.0,0.0,0.0,0.0,0.0,0.0,0.0,-2.4812,0.0,0.0,-2.4812,-2.4812,-2.4812,-2.4812,0.0,-2.4864,-2.5429,-2.5885,-2.5919,-2.6576,-2.7073,-2.7073,-2.7073,0.0,0.0,-2.7073,0.0,0.0,-2.7758,0.0,-2.8237,-2.8888,-2.9316,-2.9316,-2.9316,-2.9316,-2.9316,-2.9316,-2.9316,-2.9316,-2.8614,-2.8066,-2.7689,-2.7313,-2.7107,-2.7107,-2.709,-2.7073,-2.7073,-2.7073,-2.7073,0.0,-2.7073,-2.7073,-2.7073,-2.7073,-2.7073,-2.7073,-2.7073,-2.7073,-2.7073,-2.7073,-2.7073,-2.7073,0.0,0.0,0.0,0.0,0.0,0.0,0.0,0.0,0.0,0.0,-2.1474,-2.1589,-2.1589,-2.0972,-2.0605,0.0,0.0,0.0,0.0,0.0,0.0,0.0,0.0,0.0,0.0,-2.1116,-2.1132,-2.0002,-2.0591,-2.0709,-2.0484,-2.0393,-2.0376,-2.0466,-1.9894,-1.9695,-1.9821,-2.0265,-2.0522,-2.07,-2.104,-2.1202,0.0,0.0,0.0,0.0,-2.1776,-2.2178,0.0,0.0,0.0,0.0,0.0,0.0,0.0,0.0,-2.4812,-2.4812,-2.4812,0.0,-2.4812,-2.4812,-2.4812,-2.4812,0.0,-2.4812,-2.4898,-2.5189,-2.5617,-2.597,-2.6302,-2.6747,-2.7073,-2.7073,0.0,0.0,-2.7073,0.0,0.0,-2.745,-2.7895,-2.8306,-2.8614,-2.9042,-2.9316,-2.9316,-2.9316,-2.9316,-2.9316,-2.9316,-2.9316,-2.9316,-2.8871,-2.8597,-2.8511,-2.7826,-2.7484,-2.7467,-2.721,-2.7073,-2.7073,-2.7073,-2.7073,-2.7073,-2.7073,-2.7073,-2.7073,-2.7073,-2.7073,-2.7073,-2.7073,-2.7073,-2.7073,-2.7073,-2.7073,-2.7073,0.0,0.0,0.0,0.0,0.0,0.0,0.0,0.0,0.0,0.0,0.0,0.0,0.0,0.0,0.0,0.0,0.0,0.0,0.0,0.0,0.0,0.0,0.0,0.0,-1.9059,-1.9792,-1.9866,-1.9225,-1.9363,-1.9455,-1.9409,-1.918,-1.918,-1.9363,-1.9126,-1.9209,-1.9622,-2.0097,-2.043,-2.0588,-2.0794,0.0,0.0,0.0,0.0,0.0,-2.1409,-2.2012,0.0,-2.2984,-2.3528,-2.4098,0.0,0.0,0.0,0.0,-2.4812,-2.4812,-2.4812,-2.4812,-2.4812,-2.4812,-2.4812,-2.4812,-2.4812,-2.4812,-2.4932,-2.5292,-2.5669,-2.5987,-2.6422,-2.6816,-2.7073,0.0,-2.7073,0.0,0.0,0.0,-2.721,-2.7569,-2.7946,-2.8357,0.0,-2.9111,-2.9316,-2.9316,-2.9316,-2.9316,-2.9316,-2.9316,-2.9316,-2.9316,-2.9128,-2.8939,-2.8785,-2.8186,-2.7878,-2.7878,-2.7501,-2.7313,-2.7313,-2.7141,-2.7073,-2.7073,-2.7073,-2.7073,-2.7073,-2.7073,-2.7073,-2.7073,-2.7073,-2.7073,-2.709,-2.7261,-2.7313,-2.7347,0.0,0.0,0.0,0.0,0.0,0.0,0.0,0.0,0.0,0.0,0.0,0.0,0.0,0.0,0.0,0.0,0.0,0.0,0.0,0.0,0.0,0.0,0.0,-1.8343,-1.7886,-1.8494,-1.8781,-1.8689,-1.8272,-1.8272,-1.855,-1.8179,-1.821,-1.8644,-1.9051,-1.938,-1.9775,-2.0022,-2.0335,-2.0668,-2.0668,0.0,0.0,0.0,0.0,0.0,0.0,0.0,0.0,-2.2261,-2.2871,-2.3753,-2.368,0.0,0.0,0.0,0.0,0.0,-2.4812,-2.4812,-2.4812,-2.4812,-2.4812,-2.4812,-2.4812,0.0,0.0,0.0,0.0,0.0,0.0,-2.685,0.0,0.0,0.0,0.0,-2.7073,-2.7124,-2.7295,-2.7655,-2.8049,0.0,-2.8819,-2.9128,-2.9316,-2.9316,-2.9316,-2.9316,-2.9316,-2.9316,-2.9316,-2.9316,-2.9316,-2.9162,-2.8871,-2.8477,-2.8289,-2.8271,-2.7878,-2.7689,-2.7689,-2.7313,-2.7158,-2.7158,0.0,0.0,-2.7073,-2.7073,-2.7107,-2.7158,-2.7158,-2.7193,-2.7278,-2.7586,-2.7689,-2.7741,0.0,0.0,0.0,0.0,0.0,0.0,0.0,0.0,0.0,0.0,0.0,0.0,0.0,0.0,0.0,0.0,0.0,0.0,0.0,0.0,0.0,0.0,-1.7298,-1.8037,-1.8208,-1.8621,-1.8596,-1.8226,-1.8133,-1.79,-1.7512,-1.7466,-1.7613,-1.7956,-1.8627,-1.8924,-1.8983,-1.9324,-1.9487,-1.9532,-1.9532,0.0,0.0,0.0,0.0,0.0,0.0,0.0,0.0,-2.1092,-2.2075,-2.3062,-2.2789,0.0,0.0,0.0,0.0,0.0,-2.4812,-2.4812,-2.4812,-2.4812,-2.4812,-2.4812,-2.4812,-2.5052,0.0,0.0,0.0,0.0,0.0,-2.7039,-2.7073,0.0,0.0,-2.7073,0.0,0.0,-2.7672,-2.8049,0.0,-2.8837,-2.9196,-2.9282,-2.9316,-2.9316,-2.9316,-2.9316,-2.9316,-2.9316,-2.9316,-2.9316,-2.9316,-2.9282,-2.923,-2.8871,-2.87,-2.8682,-2.8289,-2.81,-2.8083,-2.7706,-2.7518,-2.7501,0.0,-2.7073,-2.7073,-2.7073,-2.7261,-2.7518,-2.7518,-2.7723,-2.8032,-2.8083,-2.81,-2.7912,0.0,0.0,0.0,0.0,0.0,0.0,0.0,0.0,0.0,0.0,0.0,0.0,0.0,0.0,0.0,0.0,0.0,0.0,0.0,0.0,0.0,-1.614,-1.6906,-1.737,-1.7538,-1.7857,-1.7885,-1.7652,-1.7652,-1.7512,-1.7279,-1.7501,-1.7765,-1.8101,-1.8584,-1.8789,-1.8803,-1.914,-1.9272,-1.9272,0.0,0.0,0.0,0.0,0.0,0.0,0.0,0.0,0.0,0.0,-2.0216,-2.0973,-2.083,0.0,0.0,0.0,0.0,0.0,-2.4646,-2.4812,-2.4812,-2.4812,-2.4812,-2.4864,-2.5069,-2.5258,0.0,0.0,0.0,0.0,0.0,0.0,-2.7073,-2.7073,0.0,-2.7073,-2.7073,-2.7381,-2.7758,0.0,0.0,-2.8922,-2.9282,-2.9316,-2.9316,-2.9316,-2.9316,-2.9316,-2.9316,-2.9316,-2.9316,-2.9316,-2.9316,-2.9316,-2.9316,-2.9145,-2.9059,-2.9059,-2.8682,-2.8511,-2.8494,-2.81,-2.7929,-2.7912,0.0,-2.7672,-2.7672,-2.7672,-2.7775,-2.7866,-2.7018,-2.6865,-2.6918,-2.6391,-2.6241,-2.6349,0.0,0.0,0.0,0.0,0.0,0.0,0.0,0.0,0.0,0.0,0.0,0.0,0.0,0.0,0.0,0.0,0.0,0.0,0.0,0.0,-1.6082,-1.6507,-1.6771,-1.6932,-1.7005,-1.7208,-1.7279,-1.7279,-1.7279,-1.7323,-1.7457,-1.7852,-1.8174,-1.8438,-1.876,-1.8906,-1.8921,-1.9169,-1.9272,-1.9272,0.0,0.0,0.0,0.0,0.0,0.0,0.0,0.0,0.0,0.0,0.0,0.0,0.0,0.0,0.0,-2.1643,-2.2507,-2.3199,-2.4128,-2.459,-2.4812,-2.4812,-2.4812,-2.4915,-2.5292,-2.5446,-2.5686,0.0,0.0,0.0,0.0,-2.7073,0.0,-2.7073,-2.7073,-2.7073,-2.7073,-2.7467,-2.786,-2.8152,-2.8614,-2.9008,-2.9282,-2.9316,-2.9316,-2.9316,-2.9316,-2.9316,-2.9316,-2.9316,-2.9316,-2.9316,-2.8971,-2.8839,-2.8839,-2.851,-2.8642,-2.9299,-2.9042,-2.8905,-2.8888,-2.8511,-2.8133,-2.7798,-2.7714,-2.7474,-2.7203,-2.7203,-2.727,-2.7208,-2.6038,-2.5698,-2.5677,-2.4871,-2.452,-2.4467,0.0,0.0,0.0,0.0,0.0,0.0,0.0,0.0,0.0,0.0,0.0,0.0,0.0,0.0,0.0,0.0,0.0,0.0,0.0,0.0,-1.6184,-1.6844,-1.6888,-1.7035,-1.7296,-1.7264,-1.7279,-1.7279,-1.7279,-1.7486,-1.7794,-1.8423,-1.873,-1.8774,-1.9096,-1.9242,-1.9294,-1.9272,-1.9272,-1.922,-1.8408,0.0,0.0,0.0,0.0,0.0,0.0,0.0,0.0,0.0,0.0,0.0,0.0,0.0,-1.9954,-2.063,-2.1885,-2.303,-2.3087,-2.396,-2.4812,-2.4812,-2.4812,-2.4915,-2.5292,-2.5652,-2.6011,-2.6405,0.0,0.0,0.0,-2.7073,-2.7073,-2.7073,-2.7073,-2.7073,-2.7073,0.0,-2.8169,-2.8186,-2.8837,-2.9282,-2.9299,-2.9316,-2.9316,-2.9316,-2.9316,-2.9316,-2.9316,-2.9316,-2.9316,-2.9316,-2.8031,-2.7368,-2.7368,-2.6017,-2.662,-2.9316,-2.9282,-2.9265,-2.9265,-2.8905,-2.7991,-2.6695,-2.6311,-2.5399,-2.4222,-2.4222,-2.4399,-2.4679,-2.4547,-2.4723,-2.5069,-2.4964,-2.4099,-2.2956,0.0,0.0,0.0,0.0,0.0,0.0,0.0,0.0,0.0,0.0,0.0,0.0,0.0,0.0,0.0,0.0,0.0,0.0,0.0,0.0,-1.6653,-1.6888,-1.7047,-1.6976,-1.6622,-1.7091,-1.7279,-1.7279,-1.753,-1.7896,-1.8423,-1.8672,-1.8891,-1.9096,-1.9213,-1.9272,-1.9272,-1.9272,-1.9441,-1.9526,-1.861,-1.8414,0.0,0.0,0.0,0.0,0.0,0.0,0.0,0.0,-1.636,-1.6644,0.0,-1.7056,-1.7923,-1.8958,-1.994,-2.0859,-2.1601,-2.2749,-2.3545,-2.2902,-2.3951,0.0,0.0,-2.6011,-2.6388,-2.6782,-2.697,0.0,0.0,0.0,-2.7073,-2.7073,-2.7073,-2.7158,-2.7381,-2.786,-2.8289,-2.8528,-2.9008,-2.9316,-2.9316,-2.9316,-2.9316,-2.9316,-2.9316,-2.9316,-2.9316,-2.8444,-2.7965,-2.7965,-2.6553,-2.5816,-2.5816,-2.5278,-2.5547,-2.662,-2.662,-2.662,-2.662,-2.6495,-2.6167,-2.562,-2.5417,-2.5107,-2.4561,-2.4561,-2.4634,-2.4684,-2.3728,-2.293,-2.2297,-2.2297,-2.1953,-2.1471,0.0,0.0,0.0,0.0,0.0,0.0,0.0,0.0,0.0,0.0,0.0,0.0,0.0,0.0,0.0,0.0,0.0,0.0,-1.6199,-1.6653,-1.6947,-1.7004,-1.6976,-1.681,-1.6574,-1.681,-1.6994,-1.7108,-1.7766,-1.8201,-1.8419,-1.8789,-1.8795,-1.8475,-1.8788,-1.875,-1.8489,-1.8587,-1.8741,-1.8845,-1.8021,-1.7835,0.0,0.0,0.0,0.0,0.0,0.0,0.0,0.0,-1.5601,0.0,0.0,0.0,0.0,0.0,-1.8506,-1.9492,-2.0343,-2.143,-2.226,-2.1671,0.0,0.0,-2.5311,-2.6008,-2.6593,-2.6987,-2.7073,-2.7073,-2.7073,0.0,0.0,0.0,-2.7073,-2.7193,-2.7552,-2.7946,-2.834,-2.8734,-2.9093,-2.9316,-2.9316,-2.9316,-2.9102,-2.8642,-2.8642,-2.8444,-2.7965,-2.702,-2.6486,-2.6486,-2.5061,-2.4317,-2.4317,-2.3856,-2.3652,-2.3652,-2.3652,-2.4128,-2.5008,-2.5008,-2.4738,-2.4317,-2.4317,-2.406,-2.3652,-2.3652,-2.3652,-2.3515,-2.2559,-2.154,-2.0665,-2.0665,-2.0665,-2.0665,0.0,0.0,0.0,0.0,0.0,0.0,0.0,0.0,0.0,0.0,0.0,0.0,0.0,0.0,0.0,0.0,0.0,0.0,-1.6859,-1.6903,-1.7004,-1.7264,-1.6574,-1.6527,-1.7232,-1.6574,-1.6348,-1.6697,-1.8117,-1.8317,-1.7538,-1.8697,-1.837,-1.6736,-1.7621,-1.7516,-1.6696,-1.6975,-1.7089,-1.706,-1.6462,-1.6329,-1.6379,0.0,0.0,0.0,0.0,0.0,0.0,0.0,-1.5601,-1.5601,0.0,0.0,0.0,-1.6478,-1.7818,-1.9261,-1.9261,-2.0171,-2.1146,-2.138,0.0,0.0,-2.4092,-2.5506,-2.6593,-2.7004,-2.7073,-2.7073,-2.7073,-2.7073,0.0,-2.7073,-2.7073,-2.721,-2.7569,-2.7946,-2.8277,-2.8734,-2.9028,-2.925,-2.925,-2.925,-2.8708,-2.7302,-2.7169,-2.6553,-2.5075,-2.5008,-2.5008,-2.5008,-2.357,-2.2751,-2.2751,-2.1415,-2.0665,-2.0665,-2.0665,-2.2229,-2.494,-2.494,-2.4181,-2.2751,-2.2751,-2.2009,-2.0665,-2.0665,-2.0665,-2.0665,-2.0665,-2.0665,-2.0665,-2.0665,-2.0665,-2.0665,0.0,0.0,0.0,0.0,0.0,0.0,0.0,0.0,0.0,0.0,0.0,0.0,0.0,0.0,0.0,0.0,0.0,0.0,-1.6888,-1.66,-1.643,-1.6513,-1.5818,-1.5235,-1.4902,-1.5035,-1.573,-1.6914,-1.6954,-1.6976,-1.6977,-1.7318,-1.7213,-1.6736,-1.6988,-1.7051,-1.6975,-1.7051,-1.7317,-1.7616,-1.6741,-1.6599,-1.6763,0.0,0.0,0.0,0.0,0.0,0.0,0.0,0.0,0.0,0.0,0.0,0.0,-1.6419,-1.7067,-1.7713,-1.7948,-1.8913,-1.973,-1.9361,0.0,0.0,0.0,-2.3855,0.0,0.0,-2.6327,-2.6006,-2.6952,-2.7073,0.0,-2.7073,-2.6466,-2.6064,-2.642,-2.5925,-2.5681,-2.6101,-2.6224,-2.6285,-2.6285,-2.6285,-2.6084,-2.5682,-2.5682,-2.548,-2.5008,-2.4046,-2.3434,-2.3434,-2.2091,-2.1346,-2.1346,-2.0943,-2.0665,-2.0665,-2.0665,-2.1138,-2.1966,-2.1966,-2.1747,-2.1346,-2.1346,-2.1069,-2.0665,-2.0665,-2.0665,-2.0665,-2.0665,-2.0665,-2.0665,-2.0665,-2.0665,-2.0665,0.0,0.0,0.0,0.0,0.0,0.0,0.0,0.0,0.0,0.0,0.0,0.0,0.0,0.0,0.0,0.0,0.0,0.0,0.0,0.0,-1.6055,-1.5758,-1.5057,-1.4437,-1.4049,-1.4565,-1.5285,-1.6215,-1.6342,-1.6348,-1.6258,-1.6577,-1.6365,-1.5737,-1.6143,-1.6235,-1.6065,-1.6279,-1.6553,-1.6782,-1.6321,-1.6283,-1.636,0.0,0.0,0.0,0.0,0.0,0.0,0.0,0.0,0.0,0.0,0.0,0.0,-1.6478,-1.6832,-1.7256,-1.742,-1.8139,0.0,-1.8362,-1.9501,-2.0801,-2.1025,0.0,0.0,0.0,-2.4887,-2.4579,-2.5378,-2.5517,0.0,-2.5633,-2.5141,-2.4853,-2.5264,-2.4788,-2.4561,-2.4964,-2.5008,-2.5008,-2.5008,-2.5008,-2.4738,-2.4181,-2.4114,-2.3856,-2.3311,-2.2421,-2.1953,-2.1953,-2.1138,-2.0665,-2.0665,-2.0665,-2.0665,-2.0665,-2.0665,-2.0665,-2.0665,-2.0665,-2.0665,-2.0665,-2.0665,-2.0665,-2.0665,-2.0665,-2.0665,-2.0665,-2.0665,-2.0665,-2.0665,-2.0665,-2.0665,-2.0665,0.0,0.0,0.0,0.0,0.0,0.0,0.0,0.0,0.0,0.0,0.0,0.0,0.0,0.0,0.0,0.0,0.0,0.0,0.0,0.0,-1.5663,-1.501,-1.4256,-1.3975,-1.4255,-1.467,-1.4926,-1.4949,-1.5976,-1.6099,-1.5405,-1.6152,-1.5684,-1.4288,-1.5249,-1.5264,-1.4577,-1.5006,-1.5199,-1.5242,-1.5515,-1.5601,-1.5601,-1.5601,0.0,0.0,0.0,0.0,0.0,0.0,0.0,0.0,-1.5601,-1.6005,-1.6478,-1.6478,-1.695,-1.7479,-1.7479,-1.7672,-1.7937,-1.8227,-1.8505,0.0,-2.0587,-2.1888,-2.2827,-2.3076,0.0,-2.2952,-2.3076,-2.3091,-2.3208,-2.3437,-2.3476,-2.358,-2.4092,-2.4142,-2.4204,-2.4559,-2.4602,-2.4602,-2.4602,-2.4602,-2.406,-2.2682,-2.2614,-2.2078,-2.0735,-2.0665,-2.0665,-2.0665,-2.0665,-2.0665,-2.0665,-2.0665,-2.0665,-2.0665,-2.0665,-2.0665,-2.0665,-2.0665,-2.0665,-2.0665,-2.0665,-2.0665,-2.0665,-2.0665,-2.0665,-2.0665,-2.0665,-2.0665,-2.0665,-2.0665,-2.0665,-2.0665,0.0,0.0,0.0,0.0,0.0,0.0,0.0,0.0,0.0,0.0,0.0,0.0,0.0,0.0,0.0,0.0,0.0,0.0,0.0,0.0,-1.4328,-1.4148,-1.3607,-1.3473,-1.3912,-1.4022,-1.4175,-1.4373,-1.4643,-1.4676,-1.4461,-1.4665,-1.4614,-1.446,-1.468,-1.4908,-1.5049,-1.5145,-1.5295,-1.5526,-1.558,-1.5601,-1.5601,-1.5601,-1.5601,0.0,0.0,0.0,0.0,0.0,0.0,0.0,-1.5601,-1.5898,-1.6253,-1.6419,-1.6773,-1.7138,-1.742,-1.7672,0.0,0.0,-1.865,-1.9063,-1.9431,-1.9763,-2.0576,-2.2702,-2.2264,-2.1825,-2.2889,-2.3281,-2.3408,-2.3466,-2.2944,-2.2591,-2.2713,-2.2062,-2.1546,-2.1609,-2.1622,-2.1622,-2.1622,-2.1622,-2.1484,-2.1207,-2.1138,-2.1,-2.0735,-2.0665,-2.0665,-2.0665,-2.0665,-2.0665,-2.0665,-2.0665,-2.0665,-2.0665,-2.0665,-2.0665,-2.0665,-2.0665,-2.0665,-2.0665,-2.0665,-2.0665,-2.0665,-2.0665,-2.0665,-2.0665,-2.0665,-2.0665,-2.0665,-2.0665,-2.0665,-2.0665,0.0,0.0,0.0,0.0,0.0,0.0,0.0,0.0,0.0,0.0,0.0,0.0,0.0,0.0,0.0,0.0,0.0,0.0,0.0,0.0,0.0,-1.3547,-1.3456,-1.3566,-1.3814,-1.3943,-1.4062,-1.4191,-1.4191,-1.4191,-1.4202,-1.4309,-1.4417,-1.4491,-1.4891,-1.5182,-1.5429,-1.5606,-1.5828,-1.5935,-1.5817,-1.5763,-1.5752,-1.5645,-1.5601,-1.5601,-1.5601,0.0,0.0,0.0,0.0,0.0,0.0,0.0,-1.6146,-1.6253,-1.6667,-1.7056,-1.7339,0.0,0.0,-1.8565,0.0,-1.9072,-1.9072,-1.9072,-1.952,-2.0893,-2.0639,-2.0386,-2.1082,-2.1373,-2.1628,-2.1775,-2.1527,-2.1391,-2.1518,-2.1052,-2.0665,-2.0665,-2.0665,-2.0665,-2.0665,-2.0665,-2.0665,-2.0665,-2.0665,-2.0665,-2.0665,-2.0665,-2.0665,-2.0665,-2.0665,-2.0665,-2.0665,-2.0665,-2.0665,-2.0665,-2.0665,-2.0665,-2.0665,-2.0665,-2.0665,-2.0665,-2.0665,-2.0665,-2.0665,-2.0665,-2.0665,-2.0665,-2.0665,-2.0665,-2.0665,-2.0665,-2.0665,-2.0665,0.0,0.0,0.0,0.0,0.0,0.0,0.0,0.0,0.0,0.0,0.0,0.0,0.0,0.0,0.0,0.0,0.0,0.0,0.0,0.0,0.0,0.0,-1.361,-1.3836,-1.3879,-1.4083,-1.4191,-1.4191,-1.4191,-1.4213,-1.4256,-1.4449,-1.4545,-1.474,-1.5332,-1.5645,-1.5741,-1.6097,-1.6247,-1.6226,-1.605,-1.5942,-1.5931,-1.5666,-1.5601,-1.5601,-1.5601,-1.5601,-1.5601,-1.5601,0.0,0.0,0.0,0.0,-1.6087,-1.6087,-1.6501,-1.6961,-1.7338,0.0,-1.8481,-1.8951,-1.9072,0.0,-1.9072,-1.9072,-1.9072,-1.9072,-1.9072,-1.9084,-1.9132,-1.9362,-1.9627,-1.9905,-2.0171,-2.0424,-2.0641,-2.0665,-2.0665,-2.0665,-2.0665,-2.0665,-2.0665,-2.0665,-2.0665,-2.0665,-2.0665,-2.0665,-2.0665,-2.0665,-2.0665,-2.0665,-2.0665,-2.0665,-2.0665,-2.0665,-2.0665,-2.0665,-2.0665,-2.0665,-2.0665,-2.0665,-2.0665,-2.0665,-2.0665,-2.0665,-2.0665,-2.0665,-2.0665,-2.0665,-2.0714,-2.0738,-2.0738,-2.0786,-2.081,-2.081,0.0,0.0,0.0,0.0,0.0,0.0,0.0,0.0,0.0,0.0,0.0,0.0,0.0,0.0,0.0,0.0,0.0,0.0,-1.3001,0.0,0.0,-1.3706,-1.3782,-1.3922,-1.4137,-1.418,-1.4191,-1.4191,-1.4191,-1.4299,-1.4437,-1.4469,-1.4869,-1.5461,-1.5558,-1.5828,-1.6204,-1.6064,-1.6061,-1.6039,-1.5741,-1.5645,-1.5645,-1.5612,-1.5601,-1.5601,-1.5601,-1.5601,-1.5601,-1.5601,-1.5601,0.0,0.0,0.0,-1.6087,-1.6087,-1.6312,-1.6713,0.0,0.0,-1.871,0.0,-1.9072,-1.9072,0.0,0.0,-1.9072,0.0,-1.9072,-1.9145,-1.9374,-1.9639,-1.9917,-2.0183,-2.0448,-2.0629,-2.0665,-2.0665,-2.0665,-2.0665,-2.0665,-2.0665,-2.0665,-2.0665,-2.0665,-2.0665,-2.0665,-2.0665,-2.0665,-2.0665,-2.0665,-2.0665,-2.0665,-2.0665,-2.0665,-2.0665,-2.0665,-2.0665,-2.0665,-2.0665,-2.0665,-2.0665,-2.0665,-2.0665,-2.0665,-2.0665,-2.0665,-2.0665,-2.0665,-2.069,-2.0989,-2.1074,-2.104,-2.1281,-2.1378,-2.1378,0.0,0.0,0.0,0.0,0.0,0.0,0.0,0.0,0.0,0.0,0.0,0.0,0.0,0.0,0.0,-1.3329,-1.3415,-1.3402,-1.3207,-1.3373,-1.3599,-1.3814,-1.3954,-1.4083,-1.4191,-1.4191,-1.4191,-1.4191,-1.432,-1.4579,-1.4877,-1.4877,-1.5171,-1.5612,-1.5881,-1.6118,-1.6312,-1.644,-1.6458,-1.6436,-1.6134,-1.6035,-1.6025,-1.5704,-1.5601,-1.5601,-1.5601,-1.5601,-1.5601,-1.5601,-1.5601,-1.5601,-1.5601,0.0,0.0,0.0,-1.6116,-1.6654,-1.7602,-1.8351,-1.8927,0.0,-1.9072,-1.9072,-1.9072,0.0,-1.9072,-1.9072,-1.9072,-1.9108,-1.9229,-1.9603,-1.9929,-2.0038,-2.04,-2.0665,-2.0665,-2.0665,-2.0665,-2.0665,-2.0665,-2.0665,-2.0665,-2.0665,-2.0665,-2.0665,-2.0665,-2.0665,-2.0665,-2.0665,-2.0665,-2.0665,-2.0665,-2.0665,-2.0665,-2.0665,-2.0665,-2.0665,-2.0665,-2.0665,-2.0665,-2.0665,-2.0665,-2.0665,-2.0665,-2.0665,-2.0678,-2.0822,-2.0883,-2.0919,-2.1185,-2.1293,-2.1305,-2.1438,-2.1474,-2.1474,0.0,0.0,0.0,0.0,0.0,0.0,0.0,0.0,0.0,0.0,0.0,0.0,0.0,0.0,0.0,0.0,-1.306,-1.3297,-1.3545,-1.3728,-1.3846,-1.3911,-1.4094,-1.4191,-1.4191,-1.4191,-1.4223,-1.4277,-1.4449,-1.4727,-1.5188,-1.5253,-1.5461,-1.5818,-1.6126,-1.632,-1.6425,-1.6607,-1.677,-1.6798,-1.6563,-1.6402,-1.638,-1.5964,-1.5828,-1.5839,-1.5779,-1.572,-1.572,-1.5661,-1.5601,-1.5601,-1.5601,-1.5601,0.0,0.0,0.0,0.0,0.0,0.0,-1.9008,-1.9072,-1.9072,-1.9072,0.0,0.0,-1.9072,0.0,-1.9072,-1.9072,-1.9072,-1.9519,-1.9905,-1.9977,-2.0364,-2.0665,-2.0665,-2.0665,-2.0665,-2.0665,-2.0665,-2.0665,-2.0665,-2.0665,-2.0665,-2.0665,-2.0665,-2.0665,-2.0665,-2.0665,-2.0665,-2.0665,-2.0665,-2.0665,-2.0665,-2.0665,-2.0665,-2.0665,-2.0665,-2.0665,-2.0665,-2.0665,-2.0665,-2.0665,-2.0665,-2.0702,-2.0856,-2.105,-2.1171,-2.1197,-2.1474,-2.1583,-2.1583,-2.1655,-2.1679,-2.1679,0.0,0.0,0.0,0.0,0.0,0.0,0.0,0.0,0.0,0.0,0.0,0.0,-1.2856,-1.3051,-1.3132,-1.3082,-1.3319,-1.3556,-1.3782,-1.3814,-1.3922,-1.4169,-1.4191,0.0,-1.4191,-1.4191,-1.4299,-1.4459,-1.4469,-1.4727,-1.5199,-1.5472,-1.5888,-1.6359,-1.6139,-1.628,-1.6786,-1.6492,-1.6574,-1.6842,-1.6592,-1.6501,-1.6501,-1.6478,-1.6478,-1.6419,-1.6194,-1.6087,-1.6028,-1.572,-1.5601,-1.5601,-1.5601,-1.5601,-1.5645,0.0,0.0,0.0,0.0,-1.818,0.0,-1.9008,0.0,0.0,0.0,0.0,0.0,0.0,-1.9072,-1.9072,-1.9072,-1.9519,-1.9965,-2.0219,-2.0484,-2.0665,-2.0665,-2.0665,-2.0665,-2.0665,-2.0665,-2.0665,-2.0665,-2.0665,-2.0665,-2.0665,-2.0665,-2.0665,-2.0665,-2.0665,-2.0665,-2.0665,-2.0665,-2.0665,-2.0665,-2.0665,-2.0665,-2.0665,-2.0665,-2.0665,-2.0665,-2.0665,-2.0665,-2.0665,-2.0665,-2.081,-2.111,-2.1122,-2.1221,-2.1486,-2.1752,-2.1848,-2.1885,-2.2126,-2.2297,-2.2297,0.0,0.0,0.0,0.0,0.0,0.0,0.0,0.0,0.0,0.0,0.0,0.0,0.0,-1.32,-1.334,-1.334,-1.3556,-1.3803,-1.404,-1.4062,-1.4094,-1.4191,-1.4191,-1.4266,-1.4406,-1.4417,-1.4525,-1.4762,-1.4912,-1.5102,-1.5472,-1.5558,-1.5899,-1.6381,-1.6321,-1.6475,-1.6846,-1.6788,-1.6734,-1.6663,-1.676,-1.6714,-1.6478,-1.6478,-1.6478,-1.6501,-1.6601,-1.6489,-1.6271,-1.6365,-1.6237,-1.6054,-1.6054,0.0,0.0,0.0,0.0,0.0,0.0,0.0,0.0,-1.9008,-1.9072,-1.9072,0.0,-1.9072,-1.9072,-1.9072,-1.9072,-1.9072,-1.9072,-1.9519,-1.9917,-2.0014,-2.0388,-2.0665,-2.0665,-2.0665,-2.0665,-2.0665,-2.0665,-2.0665,-2.0665,-2.0665,-2.0665,-2.0665,-2.0665,-2.0665,-2.0665,-2.0665,-2.0665,-2.0665,-2.0665,-2.0665,-2.0665,-2.0665,-2.0665,-2.0665,-2.0665,-2.0665,-2.0665,-2.0665,-2.0665,-2.0678,-2.0847,-2.1038,-2.1147,-2.1328,-2.1486,-2.1752,-2.2017,-2.22,-2.2138,-2.2223,-2.2334,-2.2334,0.0,0.0,0.0,0.0,0.0,0.0,0.0,0.0,0.0,0.0,0.0,0.0,0.0,0.0,-1.3631,-1.3706,-1.3857,-1.4019,-1.418,-1.4191,-1.4191,-1.4191,-1.4266,-1.4374,-1.448,-1.448,-1.463,-1.5009,-1.5085,-1.5289,-1.5601,-1.572,-1.5986,-1.6429,-1.656,-1.6729,-1.6957,-1.6973,-1.7008,-1.7019,-1.7197,-1.7197,-1.7099,-1.7099,-1.7028,-1.6931,-1.7164,-1.6979,-1.6708,-1.6937,-1.6808,-1.6622,0.0,0.0,0.0,0.0,0.0,0.0,-1.7859,0.0,0.0,0.0,0.0,-1.9072,-1.9072,0.0,0.0,0.0,-1.9072,-1.9072,-1.9072,-1.9446,-1.9772,-1.9869,-2.0255,-2.0569,-2.0653,-2.0665,-2.0665,-2.0665,-2.0665,-2.0665,-2.0665,-2.0665,-2.0665,-2.0665,-2.0665,0.0,-2.0665,-2.0665,-2.0665,-2.0665,-2.0665,-2.0665,-2.0665,-2.0665,-2.0665,-2.0665,-2.0665,-2.0665,-2.0665,-2.0665,-2.0714,-2.081,-2.105,-2.1183,-2.1292,-2.1498,-2.1764,-2.2017,-2.2273,-2.2334,-2.2334,-2.2334,-2.2334,-2.2334,0.0,0.0,0.0,0.0,0.0,0.0,0.0,0.0,0.0,0.0,0.0,0.0,0.0,0.0,0.0,-1.4169,-1.4191,-1.4191,-1.4191,-1.4202,-1.4202,-1.4202,-1.4428,-1.4491,-1.4502,-1.4502,-1.4727,0.0,0.0,0.0,0.0,-1.5957,-1.6253,-1.6537,-1.6844,-1.7032,-1.7032,-1.7032,-1.7351,-1.7889,-1.7889,-1.8046,-1.8287,-1.83,-1.8103,-1.7845,-1.7796,-1.7622,-1.7314,-1.7325,0.0,0.0,0.0,0.0,0.0,0.0,0.0,0.0,0.0,0.0,0.0,0.0,0.0,0.0,-1.9072,0.0,0.0,0.0,0.0,0.0,-1.9072,-1.9289,-1.9543,-1.9833,-2.0098,-2.0364,-2.0617,-2.0653,-2.0653,-2.0665,-2.0665,-2.0665,-2.0665,-2.0665,-2.0665,-2.0665,-2.0665,-2.0665,-2.0665,-2.0665,-2.0665,-2.0665,-2.0665,-2.0665,-2.0665,-2.0665,-2.0665,-2.0665,-2.0665,-2.0665,-2.0665,-2.0665,-2.088,-2.1135,-2.1135,-2.1233,-2.151,-2.1764,-2.2029,-2.2334,-2.2334,-2.2334,-2.2334,-2.2334,-2.2334,-2.2334,0.0,0.0,0.0,0.0,0.0,0.0,0.0,0.0,0.0,0.0,0.0,0.0,-1.3728,-1.3943,-1.4116,-1.4191,-1.4191,-1.4191,-1.4191,-1.4352,-1.4439,-1.4439,-1.4665,-1.4869,-1.4995,-1.4995,-1.5145,0.0,0.0,0.0,0.0,0.0,0.0,0.0,-1.703,-1.741,-1.7649,-1.7649,-1.7745,-1.7862,-1.8118,-1.8093,-1.798,-1.8226,-1.8226,-1.8189,-1.838,-1.8253,-1.7964,0.0,-1.7914,-1.7393,0.0,0.0,0.0,0.0,0.0,0.0,-1.7529,0.0,0.0,0.0,0.0,0.0,0.0,0.0,0.0,0.0,0.0,0.0,0.0,0.0,0.0,0.0,-1.982,-2.0086,-2.0352,-2.0388,-2.046,-2.0641,-2.0665,-2.0665,-2.0665,-2.0665,-2.0665,0.0,-2.0665,-2.0665,-2.0665,-2.0665,-2.0665,-2.0665,-2.0665,-2.0665,-2.0665,-2.0665,-2.0665,-2.0665,-2.0665,-2.0665,-2.0665,-2.0665,-2.088,-2.1147,-2.1281,-2.151,-2.1764,-2.1836,-2.2029,-2.2334,-2.2334,-2.2334,-2.2334,-2.2334,-2.2334,-2.2334,0.0,0.0,0.0,0.0,0.0,0.0,0.0,0.0,0.0,0.0,0.0,0.0,-1.3976,-1.4105,-1.4234,-1.4331,-1.4342,-1.4374,-1.4471,-1.4611,-1.4676,-1.4676,-1.4912,-1.5106,-1.5188,-1.5188,-1.5306,0.0,0.0,0.0,0.0,0.0,0.0,0.0,0.0,-1.7936,-1.8215,-1.8215,-1.8177,-1.8197,-1.8395,-1.8392,-1.8363,-1.8551,-1.8563,-1.8462,-1.8731,-1.8653,-1.8423,-1.8704,-1.8442,0.0,0.0,0.0,0.0,0.0,0.0,0.0,0.0,0.0,0.0,0.0,0.0,0.0,-1.8355,-1.8676,-1.9072,0.0,-1.9072,0.0,0.0,0.0,0.0,0.0,0.0,-1.9676,-2.0062,-2.0207,-2.0327,-2.0484,-2.0605,-2.0665,-2.0665,-2.0665,-2.0665,-2.0665,-2.0665,-2.0665,-2.0665,-2.0665,-2.0665,-2.0665,-2.0665,-2.0665,-2.0665,-2.0665,-2.0665,-2.0665,-2.0665,-2.0665,-2.0665,-2.0856,-2.0979,-2.1245,-2.1523,-2.1788,-2.2029,-2.2029,-2.2126,-2.2334,-2.2334,-2.2334,-2.2334,-2.2334,-2.2334,-2.2334,0.0,0.0,0.0,0.0,0.0,0.0,0.0,0.0,0.0,0.0,0.0,0.0,-1.4234,0.0,0.0,0.0,-1.4634,-1.4776,-1.4982,-1.5026,-1.5037,-1.5037,-1.5218,-1.5347,-1.5347,-1.5347,0.0,0.0,0.0,0.0,0.0,0.0,0.0,0.0,0.0,0.0,-1.8686,-1.8722,-1.8722,-1.8722,-1.8722,-1.8867,-1.9072,-1.9072,-1.888,-1.8699,-1.9008,-1.8892,-1.8699,-1.8956,-1.8828,0.0,0.0,0.0,0.0,0.0,-1.6418,0.0,0.0,0.0,0.0,0.0,0.0,0.0,-1.685,-1.7625,-1.8547,-1.8547,-1.8547,0.0,0.0,0.0,0.0,0.0,0.0,0.0,-1.9772,-2.0038,-2.0207,-2.0267,-2.0484,-2.0641,-2.0735,-2.0665,-2.0665,-2.0665,-2.0665,-2.0665,-2.0665,-2.0665,-2.0665,-2.0665,-2.0665,-2.0665,-2.0665,-2.0665,-2.0665,-2.0665,-2.0665,-2.0759,-2.0726,-2.1026,-2.1233,-2.1535,-2.1764,-2.2017,-2.2334,-2.2334,-2.2334,-2.2334,-2.2334,-2.2334,-2.2334,-2.2334,-2.2334,-2.2334,-1.3405,0.0,0.0,0.0,0.0,0.0,0.0,0.0,0.0,0.0,0.0,0.0,0.0,0.0,0.0,0.0,-1.5434,-1.5558,-1.5603,-1.5807,-1.5931,-1.5931,-1.6157,-1.6234,-1.6234,-1.6234,0.0,0.0,0.0,0.0,0.0,0.0,0.0,0.0,0.0,0.0,0.0,-1.8915,-1.9,-1.9,-1.9,-1.9024,-1.9072,-1.9072,-1.9072,-1.902,-1.9072,-1.9072,-1.8944,-1.8764,-1.8635,-1.8571,0.0,0.0,0.0,-1.6537,0.0,0.0,0.0,0.0,0.0,0.0,0.0,0.0,-1.4484,-1.4614,-1.4939,0.0,-1.5339,0.0,0.0,0.0,0.0,0.0,0.0,0.0,0.0,-1.9591,-1.9784,-2.0231,-2.0327,-2.0436,-2.0653,-2.0665,-2.0665,-2.0665,-2.0665,-2.0665,-2.0665,-2.0665,-2.0665,-2.0665,-2.0665,-2.0665,-2.0665,-2.0665,-2.0665,-2.0665,-2.0665,-2.0774,-2.105,-2.111,-2.1329,-2.18,-2.1848,-2.2017,-2.2334,-2.2334,-2.2334,-2.2334,-2.2334,-2.2334,-2.2334,-2.2334,-2.2334,-2.2334,-1.3653,0.0,0.0,0.0,0.0,0.0,0.0,0.0,0.0,0.0,0.0,0.0,0.0,0.0,0.0,0.0,0.0,0.0,0.0,0.0,-1.6355,-1.6355,-1.6469,-1.6535,-1.672,-1.672,0.0,0.0,0.0,0.0,0.0,0.0,0.0,0.0,0.0,0.0,0.0,0.0,-1.9072,-1.9072,-1.9072,-1.9072,-1.9072,-1.9072,-1.9072,-1.9072,-1.9072,-1.9072,-1.9072,-1.8892,-1.8828,0.0,-1.8623,-1.8098,-1.7313,0.0,-1.5619,-1.4502,0.0,0.0,0.0,-1.1549,0.0,0.0,0.0,-1.3308,-1.3831,-1.4027,-1.4092,-1.4157,-1.4297,0.0,0.0,0.0,0.0,0.0,0.0,0.0,0.0,-1.9845,-2.0002,-2.0183,-2.0448,-2.0472,-2.0533,-2.0653,-2.0665,-2.0665,-2.0665,-2.0665,-2.0665,-2.0665,-2.0665,-2.0665,-2.0665,-2.0665,-2.0665,-2.0665,-2.0868,-2.1001,-2.1064,-2.0529,-2.0869,-2.1799,-2.034,-2.0164,-2.0962,-2.0199,-1.9898,-2.0048,-2.1648,-2.2334,-2.2334,-2.2334,-2.2334,-2.2184,-1.389,0.0,0.0,0.0,0.0,0.0,0.0,0.0,0.0,0.0,0.0,0.0,0.0,0.0,0.0,0.0,0.0,0.0,0.0,0.0,-1.6807,-1.6864,-1.6864,-1.6957,-1.7164,-1.7164,-1.7268,0.0,0.0,0.0,0.0,0.0,0.0,0.0,0.0,0.0,0.0,0.0,-1.9072,-1.9072,-1.9072,-1.9072,-1.9072,-1.9072,-1.9072,-1.9072,-1.9072,-1.9072,-1.9072,-1.9072,-1.8944,-1.8752,-1.9008,-1.7958,0.0,0.0,0.0,0.0,0.0,0.0,0.0,0.0,0.0,-1.2274,0.0,0.0,0.0,-1.2914,-1.2914,0.0,0.0,0.0,0.0,0.0,0.0,0.0,0.0,0.0,0.0,-1.8661,-1.8858,-1.9224,-1.9764,-2.0107,-2.0319,-2.0295,-2.0527,-2.0596,-2.0249,-2.0527,-2.0665,-2.0665,-2.0665,-2.0665,-2.0665,-2.0714,-2.0807,-2.075,-2.0721,-2.0734,-2.0721,-1.9515,-1.9711,-2.09,-1.8446,-1.8138,-1.9208,-1.791,-1.7379,-1.7683,-2.0349,-2.1337,-2.1337,-2.1337,-2.1337,-2.1187,-1.4148,-1.4169,0.0,0.0,0.0,0.0,0.0,0.0,0.0,0.0,0.0,0.0,0.0,0.0,0.0,0.0,0.0,0.0,-1.7697,0.0,0.0,-1.8069,-1.8081,-1.8093,-1.8117,-1.8129,-1.8141,0.0,0.0,0.0,0.0,0.0,0.0,0.0,-1.906,0.0,0.0,0.0,-1.9072,-1.9072,-1.9072,-1.9072,0.0,-1.9072,-1.9072,-1.9072,-1.9072,-1.9072,-1.9072,0.0,-1.8291,-1.7431,0.0,-1.7249,-1.5098,-1.5108,0.0,0.0,0.0,0.0,0.0,0.0,-0.9316,0.0,0.0,0.0,-0.9244,-0.9576,0.0,0.0,0.0,0.0,0.0,0.0,0.0,0.0,0.0,0.0,0.0,-1.5727,-1.5766,-1.6409,-1.7925,-1.9446,-1.9828,-1.874,-1.9959,-2.0098,-1.8762,-1.9959,-2.0665,-2.0665,-2.0665,-2.0665,-2.0665,-2.0965,-2.1086,-2.1016,-1.9836,-1.9333,-1.9539,-1.7951,-1.7471,-1.7881,-1.7521,-1.7531,-1.7683,-1.7455,-1.7379,-1.7455,-1.7834,-1.7986,-1.7986,-1.7986,-1.7986,-1.791,-1.4472,-1.4549,0.0,0.0,0.0,0.0,0.0,0.0,0.0,0.0,0.0,0.0,0.0,-1.7553,-1.7781,-1.7781,0.0,-1.7998,0.0,0.0,0.0,0.0,-1.83,-1.836,-1.8517,-1.8517,-1.8601,0.0,-1.8746,0.0,0.0,0.0,0.0,0.0,-1.8752,0.0,-1.9072,0.0,-1.9072,0.0,0.0,-1.9169,0.0,-1.9132,-1.9169,-1.9326,-1.9483,-1.9543,-1.9543,0.0,-1.8599,0.0,0.0,0.0,0.0,-1.5082,0.0,0.0,0.0,0.0,0.0,0.0,0.0,0.0,-0.8917,0.0,-0.8651,0.0,0.0,0.0,0.0,0.0,0.0,0.0,-0.9943,0.0,0.0,0.0,0.0,0.0,0.0,0.0,-1.6368,-1.7223,-1.759,-1.7107,-1.7689,-1.776,-1.7127,-1.8541,-1.9401,-1.9401,-2.0237,-2.0249,-1.9401,-1.9569,-1.9255,-1.8399,-1.8039,-1.7882,-1.7971,-1.6446,-1.6384,-1.7303,-1.5395,-1.5097,-1.5854,-1.4944,-1.456,-1.456,-1.456,-1.5701,-1.7379,-1.7379,-1.7379,-1.7227,-1.5285,0.0,0.0,0.0,0.0,0.0,-1.6391,-1.6565,-1.6798,-1.7221,-1.7469,0.0,-1.7986,-1.8167,0.0,0.0,-1.83,-1.8324,0.0,0.0,-1.8432,0.0,0.0,0.0,0.0,-1.8794,-1.8689,0.0,0.0,0.0,0.0,0.0,0.0,0.0,0.0,-1.8752,-1.9072,0.0,-1.874,-1.9084,-1.9157,-1.9338,-1.9555,-1.9374,-1.9422,-1.9603,-1.9808,-1.9881,-1.9881,-1.9881,-1.8642,0.0,-1.8787,-1.6835,-1.415,0.0,0.0,0.0,-1.0839,0.0,0.0,0.0,0.0,0.0,0.0,0.0,0.0,0.0,0.0,0.0,0.0,0.0,0.0,0.0,0.0,-0.9443,0.0,0.0,0.0,0.0,0.0,0.0,0.0,-1.5416,-1.569,-1.5466,-1.5821,-1.5919,-1.5495,-1.6916,-1.777,-1.777,-1.889,-1.8924,-1.7864,-1.8011,-1.7579,-1.655,-1.6461,-1.64,-1.6334,-1.4879,-1.4944,-1.593,-1.3575,-1.319,-1.4184,-1.2958,-1.2501,-1.2501,-1.2501,-1.3953,-1.6083,-1.6083,-1.6083,-1.5854,-1.6883,-1.6734,0.0,0.0,0.0,-1.6655,-1.695,-1.7458,-1.7853,-1.7853,-1.8106,0.0,-1.8275,0.0,0.0,0.0,0.0,-1.8396,-1.865,0.0,-1.8782,0.0,0.0,-1.906,0.0,0.0,0.0,0.0,0.0,0.0,0.0,0.0,0.0,0.0,0.0,-1.7829,-1.9008,-1.7636,-1.7829,-1.9096,-1.935,-1.9627,-1.9869,0.0,-1.9869,-1.9869,-1.9881,0.0,0.0,-1.9881,-1.797,0.0,0.0,0.0,0.0,0.0,0.0,0.0,0.0,0.0,0.0,-1.0454,0.0,0.0,0.0,0.0,-0.9528,0.0,0.0,0.0,0.0,0.0,0.0,0.0,0.0,0.0,0.0,0.0,0.0,0.0,0.0,0.0,0.0,-1.4661,-1.5064,-1.3883,-1.5246,-1.5495,-1.4022,-1.5354,-1.6202,-1.6202,-1.6202,-1.6306,-1.6443,-1.6714,-1.6923,-1.6983,-1.5607,-1.4935,-1.4935,-1.3337,-1.2579,-1.2656,-1.2579,-1.2501,-1.2579,-1.2501,-1.2501,-1.2501,-1.2501,-1.2579,-1.2656,-1.2656,-1.2656,-1.2656,0.0,0.0,0.0,0.0,-1.7704,-1.778,-1.784,-1.8034,-1.8155,-1.8155,-1.8384,-1.8553,0.0,-1.871,-1.8807,0.0,0.0,-1.8843,-1.8939,-1.8939,0.0,0.0,0.0,-1.9072,0.0,0.0,0.0,0.0,0.0,0.0,0.0,0.0,0.0,0.0,0.0,-1.5879,0.0,0.0,0.0,0.0,0.0,-2.0062,-2.0146,0.0,-2.0146,-2.0035,-1.9233,-1.8945,0.0,-1.7739,-1.6063,-1.4675,-1.6132,-1.417,-1.1657,-1.3106,-1.2405,-1.1234,0.0,0.0,-1.109,-1.0946,0.0,0.0,0.0,0.0,0.0,0.0,0.0,0.0,0.0,0.0,0.0,0.0,0.0,0.0,0.0,0.0,0.0,0.0,0.0,0.0,0.0,0.0,0.0,-1.2211,-1.2727,-1.2888,-1.2395,-1.3808,-1.4654,-1.4654,-1.5566,-1.5738,-1.4873,-1.5052,-1.472,-1.3869,-1.3494,-1.3344,-1.3267,-1.2733,-1.2501,-1.2501,-1.2501,-1.2501,-1.2501,-1.2501,-1.2501,-1.2501,-1.2501,-1.2501,-1.2501,-1.2501,-1.2501,-1.2501,-1.865,0.0,0.0,0.0,-1.8476,-1.8396,-1.8312,-1.8372,-1.8432,-1.8432,-1.8662,0.0,-1.8819,0.0,-1.9072,0.0,-1.9072,-1.9072,-1.9072,-1.9072,0.0,-1.9072,-1.9072,-1.9072,0.0,0.0,0.0,0.0,0.0,-1.4838,0.0,0.0,0.0,0.0,0.0,-1.4455,-1.4912,-1.5371,-1.6267,0.0,0.0,-1.9564,0.0,0.0,-1.9152,-1.9531,0.0,-1.8051,-1.7409,-1.6413,-1.515,-1.4093,-1.5008,-1.3515,-1.1683,-1.266,-1.2163,-1.1321,-1.1321,-1.1287,0.0,-1.1246,-1.106,0.0,-1.0813,0.0,-1.0448,0.0,0.0,0.0,0.0,0.0,0.0,0.0,0.0,0.0,0.0,-0.9455,0.0,0.0,0.0,0.0,0.0,0.0,-1.1275,-1.1301,-1.1504,-1.1619,0.0,-1.2538,-1.3103,-1.3103,-1.408,-1.4203,-1.3374,-1.3534,-1.3183,-1.2366,-1.2461,-1.2501,-1.2501,-1.2501,-1.2501,-1.2501,-1.2501,-1.2501,-1.2501,-1.2501,-1.2501,-1.2501,-1.2501,-1.2501,-1.2501,-1.2501,-1.2501,-1.2508,-1.871,-1.8903,-1.9072,-1.906,-1.8855,-1.8613,-1.8348,-1.8541,-1.871,-1.871,-1.8927,-1.9072,-1.9072,-1.9084,-1.9096,-1.9096,-1.9108,-1.912,-1.912,-1.9096,0.0,0.0,-1.9084,-1.9072,-1.9072,0.0,0.0,0.0,0.0,0.0,0.0,0.0,0.0,0.0,-1.2684,0.0,-1.4613,-1.3469,-1.4681,-1.7355,-1.7737,-1.8058,-1.8121,-1.6644,-1.6997,-1.8212,-1.8201,-1.7208,-1.6009,-1.5929,-1.4955,-1.3833,-1.3833,-1.2775,-1.164,-1.164,-1.1633,-1.1633,-1.1633,-1.1518,-1.1402,-1.1402,-1.1294,0.0,0.0,0.0,-1.1116,0.0,0.0,0.0,0.0,0.0,0.0,0.0,0.0,0.0,0.0,0.0,0.0,0.0,0.0,0.0,0.0,-1.0791,-1.1165,-1.1241,-1.145,0.0,0.0,-1.1619,-1.1619,-1.1619,-1.1755,-1.1904,-1.2135,-1.221,-1.2359,-1.2501,-1.2501,-1.2501,-1.2501,-1.2501,-1.2501,-1.2501,-1.2501,-1.2501,-1.2501,-1.2501,-1.2501,-1.2501,-1.2501,-1.2501,-1.2501,-1.2501,-1.2508,-1.2535,-1.8976,-1.9024,-1.9012,-1.8819,-1.8891,-1.8891,-1.8625,-1.8807,0.0,0.0,-1.9036,-1.9072,-1.9072,-1.9253,-1.9427,-1.9427,-1.9555,0.0,0.0,0.0,0.0,-1.9427,-1.9181,-1.9072,-1.9072,-1.77,-1.6333,-1.4912,0.0,0.0,-1.0717,0.0,0.0,0.0,0.0,0.0,-1.1955,-1.2724,-1.4238,-1.6177,-1.644,-1.6646,-1.6644,0.0,-1.5875,-1.5211,-1.5061,-1.4891,-1.4436,-1.3287,-1.2714,-1.2529,-1.2529,-1.2314,-1.1952,-1.1952,-1.1864,-1.1775,-1.1775,-1.1674,-1.1558,-1.1558,-1.1531,-1.1504,0.0,0.0,0.0,0.0,0.0,0.0,0.0,0.0,0.0,0.0,0.0,0.0,0.0,0.0,0.0,-0.9329,0.0,0.0,-1.0341,-1.0571,-1.0928,-1.1321,-1.1511,0.0,0.0,0.0,-1.1619,-1.1619,-1.1755,-1.1904,-1.2135,-1.221,-1.2359,-1.2501,-1.2501,-1.2501,-1.2501,-1.2501,-1.2501,-1.2501,-1.2501,-1.2501,-1.2501,-1.2501,-1.2501,-1.2501,-1.2501,-1.2501,-1.2501,-1.2501,-1.2576,-1.2678,-1.8903,-1.9,-1.9024,-1.8879,0.0,0.0,-1.8879,-1.8976,0.0,-1.9072,-1.9181,0.0,-1.9241,-1.9483,-1.9652,-1.9652,-1.9796,0.0,-1.9881,0.0,0.0,-1.9652,-1.8893,-1.8438,-1.8335,-1.6347,0.0,-1.3997,0.0,0.0,-1.0717,0.0,0.0,0.0,0.0,-1.09,-1.1111,-1.2665,-1.3949,-1.4929,-1.5123,-1.5203,0.0,-1.4698,-1.3976,-1.3235,-1.3145,-1.3167,-1.3103,-1.2227,-1.1986,-1.2135,-1.2135,-1.2135,-1.2135,-1.2135,-1.1999,-1.1932,-1.1932,-1.1877,-1.1809,-1.1809,-1.1809,-1.1796,-1.1728,-1.1708,-1.1674,0.0,-1.1491,-1.1463,0.0,0.0,0.0,0.0,0.0,0.0,0.0,0.0,0.0,0.0,-0.9463,0.0,-1.0097,-1.0588,-1.1091,-1.1382,-1.1531,0.0,0.0,0.0,-1.1647,-1.1708,-1.1857,-1.2006,-1.2162,-1.2311,-1.242,-1.2501,-1.2501,-1.2501,-1.2501,-1.2501,-1.2501,-1.2501,-1.2501,-1.2501,-1.2501,-1.2501,-1.2501,-1.2508,-1.2576,-1.2603,-1.261,-1.2678,-1.2712,-1.2745,-1.8734,-1.8915,-1.9072,0.0,0.0,0.0,0.0,-1.9132,0.0,-1.9132,0.0,-1.9519,-1.9519,-1.9772,-1.9941,-1.9941,-1.9965,-1.9989,-1.9989,-1.9953,-1.9941,-1.9941,-1.8597,-1.7727,-1.74,-1.4709,-1.3161,0.0,0.0,0.0,0.0,0.0,0.0,0.0,0.0,0.0,0.0,-1.2812,-1.3467,-1.3642,-1.3729,-1.38,-1.3702,-1.2554,-1.2169,-1.2094,-1.2115,-1.2108,-1.2169,-1.2169,-1.2101,-1.2121,-1.2121,-1.2121,-1.2121,-1.2121,-1.2108,-1.2169,-1.2169,-1.2081,-1.2135,-1.2135,-1.2135,-1.2026,-1.1891,-1.1864,-1.1823,-1.1701,-1.166,-1.1647,-1.1647,0.0,0.0,0.0,0.0,0.0,0.0,0.0,0.0,0.0,0.0,0.0,-0.9759,-1.0684,-1.1261,-1.1352,0.0,0.0,0.0,0.0,-1.1687,-1.1823,-1.1979,-1.2135,-1.2291,-1.2433,-1.2501,-1.2501,-1.2501,-1.2501,-1.2501,-1.2501,-1.2501,-1.2501,-1.2501,-1.2501,-1.2501,-1.2501,-1.2515,-1.2549,-1.2698,-1.2759,-1.2779,-1.2935,-1.2901,-1.2827,-1.9012,-1.9048,0.0,0.0,0.0,-1.9145,-1.9427,-1.9398,-1.9398,-1.9398,-1.9639,-1.9808,-1.9808,-2.005,-2.0207,-2.0207,-2.0412,0.0,0.0,0.0,0.0,-2.0207,-1.9788,-1.8898,-1.7559,-1.5933,-1.4426,0.0,0.0,0.0,0.0,0.0,0.0,0.0,0.0,0.0,-1.1362,-1.1796,0.0,-1.2154,-1.2182,-1.2272,-1.2405,-1.234,-1.225,-1.2264,-1.2379,-1.2352,-1.225,-1.225,-1.2325,-1.2427,-1.2427,-1.2427,-1.2427,-1.2427,-1.2338,-1.225,-1.225,-1.2155,-1.2135,-1.2135,-1.2135,-1.2054,-1.2026,-1.202,-1.2013,-1.1993,-1.1884,-1.1796,-1.1796,0.0,0.0,0.0,0.0,0.0,0.0,0.0,0.0,0.0,0.0,-1.0376,0.0,-1.0407,-1.0664,0.0,0.0,0.0,0.0,0.0,-1.1687,0.0,-1.1979,-1.2135,0.0,0.0,-1.2501,-1.2501,-1.2501,-1.2501,-1.2501,-1.2501,-1.2501,-1.2501,-1.2501,-1.2501,-1.2501,-1.2501,-1.2576,-1.2705,-1.2861,-1.2922,-1.2935,-1.3085,-1.3119,-1.3105,-1.9072,0.0,0.0,0.0,0.0,0.0,0.0,-1.9796,-1.9845,-1.97,-1.9917,-2.0086,-2.0086,-2.0327,-2.0484,-2.0484,-2.0593,-2.0665,-2.0665,-2.0557,-2.0484,-2.0484,-1.9599,-1.8356,-1.6783,-1.5334,-1.3778,-1.2185,0.0,0.0,0.0,0.0,0.0,0.0,0.0,-1.1443,0.0,0.0,0.0,-1.1843,-1.2006,-1.2115,-1.2196,-1.2345,-1.24,-1.2406,-1.2474,-1.2461,-1.24,-1.24,-1.2447,-1.2501,-1.2501,-1.2501,-1.2501,-1.2501,-1.2454,-1.24,-1.24,-1.2345,-1.2291,-1.2291,-1.2291,-1.2271,-1.2196,-1.2182,-1.2155,-1.2081,-1.2006,-1.1952,-1.1952,-1.1537,0.0,0.0,0.0,0.0,0.0,0.0,0.0,0.0,0.0,0.0,0.0,0.0,0.0,0.0,0.0,0.0,0.0,0.0,-1.1796,0.0,0.0,0.0,-1.24,0.0,-1.2501,-1.2501,-1.2501,-1.2501,-1.2501,-1.2501,-1.2501,-1.2501,-1.2501,-1.2549,-1.2623,-1.2705,-1.2786,-1.2868,-1.3017,-1.3071,-1.3085,-1.3234,-1.3288,-1.3288,-1.9145,-1.9157,0.0,0.0,-1.9621,-1.9652,-1.9929,-2.0146,-2.0207,-2.0002,-2.0195,-2.0364,-2.0364,-2.0545,-2.069,-2.075,-2.082,-2.082,-2.082,-2.082,-2.0587,-2.0249,-1.9041,-1.7477,-1.5487,-1.4369,-1.2905,0.0,0.0,0.0,0.0,0.0,0.0,0.0,0.0,0.0,0.0,0.0,-1.187,-1.1952,-1.2196,-1.2311,-1.2345,-1.2461,-1.2501,-1.2501,-1.2501,-1.2501,-1.2501,-1.2501,-1.2501,-1.2501,-1.2501,-1.2501,-1.2501,-1.2501,-1.2501,-1.2501,-1.2501,-1.2501,-1.2501,-1.2501,-1.2501,-1.2474,-1.2359,-1.2338,-1.2298,-1.2182,-1.2135,-1.2101,-1.2142,-1.1743,0.0,0.0,0.0,0.0,0.0,0.0,0.0,0.0,0.0,0.0,-1.0599,0.0,0.0,0.0,0.0,0.0,-1.166,0.0,0.0,0.0,0.0,-1.2359,-1.2501,0.0,-1.2501,-1.2501,-1.2501,-1.2501,-1.2501,-1.2501,-1.2522,-1.2549,-1.2549,-1.2637,-1.2793,-1.2942,-1.301,-1.3024,-1.3166,-1.322,-1.3234,-1.3356,-1.3403,-1.3403,0.0,0.0,0.0,0.0,0.0,-1.9941,-2.0195,-2.0255,-2.0267,-2.0243,-2.0472,-2.0629,-2.0629,-2.0653,-2.0832,-2.1074,-2.1098,-2.1098,-2.1098,-2.1098,-2.0345,-1.8703,-1.8482,-1.7057,-1.414,-1.3926,-1.3143,0.0,0.0,-1.1504,0.0,0.0,0.0,0.0,0.0,0.0,0.0,-1.1823,-1.1993,-1.225,-1.2277,-1.2366,-1.2481,-1.2494,-1.2501,-1.2501,-1.2501,-1.2501,-1.2501,-1.2501,-1.2501,-1.2501,-1.2501,-1.2501,-1.2501,-1.2501,-1.2501,-1.2501,-1.2501,-1.2501,-1.2501,-1.2501,-1.2501,-1.2501,-1.2481,-1.2481,-1.2474,-1.2461,-1.2359,-1.223,-1.2088,-1.2054,-1.204,0.0,0.0,0.0,0.0,0.0,0.0,0.0,0.0,0.0,0.0,-1.0972,0.0,0.0,-1.1477,0.0,0.0,0.0,0.0,-1.2257,-1.2284,-1.2359,-1.2501,-1.2501,-1.2501,-1.2501,-1.2501,-1.2501,-1.2501,-1.2501,-1.2576,-1.2712,-1.2712,-1.2793,-1.2949,-1.3091,-1.3152,-1.3166,-1.3322,-1.3376,-1.3383,-1.3397,-1.3403,-1.3403,0.0,0.0,0.0,0.0,0.0,0.0,0.0,-2.075,-2.081,-2.0979,-2.0943,-2.0967,-2.1136,-2.116,-2.1197,-2.1305,-2.1305,-2.1305,-2.1305,-2.0434,-1.9515,-1.8771,-1.7816,-1.6302,-1.4196,-1.4027,-1.3256,0.0,0.0,0.0,0.0,0.0,0.0,0.0,0.0,-1.1918,-1.1972,-1.2067,-1.2176,-1.2298,-1.2386,-1.2447,-1.2501,-1.2501,-1.2501,-1.2501,-1.2501,-1.2501,-1.2501,-1.2501,-1.2501,-1.2501,-1.2501,-1.2501,-1.2501,-1.2501,-1.2501,-1.2501,-1.2501,-1.2501,-1.2501,-1.2501,-1.2501,-1.2501,-1.2501,-1.2501,-1.2501,-1.2501,-1.2454,-1.24,-1.2338,-1.2257,-1.2196,-1.2196,0.0,0.0,0.0,0.0,0.0,0.0,0.0,0.0,0.0,0.0,0.0,0.0,0.0,0.0,0.0,0.0,0.0,-1.2284,0.0,-1.244,-1.2501,-1.2501,-1.2501,-1.2501,-1.2501,-1.2549,-1.2637,-1.2637,-1.2725,-1.2874,-1.2956,-1.303,-1.3098,-1.3247,-1.3308,-1.3315,-1.3376,-1.3403,-1.3403,-1.3403,-1.3403,-1.3403,-1.9989,0.0,-2.011,0.0,-2.0509,-2.0665,-2.1183,-2.1256,-2.1281,-2.1559,-2.1426,-2.1341,-2.1462,-2.1474,-2.151,-2.1583,-2.1148,-2.0857,-2.0857,-1.9292,-1.8153,-1.7643,-1.6544,0.0,-1.3675,-1.3567,-1.2993,-1.1898,-1.1796,0.0,0.0,0.0,0.0,0.0,-1.2013,-1.2088,-1.2135,-1.2244,-1.2318,-1.2359,-1.2461,-1.2501,-1.2501,-1.2501,-1.2501,-1.2501,-1.2501,-1.2528,-1.2569,-1.2569,-1.2596,-1.2623,-1.2528,-1.2501,-1.2501,-1.2501,-1.2501,-1.2501,-1.2501,-1.2501,-1.2501,-1.2501,-1.2501,-1.2501,-1.2501,-1.2501,-1.2501,-1.2501,-1.2501,-1.2501,-1.2501,-1.242,-1.2352,-1.2352,0.0,0.0,0.0,-1.2155,0.0,0.0,-1.2088,-1.2135,-1.2135,-1.2135,0.0,0.0,0.0,0.0,0.0,0.0,0.0,0.0,0.0,0.0,-1.2501,-1.2501,-1.2501,-1.2501,-1.2549,-1.2623,-1.2732,-1.282,-1.2922,-1.303,-1.3173,-1.3241,-1.3247,-1.3356,-1.3403,-1.3403,-1.3403,-1.3403,-1.3403,-1.3403,-1.3403,-1.3403,-2.0219,-2.0279,-2.0436,-2.1026,-2.1122,-2.1148,-2.1426,-2.1474,-2.1571,-2.1836,-2.186,-2.1764,-2.151,-2.1474,-2.1583,-2.1848,-2.0365,-1.9467,-1.9467,-1.7887,-1.6229,0.0,0.0,-1.3675,-1.2135,-1.2135,-1.2135,-1.2135,0.0,0.0,-1.183,0.0,-1.1911,-1.2135,-1.2135,-1.2149,-1.2284,-1.2291,-1.2372,-1.2501,-1.2501,-1.2501,-1.2501,-1.2501,-1.2501,-1.2501,-1.2501,-1.2596,-1.2725,-1.2725,-1.2827,-1.2901,-1.2596,-1.2501,-1.2501,-1.2501,-1.2501,-1.2501,-1.2501,-1.2501,-1.2501,-1.2501,-1.2501,-1.2501,-1.2501,-1.2501,-1.2501,-1.2501,-1.2501,-1.2501,-1.2501,-1.2501,-1.2501,-1.2501,0.0,0.0,0.0,0.0,0.0,-1.2284,-1.2155,-1.2135,-1.2135,-1.2135,0.0,0.0,0.0,0.0,0.0,0.0,0.0,-1.2494,-1.2501,0.0,-1.2501,-1.2501,-1.2501,-1.2501,-1.2657,-1.2725,-1.2739,-1.303,-1.3166,-1.318,-1.3336,-1.3397,-1.3397,-1.3403,-1.3403,-1.3403,-1.3403,-1.3403,-1.3403,-1.3403,-1.3403,-1.3403,-2.0762,-2.088,-2.0931,-2.1281,-2.1341,-2.1438,-2.1704,-2.1752,-2.1469,-2.0579,-2.0463,-2.0056,-1.8849,-1.9671,-1.9927,0.0,-1.8341,-1.8039,0.0,-1.6527,-1.5286,-1.4697,-1.3641,-1.2887,-1.2359,-1.2271,-1.2216,-1.2216,0.0,0.0,0.0,-1.2094,-1.2169,-1.2223,-1.2318,-1.2386,-1.2433,-1.2433,-1.2461,-1.2501,-1.2501,-1.2501,-1.2515,-1.2617,-1.2657,-1.2671,-1.2779,-1.2847,-1.2888,-1.2888,-1.2922,-1.2942,-1.2847,-1.2813,-1.2813,-1.2813,-1.2813,-1.2813,-1.2813,-1.2813,-1.2813,-1.2813,-1.2813,-1.2813,-1.2813,-1.2732,-1.263,-1.2522,-1.2501,-1.2501,-1.2501,-1.2501,-1.2501,-1.2501,-1.2501,0.0,-1.2501,0.0,-1.2433,-1.2433,-1.2393,-1.2359,-1.2359,-1.2359,0.0,0.0,0.0,0.0,0.0,0.0,0.0,0.0,-1.2501,0.0,-1.2501,-1.2603,-1.2657,-1.2657,-1.2813,-1.2935,-1.3037,-1.3234,-1.3329,-1.3329,-1.3376,-1.3403,-1.3403,-1.3403,-1.3403,-1.3403,-1.3403,-1.3403,-1.3403,-1.3403,-1.3403,-1.3403,-2.1185,-2.1221,-2.1305,-2.1583,-2.1631,-2.1558,-2.1145,-2.1105,-2.0556,-1.9111,-1.8905,-1.829,-1.6617,-1.7379,0.0,-1.7455,-1.6846,-1.6465,-1.6465,-1.4944,-1.403,-1.403,-1.3035,-1.2501,-1.2501,-1.2413,0.0,-1.2372,-1.2277,-1.223,-1.223,-1.2325,-1.2372,-1.2372,-1.2461,-1.2501,-1.2501,-1.2501,-1.2501,-1.2508,-1.2562,-1.2589,-1.2603,-1.2759,-1.282,-1.2827,-1.2929,-1.2996,-1.3044,-1.3044,-1.3078,-1.3125,-1.3125,-1.3125,-1.3105,-1.299,-1.2963,-1.2963,-1.2963,-1.2963,-1.2963,-1.2963,-1.2963,-1.2963,-1.2963,-1.2888,-1.2786,-1.2691,-1.263,-1.2589,-1.2589,-1.2542,-1.2501,-1.2501,-1.2501,-1.2501,-1.2501,0.0,-1.2501,0.0,0.0,0.0,0.0,-1.2501,-1.2501,0.0,0.0,0.0,0.0,0.0,-1.2501,-1.2501,-1.2501,-1.2528,-1.2589,-1.2684,-1.2759,-1.282,-1.2969,-1.3119,-1.3261,-1.3356,-1.3403,-1.3403,-1.3403,-1.3403,-1.3403,-1.3403,-1.3403,-1.3403,-1.3403,-1.3403,-1.3403,-1.3403,-1.3403,-1.3403,-2.1498,-2.151,-2.1595,-2.1702,-2.175,-2.1293,-1.9854,-1.9661,-1.9057,-1.7455,-1.7227,-1.6617,-1.4944,-1.4713,-1.5319,-1.6922,0.0,0.0,-1.4713,-1.3344,-1.2501,-1.2501,-1.2501,-1.2501,-1.2501,-1.2501,-1.2501,-1.2501,-1.2501,-1.2501,-1.2501,-1.2501,-1.2501,-1.2501,-1.2501,-1.2508,-1.2515,-1.2515,-1.2522,-1.2549,-1.2691,-1.2745,-1.2759,-1.2915,-1.2976,-1.3056,-1.299,-1.3078,-1.3186,-1.3186,-1.3281,-1.3403,-1.3403,-1.3403,-1.3349,-1.3071,-1.299,-1.299,-1.299,-1.299,-1.299,-1.299,-1.299,-1.307,-1.3056,-1.2976,-1.2976,-1.2963,-1.2847,-1.2745,-1.2745,-1.263,-1.2535,-1.2535,-1.2522,-1.2515,-1.2515,-1.2508,-1.2501,0.0,0.0,0.0,-1.2501,-1.2501,-1.2501,0.0,0.0,0.0,0.0,0.0,-1.2528,-1.2515,-1.2515,-1.2589,-1.2745,-1.2759,-1.284,-1.299,-1.3125,-1.3261,-1.3403,-1.3403,-1.3403,-1.3403,-1.3403,-1.3403,-1.3403,-1.3403,-1.3403,-1.3403,-1.3403,-1.3403,-1.3403,-1.3403,-1.3403,-1.3403,0.0,0.0,-2.1481,-2.0452,-2.0261,-1.9747,-1.8214,-1.7986,-1.7379,-1.5701,-1.5472,-1.4867,-1.3267,-1.3035,-1.3267,-1.3645,-1.3267,-1.3035,-1.3035,-1.2733,-1.2501,-1.2501,-1.2501,-1.2501,-1.2501,-1.2501,-1.2501,-1.2501,-1.2501,-1.2501,-1.2501,-1.2501,-1.2501,-1.2501,-1.2501,-1.2569,-1.2678,-1.2678,-1.2745,-1.2854,-1.2895,-1.2908,-1.2922,-1.3064,-1.3125,-1.3139,-1.3254,-1.3315,-1.3349,-1.3349,-1.337,-1.3403,-1.3403,-1.3403,-1.339,-1.3315,-1.3295,-1.3295,-1.3295,-1.3295,-1.3295,-1.3295,-1.3295,-1.3268,-1.3152,-1.3125,-1.3091,-1.2983,-1.2935,-1.2908,-1.2908,-1.2874,-1.2854,-1.2854,-1.2752,-1.2678,-1.2678,-1.2576,-1.2501,0.0,-1.2501,-1.2501,-1.2501,-1.2501,-1.2501,0.0,0.0,-1.2678,-1.2678,-1.2786,-1.28,-1.2678,-1.2678,-1.2752,-1.2901,-1.3017,-1.3146,-1.3295,-1.3329,-1.3363,-1.3403,-1.3403,-1.3403,-1.3403,-1.3403,-1.3403,-1.3403,-1.3403,-1.3403,-1.3403,-1.3403,-1.3403,-1.3403,-1.3403,-1.3403,-1.3403,-2.2017,-2.1449,-2.0728,-1.994,-1.9208,-1.8138,-1.6541,-1.6236,-1.5701,-1.403,-1.3866,-1.353,-1.2681,-1.2671,-1.2712,-1.2712,-1.2583,-1.2528,-1.2603,-1.2603,-1.2637,-1.2712,-1.2712,-1.2712,-1.2712,-1.2712,-1.2712,-1.2712,-1.2712,-1.2712,-1.2712,-1.2712,-1.2712,-1.2712,-1.2712,-1.2759,-1.2834,-1.2834,-1.2888,-1.305,-1.303,-1.3057,-1.3071,-1.322,-1.3275,-1.3288,-1.337,-1.3403,-1.3403,-1.3403,-1.3403,-1.3403,-1.3403,-1.3403,-1.3403,-1.3403,-1.3403,-1.3403,-1.3403,-1.3403,-1.3403,-1.3403,-1.3403,-1.3376,-1.3295,-1.3275,-1.3254,-1.318,-1.3105,-1.3057,-1.3057,-1.3003,-1.2963,-1.2963,-1.2888,-1.2834,-1.2834,-1.2766,-1.2712,-1.2712,-1.2712,-1.2712,-1.2712,-1.2712,-1.2712,-1.2712,-1.2786,0.0,-1.2834,-1.2915,-1.2922,-1.284,-1.2834,-1.2908,-1.3057,-1.3207,-1.3315,-1.3403,-1.3403,-1.3403,-1.3403,-1.3403,-1.3403,-1.3403,-1.3403,-1.3403,-1.3403,-1.3403,-1.3403,-1.3403,-1.3403,-1.3403,-1.3403,-1.3403,-1.3403,-1.3403,-2.196,-2.0812,-1.9661,-1.9132,-1.791,-1.6465,-1.479,-1.4584,-1.4068,-1.269,-1.2671,-1.2766,-1.2766,-1.2881,-1.2963,-1.2963,-1.2725,-1.2623,-1.2759,-1.2766,-1.2827,-1.2956,-1.2963,-1.2963,-1.2963,-1.2963,-1.2963,-1.2963,-1.2963,-1.2963,-1.2963,-1.2963,-1.2963,-1.2963,-1.2963,-1.2976,-1.299,-1.299,-1.301,-1.3037,-1.3159,-1.3207,-1.322,-1.3349,-1.3403,-1.3403,-1.3403,-1.3403,-1.3403,-1.3403,-1.3403,-1.3403,-1.3403,-1.3403,-1.3403,-1.3403,-1.3403,-1.3403,-1.3403,-1.3403,-1.3403,-1.3403,-1.3403,-1.3403,-1.3403,-1.3403,-1.3403,-1.3403,-1.3295,-1.3207,-1.3207,-1.3112,-1.303,-1.303,-1.301,-1.299,-1.299,0.0,-1.2963,-1.2963,-1.2963,-1.2963,-1.2963,-1.2963,-1.2963,-1.2963,-1.2983,-1.299,-1.299,-1.3017,-1.303,-1.303,-1.3003,-1.3064,-1.3207,-1.3336,-1.3403,-1.3403,-1.3403,-1.3403,-1.3403,-1.3403,-1.3403,-1.3403,-1.3403,-1.3403,-1.3403,-1.3403,-1.3403,-1.3403,-1.3403,-1.3403,-1.3403,-1.3403,-1.3403,-1.3403,-2.05,-1.9962,-1.8895,-1.616,-1.5472,-1.4713,-1.3112,-1.3,-1.2927,-1.2691,-1.2827,-1.2929,-1.2929,-1.2949,-1.2963,-1.2963,-1.2915,-1.2901,-1.2922,-1.2929,-1.2935,-1.3043,-1.2963,-1.2963,-1.2963,-1.2963,-1.2963,-1.2963,-1.2963,-1.2963,-1.2963,-1.2963,-1.2963,-1.2963,-1.2963,-1.303,-1.3139,-1.3139,-1.3214,-1.3336,-1.3356,-1.3363,-1.337,-1.339,-1.3403,-1.3403,-1.3403,-1.3403,-1.3403,-1.3403,-1.3403,-1.3403,-1.3403,-1.3403,-1.3403,-1.3403,-1.3403,-1.3403,-1.3403,-1.3403,-1.3403,-1.3403,-1.3403,-1.3403,-1.3403,-1.3403,-1.3403,-1.3403,-1.3383,-1.3363,-1.3363,-1.3349,-1.3336,-1.3336,-1.322,-1.3139,-1.3139,0.0,-1.2963,-1.2963,-1.2963,-1.2963,-1.2963,-1.2963,-1.2963,-1.2963,-1.3071,-1.3139,-1.3139,-1.3261,-1.3336,-1.3336,-1.3207,-1.3214,-1.3363,-1.339,-1.3403,-1.3403,-1.3403,-1.3403,-1.3403,-1.3403,-1.3403,-1.3403,-1.3403,-1.3403,-1.3403,-1.3403,-1.3403,-1.3403,-1.3403,-1.3403,-1.3403,-1.3403,-1.3403,-1.3403,-1.8819,-1.7759,-1.6694,-1.5174,-1.4176,-1.3373,-1.2688,-1.2684,-1.2759,-1.284,-1.2983,-1.3078,-1.3078,-1.3152,-1.32,-1.32,-1.32,-1.32,-1.32,-1.3119,-1.3112,-1.3193,-1.32,-1.32,-1.32,-1.32,-1.32,-1.32,-1.32,-1.32,-1.32,-1.32,-1.32,-1.32,-1.32,-1.3234,-1.3295,-1.3295,-1.3336,-1.3403,-1.3403,-1.3403,-1.3403,-1.3403,-1.3403,-1.3403,-1.3403,-1.3403,-1.3403,-1.3403,-1.3403,-1.3403,-1.3403,-1.3403,-1.3403,-1.3403,-1.3403,-1.3403,-1.3403,-1.3403,-1.3403,-1.3403,-1.3403,-1.3403,-1.3403,-1.3403,-1.3403,-1.3403,-1.3403,-1.3403,-1.3403,-1.3403,-1.3403,-1.3403,-1.3342,-1.3295,-1.3295,-1.3241,-1.32,-1.32,-1.32,-1.32,-1.32,-1.32,-1.32,-1.32,-1.3261,-1.3295,-1.3295,-1.3363,-1.3403,-1.3403,-1.3336,-1.3329,-1.3403,-1.3403,-1.3403,-1.3403,-1.3403,-1.3403,-1.3403,-1.3403,-1.3403,-1.3403,-1.3403,-1.3403,-1.3403,-1.3403,-1.3403,-1.3403,-1.3403,-1.3403,-1.3403,-1.3403,-1.3403,-1.341,-1.715,-1.5778,-1.4798,-1.4461,-1.3402,-1.261,-1.2759,-1.2813,-1.2874,-1.2996,-1.3132,-1.3227,-1.3227,-1.3329,-1.3403,-1.3403,-1.3403,-1.3403,-1.3403,-1.3288,-1.3275,-1.3397,-1.3403,-1.3403,-1.3403,-1.3403,-1.3403,-1.3403,-1.3403,-1.3403,-1.3403,-1.3403,-1.3403,-1.3403,-1.3403,-1.3403,-1.3403,-1.3403,-1.3403,-1.3403,-1.3403,-1.3403,-1.3403,-1.3403,-1.3403,-1.3403,-1.3403,-1.3403,-1.3403,-1.3403,-1.3403,-1.3403,-1.3403,-1.3403,-1.3403,-1.3403,-1.3403,-1.3403,-1.3403,-1.3403,-1.3403,-1.3403,-1.3403,-1.3403,-1.3403,-1.3403,-1.3403,-1.3403,-1.3403,-1.3403,-1.3403,-1.3403,-1.3403,-1.3403,0.0,-1.3403,-1.3403,-1.3403,-1.3403,-1.3403,-1.3403,-1.3403,-1.3403,-1.3403,-1.3403,-1.3403,-1.3403,-1.3403,-1.3403,-1.3403,-1.3403,-1.3403,-1.3403,-1.3403,-1.3403,-1.3403,-1.3403,-1.3403,-1.3403,-1.3403,-1.3403,-1.3403,-1.3403,-1.3403,-1.3403,-1.3403,-1.3403,-1.3403,-1.3403,-1.3403,-1.3403,-1.3403,-1.3403,-1.3444,-1.3451,-1.3478,-1.5395,-1.502,-1.4461,-1.3077,-1.279,-1.2766,-1.2922,-1.3057,-1.3146,-1.3152,-1.3288,-1.3383,-1.3383,-1.3397,-1.3403,-1.3403,-1.3403,-1.3403,-1.3403,-1.339,-1.339,-1.3403,-1.3403,-1.3403,-1.3403,-1.3403,-1.3403,-1.3403,-1.3403,-1.3403,-1.3403,-1.3403,-1.3403,-1.3403,-1.3403,-1.3403,-1.3403,-1.3403,-1.3403,-1.3403,-1.3403,-1.3403,-1.3403,-1.3403,-1.3403,-1.3403,-1.3403,-1.3403,-1.3403,-1.3403,-1.3403,-1.3403,-1.3403,-1.3403,-1.3403,-1.3403,-1.3403,-1.3403,-1.3403,-1.3403,-1.3403,-1.3403,-1.3403,-1.3403,-1.3403,-1.3403,-1.3403,-1.3403,-1.3403,-1.3403,-1.3403,-1.3403,-1.3403,-1.3403,0.0,0.0,-1.3403,-1.3403,-1.3403,-1.3403,-1.3403,-1.3403,-1.3403,-1.3403,-1.3403,-1.3403,-1.3403,-1.3403,-1.3403,-1.3403,-1.3403,-1.3403,-1.3403,-1.3403,-1.3403,-1.3403,-1.3403,-1.3403,-1.3403,-1.3403,-1.3403,-1.3403,-1.3403,-1.3403,-1.3403,-1.3403,-1.3403,-1.3403,-1.3403,-1.3403,-1.3403,-1.3403,-1.3417,-1.3559,-1.3614,-1.3634,-1.3878,-1.3654,-1.3591,-1.294,-1.2874,-1.2922,-1.3071,-1.3139,-1.3207,-1.3302,-1.3363,-1.3403,-1.3403,-1.3403,-1.3403,-1.3403,-1.3403,-1.3403,-1.3403,-1.3403,-1.3403,-1.3403,-1.3403,-1.3403,-1.3403,-1.3403,-1.3403,-1.3403,-1.3403,-1.3403,-1.3403,-1.3403,-1.3403,-1.3403,-1.3403,-1.3403,-1.3403,-1.3403,-1.3403,-1.3403,-1.3403,-1.3403,-1.3403,-1.3403,-1.3403,-1.3403,-1.3403,-1.3403,-1.3403,-1.3403,-1.3403,-1.3403,-1.3403,-1.3403,-1.3403,-1.3403,-1.3403,-1.3403,-1.3403,-1.3403,-1.3403,-1.3403,-1.3403,-1.3403,-1.3403,-1.3403,-1.3403,-1.3403,-1.3403,-1.3403,-1.3403,-1.3403,-1.3403,-1.3403,0.0,-1.3403,-1.3403,-1.3403,-1.3403,-1.3403,-1.3403,-1.3403,-1.3403,-1.3403,-1.3403,-1.3403,-1.3403,-1.3403,-1.3403,-1.3403,-1.3403,-1.3403,-1.3403,-1.3403,-1.3403,-1.3403,-1.3403,-1.3403,-1.3403,-1.3403,-1.3403,-1.3403,-1.3403,-1.3403,-1.3403,-1.3403,-1.3403,-1.3403,-1.3403,-1.341,-1.3505,-1.3546,-1.3559,-1.3709,-1.3756,-1.3783,-1.3037,-1.2888,-1.2976,-1.3097,-1.303,-1.3078,-1.322,-1.3247,-1.3281,-1.339,-1.3403,-1.3403,-1.3403,-1.3403,-1.3403,-1.3403,-1.3403,-1.3403,-1.3403,-1.3403,-1.3403,-1.3403,-1.3403,-1.3403,-1.3403,-1.3403,-1.3403,-1.3403,-1.3403,-1.3403,-1.3403,-1.3403,-1.3403,-1.3403,-1.3403,-1.3403,-1.3403,-1.3403,-1.3403,-1.3403,-1.3403,-1.3403,-1.3403,-1.3403,-1.3403,-1.3403,-1.3403,-1.3403,-1.3403,-1.3403,-1.3403,-1.3403,-1.3403,-1.3403,-1.3403,-1.3403,-1.3403,-1.3403,-1.3403,-1.3403,-1.3403,-1.3403,-1.3403,-1.3403,-1.3403,-1.3403,-1.3403,-1.3403,-1.3403,-1.3403,-1.3403,-1.3403,-1.3403,-1.3403,-1.3403,-1.3403,-1.3403,-1.3403,-1.3403,-1.3403,-1.3403,-1.3403,-1.3403,-1.3403,-1.3403,-1.3403,-1.3403,-1.3403,-1.3403,-1.3403,-1.3403,-1.3403,-1.3403,-1.3403,-1.3403,-1.3403,-1.3403,-1.3403,-1.3403,-1.3403,-1.3403,-1.3403,-1.3403,-1.3403,-1.3403,-1.3431,-1.3471,-1.3471,-1.3498,-1.3546,-1.3654,-1.3695,-1.3715,-1.3858,-1.3912,-1.3933,-1.2963,-1.2963,-1.309,-1.3152,-1.3173,-1.3227,-1.3376,-1.3403,-1.3403,-1.3403,-1.3403,-1.3403,-1.3403,-1.3403,-1.3403,-1.3403,-1.3403,-1.3403,-1.3403,-1.3403,-1.3403,-1.3403,-1.3403,-1.3403,-1.3403,-1.3403,-1.3403,-1.3403,-1.3403,-1.3403,-1.3403,-1.3403,-1.3403,-1.3403,-1.3403,-1.3403,-1.3403,-1.3403,-1.3403,-1.3403,-1.3403,-1.3403,-1.3403,-1.3403,-1.3403,-1.3403,-1.3403,-1.3403,-1.3403,-1.3403,-1.3403,-1.3403,-1.3403,-1.3403,-1.3403,-1.3403,-1.3403,-1.3403,-1.3403,-1.3403,-1.3403,-1.3403,-1.3403,-1.3403,-1.3403,-1.3403,-1.3403,-1.3403,-1.3403,-1.3403,-1.3403,-1.3403,-1.3403,-1.3403,-1.3403,-1.3403,-1.3403,-1.3403,-1.3403,-1.3403,-1.3403,-1.3403,-1.3403,-1.3403,-1.3403,-1.3403,-1.3403,-1.3403,-1.3403,-1.3403,-1.3403,-1.3403,-1.3403,-1.3403,-1.3403,-1.3403,-1.3403,-1.3403,-1.3403,-1.3403,-1.3403,-1.3403,-1.3403,-1.3403,-1.3403,-1.3492,-1.3634,-1.3634,-1.3715,-1.3838,-1.3844,-1.3844,-1.3865,-1.4014,-1.4075,-1.4095,-1.3112,-1.3193,-1.3281,-1.3322,-1.3336,-1.3349,-1.3397,-1.3403,-1.3403,-1.3403,-1.3403,-1.3403,-1.3403,-1.3403,-1.3403,-1.3403,-1.3403,-1.3403,-1.3403,-1.3403,-1.3403,-1.3403,-1.3403,-1.3403,-1.3403,-1.3403,-1.3403,-1.3403,-1.3403,-1.3403,-1.3403,-1.3403,-1.3403,-1.3403,-1.3403,-1.3403,-1.3403,-1.3403,-1.3403,-1.3403,-1.3403,-1.3403,-1.3403,-1.3403,-1.3403,-1.3403,-1.3403,-1.3403,-1.3403,-1.3403,-1.3403,-1.3403,-1.3403,-1.3403,-1.3403,-1.3403,-1.3403,-1.3403,-1.3403,-1.3403,-1.3403,-1.3403,-1.3403,-1.3403,-1.3403,-1.3403,-1.3403,-1.3403,-1.3403,-1.3403,-1.3403,-1.3403,-1.3403,-1.3403,-1.3403,-1.3403,-1.3403,-1.3403,-1.3403,-1.3403,-1.3403,-1.3403,-1.3403,-1.3403,-1.3403,-1.3403,-1.3403,-1.3403,-1.3403,-1.3403,-1.3403,-1.3403,-1.3403,-1.3403,-1.3403,-1.3403,-1.3403,-1.3403,-1.3403,-1.3403,-1.3403,-1.3403,-1.3458,-1.3559,-1.3559,-1.3641,-1.3777,-1.3777,-1.3804,-1.3851,-1.396,-1.4,-1.4021,-1.4177,-1.4231,-1.4238,-1.3261,-1.3336,-1.3403,-1.3403,-1.3403,-1.3403,-1.3403,-1.3403,-1.3403,-1.3403,-1.3403,-1.3403,-1.3403,-1.3403,-1.3403,-1.3403,-1.3403,-1.3403,-1.3403,-1.3403,-1.3403,-1.3403,-1.3403,-1.3403,-1.3403,-1.3403,-1.3403,-1.3403,-1.3403,-1.3403,-1.3403,-1.3403,-1.3403,-1.3403,-1.3403,-1.3403,-1.3403,-1.3403,-1.3403,-1.3403,-1.3403,-1.3403,-1.3403,-1.3403,-1.3403,-1.3403,-1.3403,-1.3403,-1.3403,-1.3403,-1.3403,-1.3403,-1.3403,-1.3403,-1.3403,-1.3403,-1.3403,-1.3403,-1.3403,-1.3403,-1.3403,-1.3403,-1.3403,-1.3403,-1.3403,-1.3403,-1.3403,-1.3403,-1.3403,-1.3403,-1.3403,-1.3403,-1.3403,-1.3403,-1.3403,-1.3403,-1.3403,-1.3403,-1.3403,-1.3403,-1.3403,-1.3403,-1.3403,-1.3403,-1.3403,-1.3403,-1.3403,-1.3403,-1.3403,-1.3403,-1.3403,-1.3403,-1.3403,-1.3431,-1.3492,-1.3492,-1.3458,-1.3403,-1.3464,-1.3492,-1.3492,-1.3546,-1.3627,-1.3709,-1.3709,-1.3797,-1.3933,-1.3933,-1.3966,-1.4034,-1.4122,-1.4163,-1.4177,-1.4265,-1.4299,-1.4299,-1.3403,-1.3403,-1.3403,-1.3403,-1.3403,-1.3403,-1.3403,-1.3403,-1.3403,-1.3403,-1.3403,-1.3403,-1.3403,-1.3403,-1.3403,-1.3403,-1.3403,-1.3403,-1.3403,-1.3403,-1.3403,-1.3403,-1.3403,-1.3403,-1.3403,-1.3403,-1.3403,-1.3403,-1.3403,-1.3403,-1.3403,-1.3403,-1.3403,-1.3403,-1.3403,-1.3403,-1.3403,-1.3403,-1.3403,-1.3403,-1.3403,-1.3403,-1.3403,-1.3403,-1.3403,-1.3403,-1.3403,-1.3403,-1.3403,-1.3417,-1.3424,-1.3424,-1.3437,-1.3437,-1.3437,-1.3437,-1.3437,-1.3437,-1.3437,-1.3437,-1.3437,-1.3437,-1.3431,-1.3417,-1.3403,-1.3403,-1.3403,-1.3403,-1.3403,-1.3403,-1.3403,-1.3403,-1.3403,-1.3403,-1.3403,-1.3403,-1.3403,-1.3403,-1.3403,-1.3403,-1.3403,-1.3403,-1.3403,-1.3403,-1.3403,-1.3403,-1.3403,-1.3403,-1.3403,-1.341,-1.3424,-1.3424,-1.3437,-1.3505,-1.3648,-1.3648,-1.358,-1.3444,-1.358,-1.3648,-1.3654,-1.3783,-1.3844,-1.3865,-1.3865,-1.3946,-1.4095,-1.4095,-1.4177,-1.4299,-1.4299,-1.4299,-1.4299,-1.4299,-1.421,-1.4033,-1.3403,-1.3403,-1.3403,-1.3403,-1.3403,-1.3403,-1.3403,-1.3403,-1.3403,-1.3403,-1.3403,-1.3403,-1.3403,-1.3403,-1.3403,-1.3403,-1.3403,-1.3403,-1.3403,-1.3403,-1.3403,-1.3403,-1.3403,-1.3403,-1.3403,-1.3403,-1.3403,-1.3403,-1.3403,-1.3403,-1.3403,-1.3403,-1.3403,-1.3403,-1.3403,-1.3403,-1.3403,-1.3403,-1.3403,-1.3403,-1.3403,-1.3403,-1.3403,-1.3403,-1.3403,-1.3403,-1.3403,-1.3403,-1.3417,-1.3539,-1.358,-1.36,-1.3709,-1.3743,-1.3743,-1.3743,-1.3743,-1.3743,-1.3743,-1.3743,-1.3743,-1.3743,-1.3661,-1.3546,-1.3431,-1.3403,-1.3403,-1.3403,-1.3403,-1.3403,-1.3403,-1.3403,-1.3403,-1.3403,-1.3403,-1.3403,-1.3403,-1.3403,-1.3403,-1.3403,-1.3403,-1.3403,-1.3403,-1.3403,-1.3403,-1.3403,-1.3403,-1.3403,-1.3403,-1.3512,-1.358,-1.358,-1.3688,-1.3763,-1.3797,-1.3797,-1.3777,-1.3743,-1.3777,-1.3797,-1.3797,-1.3824,-1.3905,-1.4021,-1.4021,-1.4109,-1.4251,-1.4251,-1.4272,-1.4299,-1.4299,-1.4299,-1.4299,-1.4299,-1.3318,-1.1799,-1.3403,-1.3403,-1.3403,-1.3403,-1.3403,-1.3403,-1.3403,-1.3403,-1.3403,-1.3403,-1.3403,-1.3403,-1.3403,-1.3403,-1.3403,-1.3403,-1.3403,-1.3403,-1.3403,-1.3403,-1.3403,-1.3403,-1.3403,-1.3403,-1.3403,-1.3403,-1.3403,-1.3403,-1.3403,-1.3403,-1.3403,-1.3403,-1.3403,-1.3403,-1.3403,-1.3403,-1.3403,-1.3403,-1.3403,-1.3403,-1.3403,-1.3403,-1.3403,-1.3403,-1.3403,-1.3403,-1.3403,-1.3451,-1.3532,-1.3682,-1.3729,-1.3743,-1.3817,-1.3838,-1.3838,-1.3838,-1.3838,-1.3838,-1.3838,-1.3838,-1.3838,-1.3838,-1.3783,-1.3688,-1.3546,-1.3451,-1.3403,-1.3403,-1.3403,-1.3403,-1.3403,-1.3403,-1.3403,-1.3403,-1.3403,-1.3403,-1.3403,-1.3403,-1.3403,-1.3403,-1.3403,-1.3431,-1.3505,-1.3573,-1.3607,-1.3607,-1.3607,-1.3607,-1.3607,-1.3688,-1.3729,-1.3729,-1.3804,-1.3878,-1.3953,-1.3953,-1.3987,-1.4061,-1.3987,-1.3953,-1.3953,-1.4027,-1.4102,-1.4183,-1.4183,-1.4224,-1.421,-1.3312,-1.2958,-1.2869,-1.1888,-1.1621,-1.1621,-1.1621,-1.0905,-0.9922,-1.3403,-1.3403,-1.3403,-1.3403,-1.3403,-1.3403,-1.3403,-1.3403,-1.3403,-1.3403,-1.3403,-1.3403,-1.3403,-1.3403,-1.3403,-1.3403,-1.3403,-1.3403,-1.3403,-1.3403,-1.3403,-1.3403,-1.3403,-1.3403,-1.3403,-1.3403,-1.3403,-1.3403,-1.3403,-1.3403,-1.3403,-1.3403,-1.3403,-1.3403,-1.3403,-1.3403,-1.3403,-1.3403,-1.3403,-1.3403,-1.3403,-1.3403,-1.3403,-1.3403,-1.3403,-1.3403,-1.3431,-1.3539,-1.3688,-1.3831,-1.3878,-1.3885,-1.3912,-1.3919,-1.3919,-1.3919,-1.3919,-1.3919,-1.3919,-1.3919,-1.3919,-1.3919,-1.3899,-1.3851,-1.3729,-1.3587,-1.3478,-1.3478,-1.3478,-1.3478,-1.3478,-1.3478,-1.3478,-1.3478,-1.3478,-1.3478,-1.3478,-1.3478,-1.3478,-1.3478,-1.3478,-1.3526,-1.3654,-1.377,-1.3838,-1.3838,-1.3838,-1.3838,-1.3838,-1.3865,-1.3878,-1.3878,-1.3905,-1.398,-1.4109,-1.4109,-1.4177,-1.4299,-1.3819,-1.3847,-1.4116,-1.4245,-1.4122,-1.3761,-1.3761,-1.3584,-1.323,-1.1616,-1.0905,-1.0728,-0.921,-0.8587,-0.8587,-0.823,-0.8141,-0.8052,-1.3403,-1.3403,-1.3403,-1.3403,-1.3403,-1.3403,-1.3403,-1.3403,-1.3403,-1.3403,-1.3403,-1.3403,-1.3403,-1.3403,-1.3403,-1.3403,-1.3403,-1.3403,-1.3403,-1.3403,-1.3403,-1.3403,-1.3403,-1.3403,-1.3403,-1.3403,-1.3403,-1.3403,-1.3403,-1.3403,-1.3403,-1.3403,-1.3403,-1.3403,-1.3403,-1.3403,-1.3403,-1.3403,-1.3403,-1.3403,-1.3403,-1.3403,-1.3403,-1.3403,-1.3403,-1.3417,-1.3553,-1.3688,-1.3838,-1.3987,-1.4041,-1.4061,-1.4197,-1.4238,-1.4238,-1.4238,-1.4238,-1.4238,-1.4238,-1.4238,-1.4238,-1.4238,-1.4136,-1.4034,-1.4014,-1.3892,-1.3783,-1.3783,-1.3783,-1.3783,-1.3783,-1.3783,-1.3783,-1.3783,-1.3783,-1.3783,-1.3783,-1.3783,-1.3783,-1.3783,-1.3783,-1.379,-1.381,-1.3831,-1.3838,-1.3838,-1.3838,-1.3838,-1.3838,-1.3966,-1.4041,-1.4041,-1.417,-1.4245,-1.4272,-1.4272,-1.4278,-1.4299,-1.2585,-1.2662,-1.4272,-1.4292,-1.3401,-1.1799,-1.1799,-1.0905,-0.9388,-0.9121,-0.8943,-0.8943,-0.8676,-0.8587,-0.8409,-0.6716,-0.6091,-0.5823,-1.3403,-1.3403,-1.3403,-1.3403,-1.3403,-1.3403,-1.3403,-1.3403,-1.3403,-1.3403,-1.3403,-1.3403,-1.3403,-1.3403,-1.3403,-1.3403,-1.3403,-1.3403,-1.3403,-1.3403,-1.3403,-1.3403,-1.3403,-1.3403,-1.3403,-1.3403,-1.3403,-1.3403,-1.3403,-1.3403,-1.3403,-1.3403,-1.3403,-1.3403,-1.3403,-1.3403,-1.3403,-1.3403,-1.3403,-1.3403,-1.3403,-1.3403,-1.3403,-1.3403,-1.3451,-1.3559,-1.379,-1.3919,-1.3994,-1.415,-1.4197,-1.4211,-1.4278,-1.4299,-1.4299,-1.4299,-1.4299,-1.4299,-1.4299,-1.4299,-1.4299,-1.4299,-1.4251,-1.4197,-1.4197,-1.415,-1.4048,-1.3878,-1.3838,-1.3838,-1.3838,-1.3838,-1.3838,-1.3838,-1.3838,-1.3838,-1.3838,-1.3838,-1.3838,-1.3838,-1.3919,-1.3973,-1.3973,-1.4048,-1.4095,-1.4095,-1.4095,-1.4095,-1.4095,-1.4163,-1.4197,-1.4197,-1.3192,-1.2692,-1.2692,-1.1621,-1.1083,-1.1083,-1.0283,-1.0816,-1.2603,-1.1616,-1.0639,-0.9833,-0.9833,-0.9388,-0.8498,-0.7427,-0.6981,-0.6895,-0.5823,-0.5378,-0.5288,-0.4485,-0.4126,-0.4037]},{"header":{"parameterUnit":"m.s-1","parameterCategory":1,"la1":30.6,"la2":28.766,"lo1":-90.7593,"lo2":-88.6598,"dy":0.0162,"dx":0.0183,"nx":116,"ny":114,"refTime":"2023-08-17T12:00:00:Z","depth":0,"parameterNumber":3,"parameterNumberName":"V-component_of_WINDS"},"data":[0.0,0.0,0.0,0.0,0.0,0.0,0.0,0.0,0.0,0.0,0.0,0.0,0.0,0.0,0.0,0.0,0.0,0.0,0.0,0.0,0.0,0.0,0.0,0.0,0.0,0.0,0.0,0.0,0.0,0.0,0.0,0.0,0.0,0.0,0.0,0.0,0.0,0.0,0.0,0.0,0.0,0.0,0.0,0.0,0.0,0.0,0.0,0.0,0.0,0.0,0.0,0.0,0.0,0.0,0.0,0.0,0.0,0.0,0.0,0.0,0.0,0.0,0.0,0.0,0.0,0.0,0.0,0.0,0.0,0.0,0.0,0.0,0.0,0.0,0.0,0.0,0.0,0.0,0.0,0.0,0.0,0.0,0.0,0.0,0.0,0.0,0.0,0.0,0.0,0.0,0.0,0.0,0.0,0.0,0.0,0.0,0.0,0.0,0.0,0.0,0.0,0.0,0.0,0.0,0.0,0.0,0.0,0.0,0.0,0.0,0.0,0.0,0.0,0.0,0.0,0.0,0.0,0.0,0.0,0.0,0.0,0.0,0.0,0.0,0.0,0.0,0.0,0.0,0.0,0.0,0.0,0.0,0.0,0.0,0.0,0.0,0.0,0.0,0.0,0.0,0.0,0.0,0.0,0.0,0.0,0.0,0.0,0.0,0.0,0.0,0.0,0.0,0.0,0.0,0.0,0.0,0.0,0.0,0.0,0.0,0.0,0.0,0.0,0.0,0.0,0.0,0.0,0.0,0.0,0.0,0.0,0.0,0.0,0.0,0.0,0.0,0.0,0.0,0.0,0.0,0.0,0.0,0.0,0.0,0.0,0.0,0.0,0.0,0.0,0.0,0.0,0.0,0.0,0.0,0.0,0.0,0.0,0.0,0.0,0.0,0.0,0.0,0.0,0.0,0.0,0.0,0.0,0.0,0.0,0.0,0.0,0.0,0.0,0.0,0.0,0.0,0.0,0.0,0.0,0.0,0.0,0.0,0.0,0.0,0.0,0.0,0.0,0.0,0.0,0.0,0.0,0.0,0.0,0.0,0.0,0.0,0.0,0.0,0.0,0.0,0.0,0.0,0.0,0.0,0.0,0.0,0.0,0.0,0.0,0.0,0.0,0.0,0.0,0.0,0.0,0.0,0.0,0.0,0.0,0.0,0.0,0.0,0.0,0.0,0.0,0.0,0.0,0.0,0.0,0.0,0.0,0.0,0.0,0.0,0.0,0.0,0.0,0.0,0.0,0.0,0.0,0.0,0.0,0.0,0.0,0.0,0.0,0.0,0.0,0.0,0.0,0.0,0.0,0.0,0.0,0.0,0.0,0.0,0.0,0.0,0.0,0.0,0.0,0.0,0.0,0.0,0.0,0.0,0.0,0.0,0.0,0.0,0.0,0.0,0.0,0.0,0.0,0.0,0.0,0.0,0.0,0.0,0.0,0.0,0.0,0.0,0.0,0.0,0.0,0.0,0.0,0.0,0.0,0.0,0.0,0.0,0.0,0.0,0.0,0.0,0.0,0.0,0.0,0.0,0.0,0.0,0.0,0.0,0.0,0.0,0.0,0.0,0.0,0.0,0.0,0.0,0.0,0.0,0.0,0.0,0.0,0.0,0.0,0.0,0.0,0.0,0.0,0.0,0.0,0.0,0.0,0.0,0.0,0.0,0.0,0.0,0.0,0.0,0.0,0.0,0.0,0.0,0.0,0.0,0.0,0.0,0.0,0.0,0.0,0.0,0.0,0.0,0.0,0.0,0.0,0.0,0.0,0.0,0.0,0.0,0.0,0.0,0.0,0.0,0.0,0.0,0.0,0.0,0.0,0.0,0.0,0.0,0.0,0.0,0.0,0.0,0.0,0.0,0.0,0.0,0.0,0.0,0.0,0.0,0.0,0.0,0.0,0.0,0.0,0.0,0.0,0.0,0.0,0.0,0.0,0.0,0.0,0.0,0.0,0.0,0.0,0.0,0.0,0.0,0.0,0.0,0.0,0.0,0.0,0.0,0.0,0.0,0.0,0.0,0.0,0.0,0.0,0.0,0.0,0.0,0.0,0.0,0.0,0.0,0.0,0.0,0.0,0.0,0.0,0.0,0.0,0.0,0.0,0.0,0.0,0.0,0.0,0.0,0.0,0.0,0.0,0.0,0.0,0.0,0.0,0.0,0.0,0.0,0.0,0.0,0.0,0.0,0.0,0.0,0.0,0.0,0.0,0.0,0.0,0.0,0.0,0.0,0.0,0.0,0.0,0.0,0.0,0.0,0.0,0.0,0.0,0.0,0.0,0.0,0.0,0.0,0.0,0.0,0.0,0.0,0.0,0.0,0.0,0.0,0.0,0.0,0.0,0.0,0.0,0.0,0.0,0.0,0.0,0.0,0.0,0.0,0.0,0.0,0.0,0.0,0.0,0.0,0.0,0.0,0.0,0.0,0.0,0.0,0.0,0.0,0.0,0.0,0.0,0.0,0.0,0.0,0.0,0.0,0.0,0.0,0.0,0.0,0.0,0.0,0.0,0.0,0.0,0.0,0.0,0.0,0.0,0.0,0.0,0.0,0.0,0.0,0.0,0.0,0.0,0.0,0.0,0.0,0.0,0.0,0.0,0.0,0.0,0.0,0.0,0.0,0.0,0.0,0.0,0.0,0.0,0.0,0.0,0.0,0.0,0.0,0.0,0.0,0.0,0.0,0.0,0.0,0.0,0.0,0.0,0.0,0.0,0.0,0.0,0.0,0.0,0.0,0.0,0.0,0.0,0.0,0.0,0.0,0.0,0.0,0.0,0.0,0.0,0.0,0.0,0.0,0.0,0.0,0.0,0.0,0.0,0.0,0.0,0.0,0.0,0.0,0.0,0.0,0.0,0.0,0.0,0.0,0.0,0.0,0.0,0.0,0.0,0.0,0.0,0.0,0.0,0.0,0.0,0.0,0.0,0.0,0.0,0.0,0.0,0.0,0.0,0.0,0.0,0.0,0.0,0.0,0.0,0.0,0.0,0.0,0.0,0.0,0.0,0.0,0.0,0.0,0.0,0.0,0.0,0.0,0.0,0.0,0.0,0.0,0.0,0.0,0.0,0.0,0.0,0.0,0.0,0.0,0.0,0.0,0.0,0.0,0.0,0.0,0.0,0.0,0.0,0.0,0.0,0.0,0.0,0.0,0.0,0.0,0.0,0.0,0.0,0.0,0.0,0.0,0.0,0.0,0.0,0.0,0.0,0.0,0.0,0.0,0.0,0.0,0.0,0.0,0.0,0.0,0.0,0.0,0.0,0.0,0.0,0.0,0.0,0.0,0.0,0.0,0.0,0.0,0.0,0.0,0.0,0.0,0.0,0.0,0.0,0.0,0.0,0.0,0.0,0.0,0.0,0.0,0.0,0.0,0.0,0.0,0.0,0.0,0.0,0.0,0.0,0.0,0.0,0.0,0.0,0.0,0.0,0.0,0.0,0.0,0.0,0.0,0.0,0.0,0.0,0.0,0.0,0.0,0.0,0.0,0.0,0.0,0.0,0.0,0.0,0.0,0.0,0.0,0.0,0.0,0.0,0.0,0.0,0.0,0.0,0.0,0.0,0.0,0.0,0.0,0.0,0.0,0.0,0.0,0.0,0.0,0.0,0.0,0.0,0.0,0.0,0.0,0.0,0.0,0.0,0.0,0.0,0.0,0.0,0.0,0.0,0.0,0.0,0.0,0.0,0.0,0.0,0.0,0.0,0.0,0.0,0.0,0.0,0.0,0.0,0.0,0.0,0.0,0.0,0.0,0.0,0.0,0.0,0.0,0.0,0.0,0.0,0.0,0.0,0.0,0.0,0.0,0.0,0.0,0.0,0.0,0.0,0.0,0.0,0.0,0.0,0.0,0.0,0.0,0.0,0.0,0.0,0.0,0.0,0.0,0.0,0.0,0.0,0.0,0.0,0.0,0.0,0.0,0.0,0.0,0.0,0.0,0.0,0.0,0.0,0.0,0.0,0.0,0.0,0.0,0.0,0.0,0.0,0.0,0.0,0.0,0.0,0.0,0.0,0.0,0.0,0.0,0.0,0.0,0.0,0.0,0.0,0.0,0.0,0.0,0.0,0.0,0.0,0.0,0.0,0.0,0.0,0.0,0.0,0.0,0.0,0.0,0.0,0.0,0.0,0.0,0.0,0.0,0.0,0.0,0.0,0.0,0.0,0.0,0.0,0.0,0.0,0.0,0.0,0.0,0.0,0.0,0.0,0.0,0.0,0.0,0.0,0.0,0.0,0.0,0.0,0.0,0.0,0.0,0.0,0.0,0.0,0.0,0.0,0.0,0.0,0.0,0.0,0.0,0.0,0.0,0.0,0.0,0.0,0.0,0.0,0.0,0.0,0.0,0.0,0.0,0.0,0.0,0.0,0.0,0.0,0.0,0.0,0.0,0.0,0.0,0.0,0.0,0.0,0.0,0.0,0.0,0.0,0.0,0.0,0.0,0.0,0.0,0.0,0.0,0.0,0.0,0.0,0.0,0.0,0.0,0.0,0.0,0.0,0.0,0.0,0.0,0.0,0.0,0.0,0.0,0.0,0.0,0.0,0.0,0.0,0.0,0.0,0.0,0.0,0.0,0.0,0.0,0.0,0.0,0.0,0.0,0.0,0.0,0.0,0.0,0.0,0.0,0.0,0.0,0.0,0.0,0.0,0.0,0.0,0.0,0.0,0.0,0.0,0.0,0.0,0.0,0.0,0.0,0.0,0.0,0.0,0.0,0.0,0.0,0.0,0.0,0.0,0.0,0.0,0.0,0.0,0.0,0.0,0.0,0.0,0.0,0.0,0.0,0.0,0.0,0.0,0.0,0.0,0.0,0.0,0.0,0.0,0.0,0.0,0.0,0.0,0.0,0.0,0.0,0.0,0.0,0.0,0.0,0.0,0.0,0.0,0.0,0.0,0.0,0.0,0.0,0.0,0.0,0.0,0.0,0.0,0.0,0.0,0.0,0.0,0.0,0.0,0.0,0.0,0.0,0.0,0.0,0.0,0.0,0.0,0.0,0.0,0.0,0.0,0.0,0.0,0.0,0.0,0.0,0.0,0.0,0.0,0.0,0.0,0.0,0.0,0.0,0.0,0.0,0.0,0.0,0.0,0.0,0.0,0.0,0.0,0.0,0.0,0.0,0.0,0.0,0.0,0.0,0.0,0.0,0.0,0.0,0.0,0.0,0.0,0.0,0.0,0.0,0.0,0.0,0.0,0.0,0.0,0.0,0.0,0.0,0.0,0.0,0.0,0.0,0.0,0.0,0.0,0.0,0.0,0.0,0.0,0.0,0.0,0.0,0.0,0.0,0.0,0.0,0.0,0.0,0.0,0.0,0.0,0.0,0.0,0.0,0.0,0.0,0.0,0.0,0.0,0.0,0.0,0.0,0.0,0.0,0.0,0.0,0.0,0.0,0.0,0.0,0.0,0.0,0.0,0.0,0.0,0.0,0.0,0.0,0.0,0.0,0.0,0.0,0.0,0.0,0.0,0.0,0.0,0.0,0.0,0.0,0.0,0.0,0.0,0.0,0.0,0.0,0.0,0.0,0.0,0.0,0.0,0.0,0.0,0.0,0.0,0.0,0.0,0.0,0.0,0.0,0.0,0.0,0.0,0.0,0.0,0.0,0.0,0.0,0.0,0.0,0.0,0.0,0.0,0.0,0.0,0.0,0.0,0.0,0.0,0.0,0.0,0.0,0.0,0.0,0.0,0.0,0.0,0.0,0.0,0.0,0.0,0.0,0.0,0.0,0.0,0.0,0.0,0.0,0.0,0.0,0.0,0.0,0.0,0.0,0.0,0.0,0.0,0.0,0.0,0.0,0.0,0.0,0.0,0.0,0.0,0.0,0.0,0.0,0.0,0.0,0.0,0.0,0.0,0.0,0.0,0.0,0.0,0.0,0.0,0.0,0.0,0.0,0.0,0.0,0.0,0.0,0.0,0.0,0.0,0.0,0.0,0.0,0.0,0.0,0.0,0.0,0.0,0.0,0.0,0.0,0.0,0.0,0.0,0.0,0.0,0.0,0.0,0.0,0.0,0.0,0.0,0.0,0.0,0.0,0.0,0.0,0.0,0.0,0.0,0.0,0.0,0.0,0.0,0.0,0.0,0.0,0.0,0.0,0.0,0.0,3.3603,0.0,0.0,0.0,0.0,0.0,0.0,0.0,0.0,0.0,0.0,0.0,0.0,0.0,0.0,0.0,0.0,0.0,0.0,0.0,0.0,0.0,0.0,0.0,0.0,0.0,0.0,0.0,0.0,0.0,0.0,0.0,0.0,0.0,0.0,0.0,0.0,0.0,0.0,0.0,0.0,0.0,0.0,0.0,0.0,0.0,0.0,0.0,0.0,0.0,0.0,0.0,0.0,0.0,0.0,0.0,0.0,0.0,0.0,0.0,0.0,0.0,0.0,0.0,0.0,0.0,0.0,0.0,0.0,0.0,0.0,0.0,0.0,0.0,0.0,0.0,0.0,0.0,0.0,0.0,0.0,0.0,0.0,0.0,0.0,0.0,0.0,0.0,0.0,0.0,0.0,0.0,0.0,0.0,0.0,0.0,0.0,0.0,0.0,0.0,0.0,0.0,0.0,0.0,0.0,0.0,0.0,0.0,0.0,0.0,0.0,0.0,0.0,0.0,0.0,0.0,0.0,3.456,0.0,0.0,0.0,0.0,0.0,0.0,0.0,0.0,0.0,0.0,0.0,0.0,0.0,0.0,0.0,0.0,0.0,0.0,0.0,0.0,0.0,0.0,0.0,0.0,0.0,0.0,0.0,0.0,0.0,0.0,0.0,0.0,0.0,0.0,0.0,0.0,0.0,0.0,0.0,0.0,0.0,0.0,0.0,0.0,0.0,0.0,0.0,0.0,0.0,0.0,0.0,0.0,0.0,0.0,0.0,0.0,0.0,0.0,0.0,0.0,0.0,0.0,0.0,0.0,0.0,0.0,0.0,0.0,0.0,0.0,0.0,0.0,0.0,0.0,0.0,0.0,0.0,0.0,0.0,0.0,0.0,0.0,0.0,0.0,0.0,0.0,0.0,0.0,0.0,0.0,0.0,0.0,0.0,0.0,0.0,0.0,0.0,0.0,0.0,0.0,0.0,0.0,0.0,0.0,0.0,0.0,0.0,0.0,3.4575,3.4634,3.4634,3.5577,3.6035,3.5974,3.5178,3.531,3.6079,3.5795,0.0,0.0,0.0,0.0,0.0,0.0,0.0,0.0,0.0,0.0,0.0,0.0,0.0,0.0,0.0,0.0,0.0,0.0,0.0,0.0,0.0,0.0,0.0,0.0,0.0,0.0,0.0,0.0,0.0,0.0,0.0,0.0,0.0,0.0,0.0,0.0,0.0,0.0,3.4167,3.4167,3.3819,3.3213,3.2661,0.0,0.0,0.0,0.0,0.0,0.0,0.0,0.0,0.0,0.0,0.0,0.0,0.0,0.0,0.0,0.0,0.0,0.0,0.0,0.0,0.0,0.0,0.0,0.0,0.0,0.0,0.0,0.0,0.0,0.0,0.0,0.0,0.0,0.0,0.0,0.0,0.0,0.0,0.0,0.0,0.0,0.0,0.0,3.4982,3.4878,0.0,0.0,0.0,0.0,0.0,0.0,0.0,0.0,0.0,0.0,0.0,0.0,0.0,3.5064,3.5456,3.6044,3.6353,3.6353,3.6808,3.7048,3.7048,3.7202,3.7263,3.7263,3.7139,0.0,3.7255,3.7225,0.0,0.0,0.0,0.0,0.0,0.0,0.0,0.0,0.0,0.0,0.0,0.0,0.0,0.0,0.0,0.0,0.0,0.0,0.0,0.0,0.0,0.0,0.0,0.0,0.0,0.0,0.0,0.0,0.0,0.0,0.0,0.0,0.0,0.0,0.0,0.0,3.4298,3.4399,3.4399,3.4399,3.4254,3.3993,3.3703,3.3213,3.264,3.2703,0.0,0.0,0.0,0.0,0.0,0.0,0.0,0.0,0.0,0.0,0.0,0.0,0.0,0.0,0.0,0.0,0.0,0.0,0.0,0.0,0.0,0.0,0.0,0.0,0.0,0.0,0.0,0.0,0.0,0.0,0.0,0.0,0.0,0.0,0.0,0.0,0.0,0.0,0.0,3.5454,3.5647,3.5514,3.5559,3.5586,0.0,0.0,0.0,0.0,0.0,0.0,0.0,0.0,0.0,3.627,3.6344,3.6687,3.7245,3.7558,3.7903,3.8278,3.8526,3.8618,3.8618,3.8618,3.8618,3.8618,3.8618,3.8618,3.8555,3.7826,3.751,3.751,0.0,0.0,0.0,0.0,3.7772,3.7886,0.0,0.0,0.0,0.0,0.0,0.0,0.0,0.0,0.0,0.0,0.0,0.0,0.0,0.0,0.0,2.6838,0.0,0.0,0.0,0.0,0.0,0.0,0.0,0.0,0.0,0.0,0.0,0.0,3.4399,3.4399,3.4399,3.4399,3.4399,3.4399,3.4399,3.3877,3.3071,3.3071,3.3232,0.0,0.0,0.0,0.0,0.0,0.0,0.0,0.0,0.0,0.0,0.0,0.0,0.0,0.0,0.0,0.0,0.0,0.0,0.0,0.0,0.0,0.0,0.0,0.0,0.0,0.0,0.0,0.0,0.0,0.0,0.0,0.0,0.0,0.0,0.0,0.0,0.0,0.0,3.6182,3.6281,3.6089,3.6139,3.6154,0.0,0.0,0.0,0.0,0.0,0.0,3.7701,3.7763,3.7828,3.8016,3.8016,3.8239,3.8776,3.8776,3.9029,3.9503,3.9503,3.9503,3.9503,3.9503,3.9503,3.9503,3.9503,3.9503,3.9408,3.8397,3.8016,3.8016,3.8016,3.8016,3.8016,3.8016,3.8166,3.8282,0.0,0.0,0.0,0.0,0.0,0.0,0.0,0.0,0.0,0.0,0.0,0.0,0.0,0.0,2.6287,2.6863,2.7903,2.9049,0.0,0.0,0.0,0.0,0.0,0.0,0.0,0.0,0.0,3.4399,3.4399,3.4399,3.4399,3.4399,3.4399,3.4399,3.4399,3.4471,3.461,3.461,3.4647,3.4817,0.0,0.0,0.0,0.0,0.0,0.0,0.0,0.0,0.0,0.0,0.0,0.0,0.0,0.0,0.0,0.0,0.0,0.0,0.0,0.0,0.0,0.0,0.0,0.0,0.0,0.0,0.0,0.0,0.0,0.0,0.0,0.0,0.0,0.0,0.0,0.0,0.0,0.0,0.0,3.6741,3.7118,0.0,0.0,0.0,0.0,3.7447,3.7447,3.7733,3.8428,3.846,3.8744,3.9376,3.9408,3.9408,3.9439,3.9439,3.9471,3.9503,3.9503,3.9503,3.9503,3.9503,3.9503,3.9503,3.9503,3.9503,3.9503,3.9439,3.9408,3.9408,3.9408,3.9408,3.9408,3.9408,3.9408,3.9439,0.0,0.0,0.0,0.0,0.0,0.0,0.0,0.0,0.0,0.0,0.0,0.0,0.0,2.5997,2.6456,2.7343,2.8487,2.9502,3.0272,0.0,0.0,0.0,0.0,0.0,0.0,0.0,3.3785,3.4399,3.4399,3.4399,3.4399,3.4399,3.4399,3.4399,3.4399,3.4462,3.453,3.453,3.4631,3.4802,3.5267,3.5825,0.0,0.0,0.0,0.0,0.0,0.0,0.0,0.0,0.0,0.0,0.0,0.0,0.0,0.0,0.0,0.0,0.0,0.0,0.0,0.0,0.0,0.0,0.0,0.0,0.0,0.0,0.0,0.0,0.0,0.0,0.0,0.0,0.0,0.0,0.0,0.0,0.0,3.7505,3.7496,0.0,3.751,3.7891,3.8144,3.8144,3.8523,3.8713,3.8523,3.9376,3.9756,3.9503,4.0388,4.1083,4.1557,4.1557,4.1778,4.222,4.222,4.222,4.222,4.2189,4.2189,4.222,4.2189,4.1936,4.1557,4.1557,4.0735,3.9503,3.9503,3.9503,3.9503,3.9503,3.9503,3.9503,0.0,0.0,0.0,0.0,0.0,0.0,0.0,0.0,0.0,0.0,0.0,2.5709,2.6069,2.643,2.701,2.7902,2.8887,2.9782,3.0557,0.0,0.0,0.0,0.0,0.0,0.0,3.3317,3.3592,3.4513,3.4513,3.4698,3.5038,3.4835,3.4748,3.4719,3.4516,3.4399,3.4399,3.4399,3.4496,3.4635,3.54,3.6103,3.6783,0.0,0.0,0.0,0.0,0.0,0.0,0.0,0.0,0.0,0.0,0.0,0.0,0.0,0.0,0.0,0.0,0.0,0.0,0.0,0.0,0.0,0.0,0.0,0.0,0.0,0.0,0.0,0.0,0.0,0.0,0.0,0.0,0.0,0.0,0.0,3.7751,3.8062,3.7945,3.7923,3.8144,3.8586,3.8934,3.9187,3.9629,3.9882,3.9914,4.0798,4.1178,4.0925,4.181,4.2537,4.3042,4.3042,4.3263,4.3703,4.3706,4.3706,4.3703,4.3706,4.3706,4.3703,4.3706,4.3453,4.3042,4.3042,4.2189,4.0893,4.0388,4.0198,4.0198,4.0198,4.0198,4.0198,0.0,0.0,0.0,0.0,0.0,0.0,0.0,0.0,0.0,0.0,2.5781,2.6117,2.6142,2.7079,2.7936,2.8548,2.912,2.9935,3.1108,3.1246,0.0,0.0,0.0,0.0,3.2759,3.2767,3.3465,3.4832,3.4832,3.5324,3.6286,3.5712,3.5421,3.5392,3.4748,3.4457,3.4457,3.4457,3.4457,3.4559,3.5494,3.6259,3.6934,0.0,0.0,0.0,0.0,0.0,0.0,0.0,0.0,0.0,0.0,0.0,0.0,0.0,0.0,0.0,0.0,0.0,0.0,0.0,0.0,0.0,0.0,0.0,0.0,0.0,0.0,0.0,0.0,0.0,0.0,0.0,0.0,0.0,3.7947,3.7918,3.8057,3.849,3.8555,3.8839,3.9471,3.9566,3.9914,4.0609,4.0672,4.1272,4.2631,4.2726,4.3042,4.3671,4.3734,4.3766,4.3766,4.3766,4.3766,4.3766,4.3769,4.3769,4.3766,4.3766,4.3766,4.3766,4.3766,4.3734,4.3703,4.3703,4.3703,4.3545,4.2189,4.1652,4.1652,4.1652,4.1652,4.162,0.0,0.0,0.0,0.0,0.0,0.0,0.0,0.0,0.0,0.0,2.6021,2.6406,2.72,2.7498,2.8106,2.9093,2.9705,3.0393,3.1145,0.0,0.0,0.0,0.0,0.0,3.4407,3.4024,3.4504,3.5912,3.5912,3.6034,3.6315,3.6141,3.6054,3.6054,3.588,3.5793,3.5793,3.5793,3.6038,3.6364,3.5687,3.6071,3.7086,0.0,0.0,0.0,0.0,0.0,0.0,0.0,0.0,0.0,0.0,0.0,0.0,0.0,0.0,0.0,0.0,0.0,0.0,0.0,0.0,0.0,0.0,0.0,0.0,0.0,0.0,0.0,0.0,0.0,0.0,0.0,0.0,3.9497,3.8747,3.8446,3.8551,3.9155,3.9692,4.0103,4.0293,4.1209,4.1904,4.2094,4.2568,4.2821,4.2695,4.3611,4.4022,4.3703,4.4682,4.5223,4.5223,4.5223,4.5223,4.5223,4.5223,4.5223,4.5223,4.5223,4.5223,4.5223,4.5223,4.4938,4.4433,4.4433,4.4113,4.364,4.3263,4.3105,4.3137,4.3137,4.2821,4.2315,0.0,0.0,0.0,0.0,0.0,0.0,0.0,0.0,0.0,0.0,2.6502,2.7007,2.7618,2.7921,2.8514,2.9704,3.0088,3.0658,3.1542,0.0,0.0,0.0,0.0,3.3328,3.4251,3.4131,3.4789,3.6221,3.6221,3.651,3.7099,3.6838,3.6722,3.6722,3.6431,3.6315,3.6315,3.6315,3.6746,3.7447,3.6637,3.699,3.8056,3.8747,3.9271,3.9734,4.004,4.0183,4.0249,4.068,0.0,0.0,0.0,0.0,0.0,0.0,0.0,0.0,0.0,0.0,0.0,0.0,0.0,0.0,0.0,0.0,0.0,0.0,0.0,0.0,0.0,0.0,0.0,0.0,4.0498,4.0414,4.0069,3.9659,3.9629,4.0293,4.102,4.1588,4.1873,4.2631,4.3358,4.3959,4.4369,4.4685,4.4875,4.5634,4.5855,4.5476,4.6266,4.6676,4.6676,4.6676,4.6676,4.6676,4.6676,4.6676,4.6676,4.636,4.6234,4.6202,4.5918,4.557,4.5159,4.5159,4.4938,0.0,0.0,0.0,0.0,0.0,4.3453,4.3042,0.0,0.0,0.0,0.0,0.0,0.0,0.0,0.0,0.0,0.0,0.0,2.7714,2.7762,2.8234,2.9013,3.0203,3.0279,3.0898,0.0,0.0,0.0,3.2327,3.3295,3.362,3.3298,3.387,3.4826,3.6278,3.6316,3.6978,3.8202,3.7651,3.7418,3.7389,3.678,3.6519,3.6519,3.659,3.7198,3.8129,3.8196,3.8668,3.9377,4.0418,4.0831,4.0947,4.1238,4.138,4.1413,4.1508,0.0,0.0,0.0,0.0,0.0,0.0,0.0,0.0,0.0,0.0,0.0,0.0,0.0,0.0,0.0,0.0,0.0,0.0,0.0,0.0,0.0,0.0,0.0,0.0,4.0831,4.1115,4.1746,4.1462,4.1336,4.1778,4.2473,4.32,4.3861,4.399,4.4591,4.595,4.6044,4.6582,4.7814,0.0,0.0,0.0,0.0,4.7909,4.7909,4.7909,4.7909,4.7909,4.7909,4.7909,4.7877,4.7214,4.6929,4.6898,4.6297,4.6044,4.6044,4.6044,4.6013,4.5792,4.4429,4.3924,4.3924,4.3829,4.3801,4.3769,0.0,0.0,0.0,0.0,0.0,0.0,0.0,0.0,0.0,2.6681,2.7282,2.7834,2.8306,2.845,2.9013,3.0203,3.0279,3.1055,0.0,0.0,3.2544,3.2925,3.3142,3.3591,3.4286,3.5197,3.6192,3.731,3.7652,3.7936,3.8202,3.8086,3.8028,3.8028,3.7883,3.7825,3.7862,3.8341,3.8955,3.956,4.004,4.0092,3.9876,4.0091,4.048,4.0918,4.0976,4.1181,4.148,4.2075,4.2274,4.2373,4.2969,0.0,0.0,0.0,0.0,0.0,0.0,0.0,0.0,0.0,0.0,0.0,0.0,0.0,0.0,0.0,0.0,0.0,0.0,0.0,0.0,4.2655,4.2717,4.2838,4.3234,4.418,4.4433,4.3387,4.3927,4.4622,4.5349,4.5886,4.655,4.7435,4.7498,4.7624,4.7877,4.7909,4.7909,4.7909,4.7909,4.7909,4.7909,4.7909,4.7909,4.7909,0.0,0.0,4.7909,4.7751,4.7688,4.7688,4.7561,4.7498,4.7498,4.7498,4.715,4.6518,4.5728,4.5412,4.5349,4.4749,4.4527,4.4433,0.0,0.0,0.0,0.0,0.0,0.0,0.0,0.0,0.0,0.0,2.7878,2.8563,2.8514,2.9028,2.9651,3.0241,3.0872,0.0,0.0,3.2381,3.2354,3.2653,3.3251,3.3761,3.4251,3.5554,3.6581,3.7289,3.7711,3.8014,3.8202,3.8202,3.8202,3.8202,3.8202,3.8202,3.824,3.8833,3.9385,3.996,4.0578,4.0782,4.0833,4.0991,4.1241,4.1517,4.188,4.2121,4.2334,4.2874,4.3035,4.3102,4.3466,4.3598,4.3568,0.0,0.0,0.0,0.0,0.0,0.0,0.0,0.0,0.0,0.0,0.0,0.0,0.0,0.0,4.4007,0.0,0.0,4.3912,4.3745,4.4147,4.4545,4.4717,4.5981,4.6329,4.4938,4.5665,4.6455,4.6834,4.715,4.7624,4.8351,4.8383,4.8541,4.8889,4.892,4.892,4.892,4.892,4.892,4.892,4.892,4.892,4.892,4.892,4.892,4.8889,4.8541,4.8383,4.8383,4.8035,4.7909,4.7947,4.8297,4.8226,4.7878,4.792,4.7084,4.576,4.5412,4.5254,4.5223,0.0,0.0,0.0,0.0,0.0,0.0,0.0,0.0,0.0,0.0,0.0,2.9223,2.8736,2.9651,3.0355,0.0,0.0,0.0,0.0,3.2218,3.2218,3.2218,3.3424,3.405,3.3908,3.5691,3.6733,3.6978,3.7481,3.7863,3.8202,3.8202,3.8202,3.8202,3.8202,3.8277,3.8427,3.9017,3.9565,4.013,4.0715,4.1223,4.1621,4.1916,4.2077,4.227,4.2898,4.3143,4.3235,4.3509,4.3598,4.3598,4.3598,4.3598,4.3568,4.3265,4.3386,0.0,0.0,0.0,0.0,0.0,0.0,0.0,0.0,0.0,4.3647,4.3371,4.4115,4.4609,4.401,4.4399,4.4752,4.4537,4.5243,4.5918,4.6171,4.7308,4.7688,4.655,4.7277,4.794,4.8067,4.8098,4.8383,4.9047,4.9078,4.9331,4.986,4.9892,4.9892,4.9892,4.9892,4.9892,4.9892,4.9892,4.9892,4.9892,4.9892,4.9892,4.986,4.9331,4.9078,4.9047,4.8701,4.8517,4.8561,4.9188,4.9414,4.9485,4.9918,4.8676,4.661,4.6482,4.6319,4.6191,0.0,0.0,0.0,0.0,0.0,0.0,0.0,0.0,0.0,0.0,0.0,0.0,0.0,0.0,0.0,0.0,0.0,0.0,0.0,0.0,0.0,0.0,3.3696,3.4327,3.3908,3.6245,3.7289,3.6978,3.7749,3.8165,3.8202,3.8202,3.8202,3.8202,3.8202,3.8501,3.9017,3.96,4.0165,4.0749,4.129,4.1555,4.1588,4.1654,4.2045,4.2585,4.299,4.3295,4.3568,4.3598,4.3598,4.3598,4.3598,4.3598,4.3598,4.3568,0.0,4.3539,4.3204,4.3143,4.3235,4.3539,4.3598,4.3539,0.0,0.0,4.4096,4.4063,4.4684,4.5113,4.4723,4.4723,4.4974,4.5528,4.5697,4.6234,4.7498,4.832,4.8731,4.8573,4.8162,4.813,4.8731,4.8762,4.9078,4.9742,4.9805,4.9797,4.9892,4.9892,4.9892,4.9892,4.9892,4.9892,4.9892,4.9892,4.9892,4.9892,4.9892,4.9892,4.9892,4.9797,4.9805,4.9844,5.0454,5.0725,5.0768,5.0889,5.0946,5.0879,5.0321,4.9922,4.952,4.8893,4.8232,4.7671,0.0,0.0,0.0,0.0,0.0,0.0,0.0,0.0,0.0,0.0,0.0,0.0,0.0,0.0,0.0,0.0,0.0,0.0,0.0,0.0,0.0,0.0,0.0,0.0,0.0,0.0,3.6949,3.7356,3.7901,3.8202,3.8202,3.8202,3.8202,3.8202,3.8202,3.8538,3.9126,3.9672,4.0235,4.0848,4.139,4.1588,4.1621,4.1818,4.2206,4.2585,4.2555,4.2867,0.0,0.0,4.3449,4.3598,4.3598,4.3598,4.3539,4.3143,4.3174,0.0,4.3143,4.341,4.3768,0.0,4.3922,4.3961,4.4039,4.4461,4.4785,4.4593,4.5438,4.5995,4.5235,4.5947,4.655,0.0,4.7056,4.7814,4.8383,4.9078,4.9489,4.9489,4.9236,4.9173,4.9457,4.9489,4.9615,4.99,4.9892,4.9892,4.9892,4.9892,4.9892,4.9892,4.9892,4.9892,4.9892,4.9892,4.9892,4.9892,4.9892,4.9892,4.9892,4.9892,4.9892,4.9931,5.0253,5.0409,5.0493,5.1375,5.1779,5.185,5.2437,5.2393,5.182,5.0226,4.9459,4.9128,0.0,0.0,0.0,0.0,0.0,0.0,0.0,0.0,0.0,0.0,0.0,0.0,0.0,0.0,0.0,0.0,0.0,0.0,0.0,0.0,0.0,0.0,0.0,0.0,0.0,0.0,0.0,0.0,0.0,3.8202,3.8202,3.8202,3.8202,3.8202,3.8352,3.876,3.9379,3.992,4.0478,4.1055,4.1423,4.1588,4.1621,4.198,4.227,4.2428,4.2269,4.2618,0.0,0.0,4.3265,4.3446,4.3446,4.3539,4.3542,4.3157,4.3353,4.3702,4.3702,0.0,0.0,4.4331,4.4331,4.4398,4.4658,4.5212,4.557,4.531,4.6387,4.701,4.5945,4.7015,4.7816,4.7204,4.8257,4.919,4.918,4.978,5.0136,4.9931,4.9892,4.9892,4.9892,4.9892,4.9892,4.9892,4.9892,4.9892,4.9892,4.9892,4.9892,4.9892,4.9892,4.9892,4.9892,4.9892,4.9892,4.9892,5.0097,5.0214,5.0253,5.0454,5.0531,5.057,5.08,5.0876,5.0957,5.2279,5.2838,5.2941,5.4076,5.4184,5.3507,5.1895,5.1061,5.0591,0.0,0.0,0.0,0.0,0.0,0.0,0.0,0.0,0.0,0.0,0.0,0.0,0.0,0.0,0.0,0.0,0.0,0.0,0.0,0.0,0.0,0.0,0.0,0.0,0.0,0.0,0.0,0.0,0.0,0.0,0.0,0.0,3.8202,3.824,3.8797,3.9349,3.9925,4.0543,4.1088,4.1588,4.1588,4.1588,4.1621,4.198,4.2109,4.2174,4.2459,0.0,0.0,0.0,4.3113,4.3113,4.3113,4.3325,0.0,4.4058,4.4685,4.5209,0.0,0.0,4.4755,4.4722,4.4657,4.4722,4.4787,4.5669,4.6453,4.6356,4.7532,4.819,4.7067,4.7688,4.8264,4.7908,4.9064,4.9963,4.9852,5.0531,5.0761,4.9979,4.9892,4.9892,0.0,4.9892,4.9892,4.9892,4.9892,4.9892,4.9892,4.9892,4.9892,4.9892,4.9892,4.9892,4.9892,4.9892,4.9892,4.9931,5.0717,5.1065,5.1065,5.1776,5.2103,5.2172,5.2941,5.3281,5.3349,5.4108,5.4431,5.4431,5.4463,5.4494,5.446,5.4362,5.3432,5.2157,0.0,0.0,0.0,0.0,0.0,0.0,0.0,0.0,0.0,0.0,0.0,0.0,0.0,0.0,0.0,0.0,0.0,0.0,0.0,0.0,0.0,0.0,0.0,0.0,0.0,0.0,0.0,0.0,0.0,0.0,0.0,0.0,0.0,3.824,3.8833,3.9415,3.9925,4.0543,4.1122,4.1588,4.1588,4.172,4.1948,4.2045,4.2397,4.2774,0.0,0.0,0.0,0.0,4.3052,4.3449,4.3449,0.0,4.4395,4.4813,4.5277,4.5537,4.5114,0.0,4.54,4.5096,4.5232,4.5464,4.5743,4.6479,4.7144,4.7342,4.8058,4.8511,4.7999,4.8629,4.926,4.9265,4.9657,5.0297,5.1275,5.122,5.0989,5.0755,5.0717,0.0,0.0,0.0,0.0,4.9892,4.9892,4.9892,4.9892,5.0409,5.0717,5.0717,5.1182,5.141,5.141,5.141,5.141,5.141,5.1704,5.1813,5.1849,5.2101,5.2208,5.2243,5.2491,5.2596,5.2665,5.3449,5.3782,5.3848,5.4463,5.4686,5.4717,5.4776,5.4526,5.3975,0.0,0.0,0.0,0.0,0.0,0.0,0.0,0.0,0.0,0.0,0.0,0.0,0.0,0.0,0.0,0.0,0.0,0.0,0.0,0.0,0.0,0.0,0.0,0.0,0.0,0.0,0.0,0.0,0.0,0.0,0.0,0.0,0.0,0.0,0.0,3.9707,4.027,4.0851,4.129,4.1588,4.1588,4.172,4.1948,4.2045,4.2365,0.0,0.0,0.0,0.0,0.0,0.0,4.3721,4.3776,4.4504,4.5331,4.5601,4.5995,4.6218,4.5495,4.5755,4.6078,4.5699,4.6011,4.6548,4.6902,4.7605,4.8192,4.8321,4.8889,4.9104,4.8353,4.9083,4.9821,4.9854,5.0091,5.0775,5.2004,5.1553,5.1102,5.1102,5.1102,5.0761,0.0,0.0,0.0,5.0331,5.057,5.0729,5.0729,5.122,5.148,5.148,5.1957,5.2208,5.2208,5.2208,5.235,5.263,5.263,5.2769,5.301,5.301,5.3044,5.3112,5.3112,5.3146,5.3247,5.3781,5.3977,5.4009,5.462,5.4873,5.4904,5.4961,5.5053,5.4983,0.0,0.0,0.0,0.0,0.0,0.0,0.0,0.0,0.0,0.0,0.0,0.0,0.0,0.0,0.0,0.0,0.0,0.0,0.0,0.0,0.0,0.0,0.0,0.0,0.0,0.0,0.0,0.0,0.0,0.0,0.0,0.0,0.0,0.0,0.0,0.0,4.0724,4.1294,4.1525,4.1557,4.1588,4.1621,4.1654,4.2013,0.0,0.0,0.0,0.0,0.0,0.0,0.0,0.0,0.0,4.5273,4.6356,4.6389,4.688,4.727,4.6582,4.6652,4.686,4.6477,4.7035,4.777,4.8129,4.8944,4.9517,4.9282,4.9849,4.9907,0.0,0.0,4.9949,4.9717,5.0479,5.1348,5.2148,5.1667,5.1215,0.0,0.0,0.0,0.0,0.0,0.0,5.1215,0.0,5.2172,5.2208,5.2243,5.2279,5.2279,5.2314,5.2314,5.2314,5.2314,5.27,5.3449,5.3449,5.3848,5.4529,5.4529,5.4623,5.4811,5.4811,5.4904,5.4992,5.4992,5.4992,5.4992,5.5022,5.5022,5.5022,5.5022,5.5113,5.5199,0.0,0.0,0.0,0.0,0.0,0.0,0.0,0.0,0.0,0.0,0.0,0.0,0.0,0.0,0.0,0.0,0.0,0.0,0.0,0.0,0.0,0.0,0.0,0.0,0.0,0.0,0.0,0.0,0.0,0.0,0.0,0.0,0.0,0.0,0.0,0.0,3.9296,4.0382,4.0862,4.0893,0.0,4.1753,4.2045,0.0,0.0,0.0,0.0,0.0,0.0,0.0,0.0,0.0,0.0,4.5934,4.6152,4.7242,4.7704,4.7737,4.7236,4.7505,4.777,4.7372,4.79,4.8604,4.8697,4.9097,4.9521,4.9669,4.993,5.0108,0.0,0.0,0.0,5.0792,5.0977,0.0,5.2893,5.291,0.0,5.2803,0.0,5.2489,5.1704,5.2348,0.0,0.0,5.1918,5.1627,5.2172,5.2768,5.3078,5.3078,5.3616,5.3912,5.3912,5.3912,5.4011,5.4239,5.4239,5.4399,5.4717,5.4717,5.4811,5.493,5.493,5.4961,5.4992,5.4992,5.4992,5.5022,5.5109,5.5139,5.5169,5.5294,5.5389,5.5448,0.0,0.0,0.0,0.0,0.0,0.0,0.0,0.0,0.0,0.0,0.0,0.0,0.0,0.0,0.0,0.0,0.0,0.0,0.0,0.0,0.0,0.0,0.0,0.0,0.0,0.0,0.0,0.0,0.0,0.0,0.0,0.0,0.0,0.0,0.0,0.0,3.9091,0.0,0.0,0.0,0.0,0.0,0.0,0.0,0.0,0.0,0.0,0.0,0.0,0.0,0.0,4.5029,4.638,4.6569,4.6542,4.7733,0.0,4.8,4.7605,4.8198,4.8849,4.8322,4.9058,4.9872,4.953,4.9756,5.008,5.0194,5.0278,0.0,5.0114,0.0,0.0,0.0,0.0,0.0,5.3194,5.3074,5.3009,0.0,5.3382,0.0,5.2279,5.2941,5.3382,0.0,5.2872,5.2768,5.318,5.3715,5.3979,5.3881,5.4367,5.4592,5.4494,5.4494,5.4494,5.4494,5.4494,5.4623,5.478,5.478,5.4934,5.5079,0.0,5.5144,5.5204,5.5204,5.5204,5.5204,5.5294,5.5354,5.5354,5.5478,5.5507,5.5507,0.0,0.0,0.0,0.0,0.0,0.0,0.0,0.0,0.0,0.0,0.0,0.0,0.0,0.0,0.0,0.0,0.0,0.0,0.0,0.0,0.0,0.0,0.0,0.0,0.0,0.0,0.0,0.0,0.0,0.0,0.0,0.0,0.0,0.0,0.0,0.0,0.0,0.0,0.0,0.0,0.0,0.0,0.0,0.0,0.0,0.0,0.0,0.0,0.0,0.0,4.5898,4.5771,4.692,4.72,4.7261,4.8089,4.8353,4.8289,4.7933,4.8914,4.9848,4.9236,5.015,5.1055,5.0361,5.0564,5.0846,5.0675,0.0,5.0474,4.9971,5.0161,5.0466,5.0673,0.0,5.1877,5.3225,5.2875,5.2769,5.3483,5.355,5.3247,5.2561,5.3247,5.3719,5.3753,5.4344,5.4629,5.456,5.4717,5.4717,5.4557,5.4686,5.4686,5.4526,5.4494,5.4494,5.4494,5.456,5.4655,5.4811,5.4842,5.4992,5.5229,5.5229,5.5354,5.5507,5.5507,5.5507,5.5507,5.5507,5.5507,5.5507,5.5507,5.5507,5.5507,0.0,0.0,0.0,0.0,0.0,0.0,0.0,0.0,0.0,0.0,3.1511,3.1829,0.0,0.0,0.0,0.0,0.0,0.0,0.0,0.0,0.0,0.0,0.0,0.0,0.0,0.0,0.0,0.0,0.0,0.0,0.0,0.0,0.0,0.0,0.0,0.0,0.0,0.0,0.0,0.0,0.0,0.0,0.0,0.0,0.0,0.0,0.0,0.0,0.0,0.0,4.6316,4.6631,4.7444,4.7866,4.8205,4.8988,4.9192,4.9192,4.9131,4.956,5.004,4.9936,5.0439,5.0939,5.0799,5.0819,0.0,0.0,5.0846,5.0819,5.071,5.1004,5.1286,5.1338,0.0,0.0,0.0,0.0,5.4205,0.0,0.0,0.0,0.0,0.0,0.0,0.0,5.5585,5.5407,5.4783,5.478,5.4842,5.49,5.4683,5.4623,5.4749,5.4592,5.4494,5.4494,5.4686,5.4842,5.4961,5.5079,5.5264,5.5448,5.5448,0.0,5.5507,5.5507,5.5507,5.5507,5.5507,5.5507,5.5507,5.5507,5.5507,5.5507,0.0,0.0,0.0,0.0,0.0,0.0,0.0,0.0,3.1395,3.1307,3.1457,3.1603,3.1865,3.2669,0.0,0.0,0.0,0.0,0.0,0.0,0.0,0.0,0.0,0.0,0.0,0.0,0.0,0.0,0.0,0.0,0.0,0.0,0.0,0.0,0.0,0.0,0.0,0.0,0.0,0.0,0.0,0.0,0.0,0.0,0.0,0.0,0.0,0.0,0.0,0.0,4.6825,4.7684,4.8067,4.8232,4.8499,4.9492,4.9756,4.9756,4.9756,5.0414,5.0997,5.0614,5.099,5.1365,5.0978,0.0,0.0,0.0,5.0873,5.0986,5.1317,0.0,0.0,0.0,0.0,0.0,0.0,0.0,0.0,0.0,0.0,0.0,0.0,0.0,0.0,5.6443,5.6573,5.6324,5.5595,5.5143,5.4961,5.5079,5.49,5.4807,5.4869,5.4807,5.4745,5.4745,5.4873,5.4961,5.5109,5.5169,5.5324,5.5507,5.5507,5.5507,5.5507,5.5507,5.5507,5.5507,5.5507,5.5507,5.5507,5.5507,5.5507,5.5507,0.0,0.0,0.0,0.0,0.0,0.0,0.0,3.1596,3.1682,3.1682,3.168,3.1862,3.2198,3.2642,3.3295,0.0,0.0,0.0,0.0,0.0,0.0,0.0,0.0,0.0,0.0,0.0,0.0,0.0,0.0,0.0,0.0,0.0,0.0,0.0,0.0,0.0,0.0,0.0,0.0,0.0,0.0,0.0,0.0,0.0,0.0,0.0,0.0,0.0,0.0,0.0,4.7232,4.8495,4.8495,4.8665,4.9057,4.9985,5.0278,5.0278,5.0278,5.0983,5.1645,5.1049,5.1329,5.161,5.1013,5.0873,0.0,0.0,5.0873,5.1092,5.1752,0.0,5.2269,0.0,0.0,0.0,0.0,0.0,0.0,0.0,0.0,0.0,0.0,0.0,0.0,5.7302,5.7564,5.7276,5.6272,5.5645,5.5318,5.5294,5.5113,5.5022,5.5053,5.5022,5.4992,5.4992,5.5022,5.5079,5.5199,5.5229,5.5354,5.5507,5.5507,5.5507,5.5507,5.5507,5.5507,5.5507,5.5507,5.5507,5.5507,5.5507,5.5507,5.5507,0.0,0.0,0.0,0.0,0.0,0.0,0.0,3.1966,3.2299,3.2299,3.2734,3.3029,3.3091,3.297,3.314,0.0,0.0,0.0,0.0,0.0,0.0,0.0,0.0,0.0,0.0,0.0,0.0,0.0,0.0,0.0,0.0,0.0,0.0,0.0,0.0,0.0,0.0,0.0,0.0,0.0,0.0,0.0,0.0,0.0,0.0,0.0,0.0,0.0,0.0,0.0,0.0,4.8495,4.8495,4.9486,5.0659,5.0784,0.0,0.0,5.0819,5.0916,5.0978,5.0908,5.0943,5.0978,5.0908,0.0,0.0,5.0873,5.0873,5.1119,5.1864,5.2418,5.3067,0.0,0.0,0.0,0.0,0.0,0.0,0.0,0.0,0.0,0.0,0.0,0.0,5.8456,5.8752,5.8121,5.6493,5.6318,5.6029,5.5513,5.5144,5.5083,5.5169,5.5083,5.4992,5.4992,5.5109,5.5199,5.5199,5.5383,5.5478,5.5507,5.5507,5.5507,0.0,5.5507,5.5507,5.5507,5.5507,5.5507,5.5507,5.5507,5.5507,5.5507,0.0,0.0,0.0,0.0,0.0,0.0,3.1994,3.2247,3.252,3.2841,3.3082,3.3345,3.3713,3.3651,3.3704,0.0,0.0,0.0,0.0,0.0,0.0,0.0,0.0,0.0,0.0,0.0,0.0,0.0,0.0,0.0,0.0,0.0,0.0,0.0,0.0,0.0,0.0,0.0,0.0,0.0,0.0,0.0,0.0,0.0,0.0,0.0,0.0,0.0,0.0,0.0,0.0,0.0,4.8556,4.9644,0.0,0.0,5.0873,5.0873,5.0873,5.0873,5.0873,5.0873,5.0873,5.0873,5.0873,0.0,5.0873,5.0873,5.1259,5.1786,5.2558,5.3274,5.4016,0.0,0.0,0.0,0.0,0.0,0.0,0.0,0.0,0.0,0.0,0.0,5.7971,5.945,5.9619,5.9162,5.8047,5.7066,5.643,5.6174,5.5599,5.5359,5.5383,5.5359,5.5299,5.5299,5.5354,5.5383,5.5383,5.5478,5.5507,5.5507,5.5507,5.5507,0.0,5.5507,5.5507,5.5507,5.5507,5.5507,5.5507,5.5507,5.5507,5.5507,0.0,0.0,0.0,0.0,0.0,3.1966,3.2547,3.2792,3.306,3.3423,3.3604,3.386,3.43,3.4325,3.4325,3.4325,0.0,0.0,0.0,0.0,0.0,0.0,0.0,0.0,0.0,0.0,0.0,3.8849,3.8711,0.0,0.0,0.0,0.0,0.0,0.0,0.0,0.0,0.0,0.0,0.0,0.0,0.0,0.0,0.0,0.0,0.0,0.0,0.0,0.0,0.0,0.0,0.0,0.0,0.0,0.0,0.0,5.0873,5.0873,5.0873,5.0873,5.0873,5.0873,5.0873,5.0873,0.0,0.0,5.0873,5.0873,5.1505,5.2242,5.305,5.3787,5.4559,0.0,0.0,0.0,0.0,0.0,0.0,0.0,0.0,5.5614,0.0,5.7866,5.8822,6.0001,6.0107,5.9861,5.9369,5.8035,5.7087,5.6631,5.6104,5.5718,5.5507,5.5507,5.5507,5.5507,5.5507,5.5507,5.5507,5.5507,5.5507,5.5507,5.5507,5.5507,0.0,5.5507,5.5507,5.5507,5.5507,5.5507,5.5507,5.5507,5.5507,5.5507,0.0,0.0,0.0,0.0,0.0,0.0,0.0,3.3713,3.4075,3.4101,3.4546,3.4883,3.4883,3.4883,3.4883,3.4883,0.0,0.0,0.0,0.0,0.0,0.0,0.0,0.0,0.0,0.0,3.9468,3.9884,3.9501,3.9282,3.9282,0.0,0.0,0.0,0.0,0.0,0.0,0.0,0.0,0.0,0.0,0.0,0.0,0.0,0.0,0.0,0.0,0.0,0.0,0.0,0.0,0.0,0.0,0.0,0.0,0.0,5.0873,5.0873,5.0873,5.0873,5.0873,5.0873,5.0873,5.0873,0.0,0.0,5.0873,5.0873,5.1505,5.2242,5.305,5.3787,5.4559,5.5367,0.0,0.0,0.0,0.0,0.0,0.0,0.0,0.0,5.7436,5.9099,6.0072,6.0107,6.0107,0.0,6.0072,5.9369,5.8246,5.6666,5.6596,5.6245,5.5507,5.5507,5.5507,5.5507,5.5507,5.5507,5.5507,5.5507,5.5507,5.5507,5.5507,5.5507,0.0,5.5507,5.5507,5.5507,5.5507,5.5507,5.5507,5.5507,5.5507,5.5507,0.0,0.0,0.0,0.0,0.0,0.0,0.0,3.4,3.4226,3.4594,3.4787,3.4883,3.4883,3.4883,3.4883,3.4883,0.0,0.0,0.0,0.0,0.0,0.0,0.0,0.0,0.0,0.0,3.9884,4.022,3.9884,3.9703,3.9703,3.9703,3.9703,0.0,0.0,0.0,0.0,0.0,0.0,0.0,0.0,0.0,0.0,0.0,0.0,0.0,0.0,0.0,0.0,0.0,0.0,0.0,0.0,0.0,0.0,0.0,0.0,0.0,5.0873,5.0873,5.0873,5.0873,5.0873,5.0873,5.0873,5.0873,5.0873,5.0873,5.1926,5.2874,5.3148,5.4244,5.5227,5.5472,5.5507,0.0,0.0,0.0,0.0,0.0,0.0,5.7079,0.0,0.0,6.0107,6.0107,6.0107,6.0107,6.0107,5.9861,5.9299,5.8281,5.7158,5.649,5.6245,5.5753,5.5507,5.5507,5.5507,5.5507,5.5507,5.5507,5.5507,5.5507,5.5507,5.5507,5.5507,5.5507,5.5507,5.5507,5.5507,5.5507,5.5507,5.5507,5.5507,5.5507,0.0,0.0,0.0,0.0,0.0,0.0,0.0,3.4399,3.4521,3.4868,3.4883,3.4883,3.4883,3.4883,3.4883,3.4883,0.0,0.0,0.0,0.0,0.0,0.0,0.0,0.0,0.0,3.9645,4.0279,4.0635,4.0377,4.0179,4.0079,4.0179,4.0179,4.0104,4.0319,0.0,0.0,0.0,0.0,0.0,0.0,0.0,4.6214,0.0,0.0,0.0,0.0,0.0,0.0,0.0,0.0,0.0,0.0,0.0,0.0,0.0,5.0873,0.0,0.0,5.0873,5.0873,5.0873,5.0873,5.0873,5.0873,5.0873,5.0873,5.0873,5.213,5.3218,5.3218,5.4454,5.5507,5.5507,5.5507,0.0,0.0,0.0,0.0,5.5324,0.0,0.0,0.0,5.9194,6.0107,6.0107,6.0107,6.0107,6.0107,6.0107,5.9896,5.944,5.7895,5.6912,5.6596,5.5894,5.5507,5.5507,5.5507,5.5507,5.5507,5.5507,5.5507,5.5507,5.5507,5.5507,0.0,5.5507,5.5507,5.5507,5.5507,5.5507,5.5507,5.5507,5.5507,5.5507,0.0,0.0,0.0,0.0,0.0,0.0,0.0,0.0,0.0,3.4939,3.4906,3.4906,3.4906,3.493,3.4954,3.4954,0.0,0.0,0.0,0.0,0.0,0.0,0.0,0.0,0.0,3.9903,4.0659,4.1071,4.0896,4.0731,4.048,4.0754,4.0731,4.048,4.0504,4.0789,4.1256,4.2496,4.3827,4.5128,4.5198,4.5655,0.0,0.0,0.0,0.0,0.0,0.0,0.0,0.0,0.0,0.0,0.0,0.0,0.0,0.0,0.0,0.0,0.0,5.0873,0.0,0.0,5.0873,5.0873,5.0873,5.0873,0.0,5.0978,5.2137,5.3218,5.3289,5.4489,5.5507,5.5507,5.5507,0.0,0.0,5.5507,0.0,0.0,5.6912,0.0,5.7895,5.9229,6.0107,6.0107,6.0107,6.0107,6.0107,6.0107,6.0107,6.0107,5.8667,5.7544,5.6771,5.5999,5.5578,5.5578,5.5543,5.5507,5.5507,5.5507,5.5507,0.0,5.5507,5.5507,5.5507,5.5507,5.5507,5.5507,5.5507,5.5507,5.5507,5.5507,5.5507,5.5507,0.0,0.0,0.0,0.0,0.0,0.0,0.0,0.0,0.0,0.0,3.5128,3.5058,3.5058,3.5339,3.5509,0.0,0.0,0.0,0.0,0.0,0.0,0.0,0.0,0.0,0.0,4.0135,4.114,4.1701,4.1413,4.1311,4.1423,4.1468,4.1432,4.1388,4.1709,4.2235,4.2995,4.4467,4.5294,4.5685,4.6303,4.6659,0.0,0.0,0.0,0.0,4.6566,4.7024,0.0,0.0,0.0,0.0,0.0,0.0,0.0,0.0,5.0873,5.0873,5.0873,0.0,5.0873,5.0873,5.0873,5.0873,0.0,5.0873,5.1049,5.1645,5.2523,5.3394,5.3928,5.484,5.5507,5.5507,0.0,0.0,5.5507,0.0,0.0,5.628,5.7193,5.8035,5.8667,5.9545,6.0107,6.0107,6.0107,6.0107,6.0107,6.0107,6.0107,6.0107,5.9194,5.8632,5.8457,5.7052,5.635,5.6315,5.5788,5.5507,5.5507,5.5507,5.5507,5.5507,5.5507,5.5507,5.5507,5.5507,5.5507,5.5507,5.5507,5.5507,5.5507,5.5507,5.5507,5.5507,0.0,0.0,0.0,0.0,0.0,0.0,0.0,0.0,0.0,0.0,0.0,0.0,0.0,0.0,0.0,0.0,0.0,0.0,0.0,0.0,0.0,0.0,0.0,0.0,3.9294,4.0805,4.1766,4.2065,4.2002,4.1959,4.198,4.2086,4.2086,4.2002,4.2582,4.3272,4.4071,4.5271,4.6021,4.6378,4.6842,0.0,0.0,0.0,0.0,0.0,4.7251,4.7748,0.0,4.9149,4.9886,5.0524,0.0,0.0,0.0,0.0,5.0873,5.0873,5.0873,5.0873,5.0873,5.0873,5.0873,5.0873,5.0873,5.0873,5.1119,5.1856,5.2628,5.3429,5.4173,5.4981,5.5507,0.0,5.5507,0.0,0.0,0.0,5.5788,5.6526,5.7298,5.8141,0.0,5.9685,6.0107,6.0107,6.0107,6.0107,6.0107,6.0107,6.0107,6.0107,5.9721,5.9334,5.9018,5.779,5.7158,5.7158,5.6385,5.5999,5.5999,5.5648,5.5507,5.5507,5.5507,5.5507,5.5507,5.5507,5.5507,5.5507,5.5507,5.5507,5.5543,5.5894,5.5999,5.6069,0.0,0.0,0.0,0.0,0.0,0.0,0.0,0.0,0.0,0.0,0.0,0.0,0.0,0.0,0.0,0.0,0.0,0.0,0.0,0.0,0.0,0.0,0.0,3.9676,4.0055,4.1538,4.2308,4.2348,4.253,4.253,4.2409,4.257,4.2641,4.2624,4.3555,4.4306,4.4943,4.5774,4.6489,4.7111,4.7111,0.0,0.0,0.0,0.0,0.0,0.0,0.0,0.0,5.0294,5.092,5.1376,5.1367,0.0,0.0,0.0,0.0,0.0,5.0873,5.0873,5.0873,5.0873,5.0873,5.0873,5.0873,0.0,0.0,0.0,0.0,0.0,0.0,5.5051,0.0,0.0,0.0,0.0,5.5507,5.5613,5.5964,5.6701,5.7509,0.0,5.9089,5.9721,6.0107,6.0107,6.0107,6.0107,6.0107,6.0107,6.0107,6.0107,6.0107,5.9791,5.9194,5.8386,5.8,5.7965,5.7158,5.6771,5.6771,5.5999,5.5683,5.5683,0.0,0.0,5.5507,5.5507,5.5578,5.5683,5.5683,5.5753,5.5929,5.6561,5.6771,5.6877,0.0,0.0,0.0,0.0,0.0,0.0,0.0,0.0,0.0,0.0,0.0,0.0,0.0,0.0,0.0,0.0,0.0,0.0,0.0,0.0,0.0,0.0,3.9546,4.0159,4.0895,4.1823,4.2389,4.255,4.2589,4.2688,4.2806,4.2825,4.3187,4.3891,4.5389,4.6112,4.6256,4.7087,4.7485,4.7593,4.7593,0.0,0.0,0.0,0.0,0.0,0.0,0.0,0.0,5.0922,5.1227,5.1647,5.164,0.0,0.0,0.0,0.0,0.0,5.0873,5.0873,5.0873,5.0873,5.0873,5.0873,5.0873,5.1365,0.0,0.0,0.0,0.0,0.0,5.5437,5.5507,0.0,0.0,5.5507,0.0,0.0,5.6736,5.7509,0.0,5.9124,5.9861,6.0036,6.0107,6.0107,6.0107,6.0107,6.0107,6.0107,6.0107,6.0107,6.0107,6.0036,5.9931,5.9194,5.8843,5.8808,5.8,5.7614,5.7579,5.6806,5.642,5.6385,0.0,5.5507,5.5507,5.5507,5.5894,5.642,5.642,5.6842,5.7474,5.7579,5.7614,5.7706,0.0,0.0,0.0,0.0,0.0,0.0,0.0,0.0,0.0,0.0,0.0,0.0,0.0,0.0,0.0,0.0,0.0,0.0,0.0,0.0,0.0,3.9948,4.0563,4.1046,4.1442,4.2197,4.2652,4.2749,4.2749,4.2806,4.2901,4.3317,4.3969,4.4802,4.5997,4.6504,4.654,4.7373,4.7699,4.7699,0.0,0.0,0.0,0.0,0.0,0.0,0.0,0.0,0.0,0.0,5.2324,5.2404,5.2377,0.0,0.0,0.0,0.0,0.0,5.0954,5.0873,5.0873,5.0873,5.0873,5.0978,5.14,5.1786,0.0,0.0,0.0,0.0,0.0,0.0,5.5507,5.5507,0.0,5.5507,5.5507,5.6139,5.6912,0.0,0.0,5.9299,6.0036,6.0107,6.0107,6.0107,6.0107,6.0107,6.0107,6.0107,6.0107,6.0107,6.0107,6.0107,6.0107,5.9756,5.958,5.958,5.8808,5.8457,5.8421,5.7614,5.7263,5.7228,0.0,5.6736,5.6736,5.6736,5.6947,5.7293,5.7612,5.7942,5.8391,5.9102,5.9638,6.006,0.0,0.0,0.0,0.0,0.0,0.0,0.0,0.0,0.0,0.0,0.0,0.0,0.0,0.0,0.0,0.0,0.0,0.0,0.0,0.0,3.9804,4.0727,4.1379,4.1777,4.1958,4.2592,4.2901,4.2901,4.2901,4.301,4.3208,4.4186,4.4983,4.5635,4.6432,4.6794,4.683,4.7446,4.7699,4.7699,0.0,0.0,0.0,0.0,0.0,0.0,0.0,0.0,0.0,0.0,0.0,0.0,0.0,0.0,0.0,5.2089,5.1764,5.15,5.1158,5.0981,5.0873,5.0873,5.0873,5.1084,5.1856,5.2172,5.2664,0.0,0.0,0.0,0.0,5.5507,0.0,5.5507,5.5507,5.5507,5.5507,5.6315,5.7122,5.7719,5.8667,5.9475,6.0036,6.0107,6.0107,6.0107,6.0107,6.0107,6.0107,6.0107,6.0107,6.0107,6.0231,6.0294,6.0294,6.045,6.0388,6.0072,5.9545,5.9264,5.9229,5.8457,5.8163,5.828,5.8104,5.8088,5.8172,5.8172,5.8314,5.8515,5.9002,5.9279,5.9586,6.0603,6.1461,6.2112,0.0,0.0,0.0,0.0,0.0,0.0,0.0,0.0,0.0,0.0,0.0,0.0,0.0,0.0,0.0,0.0,0.0,0.0,0.0,0.0,4.0057,4.156,4.1669,4.2031,4.281,4.2865,4.2901,4.2901,4.2901,4.3281,4.4041,4.5599,4.6359,4.6468,4.7265,4.7627,4.7606,4.7699,4.7699,4.772,4.7955,0.0,0.0,0.0,0.0,0.0,0.0,0.0,0.0,0.0,0.0,0.0,0.0,0.0,5.2842,5.254,5.203,5.1576,5.1551,5.1237,5.0873,5.0873,5.0873,5.1084,5.1856,5.2593,5.3331,5.4138,0.0,0.0,0.0,5.5507,5.5507,5.5507,5.5507,5.5507,5.5507,0.0,5.7754,5.779,5.9124,6.0036,6.0072,6.0107,6.0107,6.0107,6.0107,6.0107,6.0107,6.0107,6.0107,6.0107,6.063,6.0933,6.0933,6.1479,6.1221,6.0107,6.0036,6.0001,6.0001,5.9264,5.9183,5.9608,5.8923,5.894,5.9391,5.9391,5.9825,6.0512,6.0566,6.1,6.1661,6.1788,6.2172,6.2645,0.0,0.0,0.0,0.0,0.0,0.0,0.0,0.0,0.0,0.0,0.0,0.0,0.0,0.0,0.0,0.0,0.0,0.0,0.0,0.0,4.1089,4.1669,4.2194,4.2686,4.316,4.2976,4.2901,4.2901,4.3389,4.4295,4.5599,4.6214,4.6757,4.7265,4.7554,4.7699,4.7699,4.7699,4.7968,4.8481,4.8798,4.9415,0.0,0.0,0.0,0.0,0.0,0.0,0.0,0.0,5.4145,5.4017,0.0,5.3889,5.3565,5.3166,5.2806,5.245,5.2149,5.1701,5.1515,5.2359,5.2102,0.0,0.0,5.3331,5.4103,5.4911,5.5297,0.0,0.0,0.0,5.5507,5.5507,5.5507,5.5683,5.6139,5.7122,5.8,5.8492,5.9475,6.0107,6.0107,6.0107,6.0107,6.0107,6.0107,6.0107,6.0107,6.0481,6.0661,6.0661,6.125,6.1564,6.1564,6.1787,6.1676,6.1221,6.1221,6.1221,6.1221,6.0934,6.0906,6.1096,6.0799,6.0801,6.0982,6.0982,6.1163,6.148,6.1813,6.2363,6.2965,6.2965,6.3086,6.3252,0.0,0.0,0.0,0.0,0.0,0.0,0.0,0.0,0.0,0.0,0.0,0.0,0.0,0.0,0.0,0.0,0.0,0.0,4.0093,4.1089,4.1813,4.2085,4.2686,4.3087,4.3178,4.3087,4.3141,4.3432,4.4389,4.5477,4.661,4.6799,4.7259,4.7972,4.785,4.7907,4.8008,4.8263,4.8664,4.9252,4.985,5.0539,0.0,0.0,0.0,0.0,0.0,0.0,0.0,0.0,5.4409,0.0,0.0,0.0,0.0,0.0,5.3367,5.3014,5.2652,5.2219,5.2125,5.3302,0.0,0.0,5.3667,5.407,5.4524,5.5332,5.5507,5.5507,5.5507,0.0,0.0,0.0,5.5507,5.5753,5.649,5.7298,5.8105,5.8913,5.965,6.0107,6.0107,6.0107,6.0167,6.0388,6.0388,6.0481,6.0661,6.1045,6.1279,6.1279,6.1833,6.2129,6.2129,6.235,6.2427,6.2427,6.2427,6.2245,6.1897,6.1897,6.2005,6.2129,6.2129,6.2271,6.2427,6.2427,6.2427,6.2479,6.2831,6.3228,6.3602,6.3602,6.3602,6.3602,0.0,0.0,0.0,0.0,0.0,0.0,0.0,0.0,0.0,0.0,0.0,0.0,0.0,0.0,0.0,0.0,0.0,0.0,4.1596,4.1705,4.2085,4.2865,4.3178,4.3196,4.292,4.3178,4.3723,4.451,4.5847,4.665,4.6907,4.7466,4.8012,4.8605,4.825,4.8288,4.8661,4.9473,4.9806,4.9899,5.1044,5.1988,5.275,0.0,0.0,0.0,0.0,0.0,0.0,0.0,5.4409,5.4409,0.0,0.0,0.0,5.4109,5.3641,5.3099,5.3099,5.2718,5.2503,5.3419,0.0,0.0,5.5079,5.4697,5.4524,5.5367,5.5507,5.5507,5.5507,5.5507,0.0,5.5507,5.5507,5.5788,5.6526,5.7298,5.8136,5.8913,5.9682,6.0139,6.0139,6.0139,6.0356,6.0962,6.1022,6.125,6.1869,6.1897,6.1897,6.1897,6.2417,6.272,6.272,6.3312,6.3602,6.3602,6.3602,6.299,6.1924,6.1924,6.2182,6.272,6.272,6.3025,6.3602,6.3602,6.3602,6.3602,6.3602,6.3602,6.3602,6.3602,6.3602,6.3602,0.0,0.0,0.0,0.0,0.0,0.0,0.0,0.0,0.0,0.0,0.0,0.0,0.0,0.0,0.0,0.0,0.0,0.0,4.1669,4.2414,4.2941,4.316,4.3461,4.3627,4.3742,4.4934,4.5523,4.5388,4.6581,4.7445,4.8108,4.8235,4.8439,4.8605,4.8477,4.8827,4.9473,4.9695,5.0471,5.1525,5.2103,5.2845,5.3571,0.0,0.0,0.0,0.0,0.0,0.0,0.0,0.0,0.0,0.0,0.0,0.0,5.4127,5.3926,5.3717,5.3639,5.3224,5.3301,5.5054,0.0,0.0,0.0,5.6371,0.0,0.0,5.5822,5.5929,5.5566,5.5507,0.0,5.5507,5.6275,5.7192,5.7974,5.9094,6.0136,6.0934,6.1221,6.1365,6.1365,6.1365,6.1451,6.162,6.162,6.1704,6.1897,6.2235,6.2468,6.2468,6.3038,6.3336,6.3336,6.3511,6.3602,6.3602,6.3602,6.3405,6.3123,6.3123,6.3158,6.3336,6.3336,6.3428,6.3602,6.3602,6.3602,6.3602,6.3602,6.3602,6.3602,6.3602,6.3602,6.3602,0.0,0.0,0.0,0.0,0.0,0.0,0.0,0.0,0.0,0.0,0.0,0.0,0.0,0.0,0.0,0.0,0.0,0.0,0.0,0.0,4.3374,4.3441,4.373,4.4103,4.4556,4.6196,4.6867,4.6595,4.746,4.816,4.8767,4.866,4.8732,4.8979,4.9135,4.9598,5.0187,5.0856,5.1712,5.2623,5.3177,5.3678,5.4145,0.0,0.0,0.0,0.0,0.0,0.0,0.0,0.0,0.0,0.0,0.0,0.0,5.4109,5.4,5.3907,5.3813,5.3822,0.0,5.5889,5.604,5.6195,5.757,0.0,0.0,0.0,5.6393,5.6528,5.6174,5.6154,0.0,5.6573,5.7306,5.8196,5.9338,6.0215,6.0982,6.1788,6.1897,6.1897,6.1897,6.1897,6.2005,6.2182,6.2209,6.235,6.2556,6.288,6.3086,6.3086,6.3405,6.3602,6.3602,6.3602,6.3602,6.3602,6.3602,6.3602,6.3602,6.3602,6.3602,6.3602,6.3602,6.3602,6.3602,6.3602,6.3602,6.3602,6.3602,6.3602,6.3602,6.3602,6.3602,6.3602,0.0,0.0,0.0,0.0,0.0,0.0,0.0,0.0,0.0,0.0,0.0,0.0,0.0,0.0,0.0,0.0,0.0,0.0,0.0,0.0,4.3475,4.3747,4.4039,4.4661,4.5556,4.7063,4.7884,4.7958,4.8449,4.882,4.9044,4.8803,4.8996,4.9624,5.0073,5.0518,5.1045,5.2548,5.3224,5.3374,5.4108,5.4409,5.4409,5.4409,0.0,0.0,0.0,0.0,0.0,0.0,0.0,0.0,5.4409,5.4251,5.4109,5.4109,5.3963,5.3794,5.3794,5.4388,5.5206,5.6097,5.6952,0.0,5.7935,5.7582,5.7216,5.7116,0.0,5.7166,5.7116,5.7152,5.7442,5.8192,5.8471,5.9103,6.058,6.0897,6.125,6.195,6.2059,6.2059,6.2059,6.2059,6.2271,6.2745,6.2769,6.3001,6.3579,6.3602,6.3602,6.3602,6.3602,6.3602,6.3602,6.3602,6.3602,6.3602,6.3602,6.3602,6.3602,6.3602,6.3602,6.3602,6.3602,6.3602,6.3602,6.3602,6.3602,6.3602,6.3602,6.3602,6.3602,6.3602,6.3602,6.3602,0.0,0.0,0.0,0.0,0.0,0.0,0.0,0.0,0.0,0.0,0.0,0.0,0.0,0.0,0.0,0.0,0.0,0.0,0.0,0.0,4.3934,4.4033,4.4856,4.6038,4.7537,4.7912,4.8437,4.9112,4.9236,4.9348,4.9412,4.9311,4.9733,5.0429,5.0569,5.1356,5.2698,5.3036,5.3562,5.4146,5.4334,5.4409,5.4409,5.4409,5.4409,0.0,0.0,0.0,0.0,0.0,0.0,0.0,5.4409,5.4323,5.4218,5.4127,5.4018,5.3944,5.3813,5.4388,0.0,0.0,5.7398,5.8454,5.8498,5.8428,5.8105,5.7266,5.7437,5.7606,5.7191,5.7623,5.8119,5.8264,5.9771,6.1031,6.1361,6.2303,6.302,6.3205,6.3242,6.3242,6.3242,6.3242,6.3289,6.3382,6.3405,6.3451,6.3579,6.3602,6.3602,6.3602,6.3602,6.3602,6.3602,6.3602,6.3602,6.3602,6.3602,6.3602,6.3602,6.3602,6.3602,6.3602,6.3602,6.3602,6.3602,6.3602,6.3602,6.3602,6.3602,6.3602,6.3602,6.3602,6.3602,6.3602,0.0,0.0,0.0,0.0,0.0,0.0,0.0,0.0,0.0,0.0,0.0,0.0,0.0,0.0,0.0,0.0,0.0,0.0,0.0,0.0,0.0,4.4834,4.6165,4.7312,4.8176,4.8626,4.9039,4.949,4.949,4.949,4.9527,4.9903,5.0278,5.0745,5.1931,5.2944,5.3808,5.4651,5.5197,5.5573,5.516,5.4972,5.4934,5.4559,5.4409,5.4409,5.4409,0.0,0.0,0.0,0.0,0.0,0.0,0.0,5.429,5.4218,5.4092,5.4094,5.4372,0.0,0.0,5.7138,0.0,5.8698,5.8698,5.8698,5.8551,5.7992,5.8082,5.8172,5.7923,5.8524,5.9221,5.9625,6.1001,6.2123,6.2493,6.3146,6.3602,6.3602,6.3602,6.3602,6.3602,6.3602,6.3602,6.3602,6.3602,6.3602,6.3602,6.3602,6.3602,6.3602,6.3602,6.3602,6.3602,6.3602,6.3602,6.3602,6.3602,6.3602,6.3602,6.3602,6.3602,6.3602,6.3602,6.3602,6.3602,6.3602,6.3602,6.3602,6.3602,6.3602,6.3602,6.3602,6.3602,6.3602,0.0,0.0,0.0,0.0,0.0,0.0,0.0,0.0,0.0,0.0,0.0,0.0,0.0,0.0,0.0,0.0,0.0,0.0,0.0,0.0,0.0,0.0,4.7462,4.8251,4.8401,4.9114,4.949,4.949,4.949,4.9565,4.9715,5.0391,5.0933,5.1405,5.347,5.4559,5.4897,5.6136,5.6662,5.6587,5.5743,5.5368,5.533,5.4634,5.4409,5.4409,5.4409,5.4409,5.4409,5.4409,0.0,0.0,0.0,0.0,5.4308,5.4308,5.4184,5.4205,5.4988,0.0,5.6878,5.8326,5.8698,0.0,5.8698,5.8698,5.8698,5.8698,5.8698,5.8735,5.8884,5.9589,6.0407,6.1261,6.2079,6.2859,6.3527,6.3602,6.3602,6.3602,6.3602,6.3602,6.3602,6.3602,6.3602,6.3602,6.3602,6.3602,6.3602,6.3602,6.3602,6.3602,6.3602,6.3602,6.3602,6.3602,6.3602,6.3602,6.3602,6.3602,6.3602,6.3602,6.3602,6.3602,6.3602,6.3602,6.3602,6.3602,6.3602,6.3602,6.375,6.3825,6.3825,6.3973,6.4048,6.4048,0.0,0.0,0.0,0.0,0.0,0.0,0.0,0.0,0.0,0.0,0.0,0.0,0.0,0.0,0.0,0.0,0.0,0.0,4.4426,0.0,0.0,4.78,4.8063,4.8551,4.9302,4.9452,4.949,4.949,4.949,4.9865,5.0557,5.067,5.1855,5.3921,5.4259,5.5197,5.6512,5.6023,5.5781,5.5706,5.4897,5.4559,5.4559,5.4446,5.4409,5.4409,5.4409,5.4409,5.4409,5.4409,5.4409,0.0,0.0,0.0,5.4308,5.4308,5.42,5.4241,0.0,0.0,5.7583,0.0,5.8698,5.8698,0.0,0.0,5.8698,0.0,5.8698,5.8921,5.9627,6.0444,6.1298,6.2116,6.2933,6.349,6.3602,6.3602,6.3602,6.3602,6.3602,6.3602,6.3602,6.3602,6.3602,6.3602,6.3602,6.3602,6.3602,6.3602,6.3602,6.3602,6.3602,6.3602,6.3602,6.3602,6.3602,6.3602,6.3602,6.3602,6.3602,6.3602,6.3602,6.3602,6.3602,6.3602,6.3602,6.3602,6.3602,6.3676,6.4359,6.4619,6.4753,6.5496,6.5794,6.5794,0.0,0.0,0.0,0.0,0.0,0.0,0.0,0.0,0.0,0.0,0.0,0.0,0.0,0.0,0.0,4.4288,4.4751,4.5244,4.5871,4.6636,4.7425,4.8176,4.8664,4.9114,4.949,4.949,4.949,4.949,4.994,5.0842,5.2097,5.2097,5.2907,5.4446,5.5385,5.6211,5.6887,5.6403,5.6235,5.616,5.5353,5.5015,5.4978,5.4542,5.4409,5.4409,5.4409,5.4409,5.4409,5.4409,5.4409,5.4409,5.4409,0.0,0.0,0.0,5.4625,5.5117,5.6256,5.733,5.8252,0.0,5.8698,5.8698,5.8698,0.0,5.8698,5.8698,5.8698,5.8809,5.9181,6.0333,6.1336,6.167,6.2784,6.3602,6.3602,6.3602,6.3602,6.3602,6.3602,6.3602,6.3602,6.3602,6.3602,6.3602,6.3602,6.3602,6.3602,6.3602,6.3602,6.3602,6.3602,6.3602,6.3602,6.3602,6.3602,6.3602,6.3602,6.3602,6.3602,6.3602,6.3602,6.3602,6.3602,6.3602,6.3639,6.4085,6.427,6.4382,6.5199,6.5534,6.5571,6.5979,6.6091,6.6091,0.0,0.0,0.0,0.0,0.0,0.0,0.0,0.0,0.0,0.0,0.0,0.0,0.0,0.0,0.0,0.0,4.5547,4.6373,4.7237,4.7875,4.8288,4.8514,4.9152,4.949,4.949,4.949,4.9602,4.979,5.0391,5.1571,5.3186,5.3412,5.3921,5.4712,5.6006,5.6682,5.6814,5.6517,5.6387,5.6257,5.5471,5.5152,5.5077,5.4548,5.4303,5.434,5.4357,5.4375,5.4375,5.4392,5.4409,5.4409,5.4409,5.4409,0.0,0.0,0.0,0.0,0.0,0.0,5.8719,5.8698,5.8698,5.8698,0.0,0.0,5.8698,0.0,5.8698,5.8698,5.8698,6.0072,6.1261,6.1484,6.2673,6.3602,6.3602,6.3602,6.3602,6.3602,6.3602,6.3602,6.3602,6.3602,6.3602,6.3602,6.3602,6.3602,6.3602,6.3602,6.3602,6.3602,6.3602,6.3602,6.3602,6.3602,6.3602,6.3602,6.3602,6.3602,6.3602,6.3602,6.3602,6.3602,6.3602,6.3713,6.3951,6.4545,6.4916,6.5236,6.6091,6.6425,6.6425,6.6648,6.6722,6.6722,0.0,0.0,0.0,0.0,0.0,0.0,0.0,0.0,0.0,0.0,0.0,0.0,4.4468,4.5143,4.5608,4.5622,4.6448,4.7274,4.8063,4.8176,4.8551,4.9415,4.949,0.0,4.949,4.949,4.9865,5.0632,5.067,5.1571,5.3224,5.3958,5.4733,5.545,5.5595,5.6083,5.6668,5.5899,5.5508,5.5305,5.4483,5.4184,5.4184,5.4109,5.4109,5.4127,5.4235,5.4308,5.4326,5.4375,5.4409,5.4409,5.4409,5.4409,5.4559,0.0,0.0,0.0,0.0,5.8326,0.0,5.8719,0.0,0.0,0.0,0.0,0.0,0.0,5.8698,5.8698,5.8698,6.0072,6.1447,6.2227,6.3044,6.3602,6.3602,6.3602,6.3602,6.3602,6.3602,6.3602,6.3602,6.3602,6.3602,6.3602,6.3602,6.3602,6.3602,6.3602,6.3602,6.3602,6.3602,6.3602,6.3602,6.3602,6.3602,6.3602,6.3602,6.3602,6.3602,6.3602,6.3602,6.3602,6.3602,6.4048,6.473,6.4768,6.5311,6.6128,6.6945,6.7243,6.7354,6.8097,6.837,6.837,0.0,0.0,0.0,0.0,0.0,0.0,0.0,0.0,0.0,0.0,0.0,0.0,0.0,4.6035,4.6523,4.6523,4.7274,4.8138,4.8964,4.9039,4.9152,4.949,4.949,4.9753,5.0241,5.0278,5.0654,5.148,5.2006,5.2886,5.3958,5.4259,5.477,5.5524,5.5542,5.5619,5.5753,5.4913,5.4521,5.4502,5.4186,5.4036,5.4109,5.4109,5.4109,5.4184,5.4725,5.5003,5.515,5.5692,5.5933,5.5986,5.5986,0.0,0.0,0.0,0.0,0.0,0.0,0.0,0.0,5.8719,5.8698,5.8698,0.0,5.8698,5.8698,5.8698,5.8698,5.8698,5.8698,6.0072,6.1298,6.1596,6.2747,6.3602,6.3602,6.3602,6.3602,6.3602,6.3602,6.3602,6.3602,6.3602,6.3602,6.3602,6.3602,6.3602,6.3602,6.3602,6.3602,6.3602,6.3602,6.3602,6.3602,6.3602,6.3602,6.3602,6.3602,6.3602,6.3602,6.3602,6.3602,6.3639,6.4159,6.4508,6.4842,6.5399,6.6128,6.6945,6.7763,6.8073,6.8134,6.8394,6.8481,6.8481,0.0,0.0,0.0,0.0,0.0,0.0,0.0,0.0,0.0,0.0,0.0,0.0,0.0,0.0,4.7537,4.78,4.8326,4.8889,4.9452,4.949,4.949,4.949,4.9753,5.0128,5.0707,5.0707,5.1233,5.2344,5.2606,5.332,5.4409,5.4375,5.4623,5.5021,5.5023,5.4931,5.482,5.4242,5.4149,5.4392,5.4336,5.4541,5.4858,5.4858,5.4839,5.4951,5.5492,5.5753,5.5957,5.65,5.6743,5.6797,0.0,0.0,0.0,0.0,0.0,0.0,5.8874,0.0,0.0,0.0,0.0,5.8698,5.8698,0.0,0.0,0.0,5.8698,5.8698,5.8698,5.985,6.0853,6.115,6.2339,6.3305,6.3565,6.3602,6.3602,6.3602,6.3602,6.3602,6.3602,6.3602,6.3602,6.3602,6.3602,0.0,6.3602,6.3602,6.3602,6.3602,6.3602,6.3602,6.3602,6.3602,6.3602,6.3602,6.3602,6.3602,6.3602,6.3602,6.375,6.4048,6.4545,6.4953,6.5287,6.6165,6.6982,6.7763,6.8296,6.8481,6.8481,6.8481,6.8481,6.8481,0.0,0.0,0.0,0.0,0.0,0.0,0.0,0.0,0.0,0.0,0.0,0.0,0.0,0.0,0.0,4.9415,4.949,4.949,4.949,4.9527,4.9527,4.9527,5.0316,5.0745,5.0782,5.0782,5.1571,0.0,0.0,0.0,0.0,5.4306,5.4218,5.4091,5.4037,5.4019,5.4019,5.4019,5.441,5.5057,5.5057,5.554,5.6283,5.632,5.6343,5.6384,5.6441,5.6536,5.6631,5.6668,0.0,0.0,0.0,0.0,0.0,0.0,0.0,0.0,0.0,0.0,0.0,0.0,0.0,0.0,5.8698,0.0,0.0,0.0,0.0,0.0,5.8698,5.9367,6.0147,6.1038,6.1856,6.2673,6.3453,6.3565,6.3565,6.3602,6.3602,6.3602,6.3602,6.3602,6.3602,6.3602,6.3602,6.3602,6.3602,6.3602,6.3602,6.3602,6.3602,6.3602,6.3602,6.3602,6.3602,6.3602,6.3602,6.3602,6.3602,6.3602,6.4025,6.4805,6.4805,6.5348,6.6202,6.6982,6.78,6.8481,6.8481,6.8481,6.8481,6.8481,6.8481,6.8481,0.0,0.0,0.0,0.0,0.0,0.0,0.0,0.0,0.0,0.0,0.0,0.0,4.7875,4.8626,4.9227,4.949,4.949,4.949,4.949,5.0053,5.0353,5.0353,5.1142,5.1855,5.251,5.251,5.3036,0.0,0.0,0.0,0.0,0.0,0.0,0.0,5.4634,5.4801,5.4724,5.4724,5.5227,5.601,5.5969,5.61,5.6382,5.6303,5.6303,5.6397,5.6992,5.7238,5.7411,0.0,5.8367,5.8484,0.0,0.0,0.0,0.0,0.0,0.0,5.9177,0.0,0.0,0.0,0.0,0.0,0.0,0.0,0.0,0.0,0.0,0.0,0.0,0.0,0.0,0.0,6.1001,6.1819,6.2636,6.2747,6.297,6.3527,6.3602,6.3602,6.3602,6.3602,6.3602,0.0,6.3602,6.3602,6.3602,6.3602,6.3602,6.3602,6.3602,6.3602,6.3602,6.3602,6.3602,6.3602,6.3602,6.3602,6.3602,6.3602,6.4025,6.4842,6.5496,6.6202,6.6982,6.7205,6.78,6.8481,6.8481,6.8481,6.8481,6.8481,6.8481,6.8481,0.0,0.0,0.0,0.0,0.0,0.0,0.0,0.0,0.0,0.0,0.0,0.0,4.8739,4.9189,4.964,4.9978,5.0016,5.0128,5.0466,5.0954,5.118,5.118,5.2006,5.2682,5.3186,5.3186,5.3599,0.0,0.0,0.0,0.0,0.0,0.0,0.0,0.0,5.5822,5.606,5.606,5.636,5.6846,5.6823,5.7029,5.7367,5.7306,5.7344,5.7458,5.7864,5.8053,5.8209,5.8652,5.894,0.0,0.0,0.0,0.0,0.0,0.0,0.0,0.0,0.0,0.0,0.0,0.0,0.0,5.8885,5.8784,5.8698,0.0,5.8698,0.0,0.0,0.0,0.0,0.0,0.0,6.0555,6.1744,6.219,6.2562,6.3044,6.3416,6.3602,6.3602,6.3602,6.3602,6.3602,6.3602,6.3602,6.3602,6.3602,6.3602,6.3602,6.3602,6.3602,6.3602,6.3602,6.3602,6.3602,6.3602,6.3602,6.3602,6.3951,6.4568,6.5385,6.6239,6.7057,6.78,6.78,6.8097,6.8481,6.8481,6.8481,6.8481,6.8481,6.8481,6.8481,0.0,0.0,0.0,0.0,0.0,0.0,0.0,0.0,0.0,0.0,0.0,0.0,4.964,0.0,0.0,0.0,5.0826,5.111,5.1823,5.1973,5.2011,5.2011,5.2853,5.3303,5.3303,5.3303,0.0,0.0,0.0,0.0,0.0,0.0,0.0,0.0,0.0,0.0,5.7509,5.7621,5.7621,5.7621,5.7621,5.8066,5.8698,5.8698,5.876,5.8859,5.8719,5.8797,5.8859,5.8777,5.8818,0.0,0.0,0.0,0.0,0.0,5.9454,0.0,0.0,0.0,0.0,0.0,0.0,0.0,5.9252,5.9026,5.8825,5.8825,5.8825,0.0,0.0,0.0,0.0,0.0,0.0,0.0,6.0853,6.167,6.219,6.2376,6.3044,6.3527,6.3579,6.3602,6.3602,6.3602,6.3602,6.3602,6.3602,6.3602,6.3602,6.3602,6.3602,6.3602,6.3602,6.3602,6.3602,6.3602,6.3602,6.3653,6.3788,6.447,6.5348,6.6277,6.6982,6.7763,6.8481,6.8481,6.8481,6.8481,6.8481,6.8481,6.8481,6.8481,6.8481,6.8481,4.6749,0.0,0.0,0.0,0.0,0.0,0.0,0.0,0.0,0.0,0.0,0.0,0.0,0.0,0.0,0.0,5.1486,5.149,5.1639,5.2312,5.2724,5.2724,5.3472,5.3938,5.3938,5.3938,0.0,0.0,0.0,0.0,0.0,0.0,0.0,0.0,0.0,0.0,0.0,5.8215,5.8475,5.8475,5.8475,5.8549,5.8698,5.8698,5.8698,5.8756,5.8698,5.8698,5.8739,5.8838,5.8879,5.8899,0.0,0.0,0.0,5.9381,0.0,0.0,0.0,0.0,0.0,0.0,0.0,0.0,5.9754,5.9722,5.9642,0.0,5.958,0.0,0.0,0.0,0.0,0.0,0.0,0.0,0.0,6.0295,6.089,6.2264,6.2562,6.2896,6.3565,6.3602,6.3602,6.3602,6.3602,6.3602,6.3602,6.3602,6.3602,6.3602,6.3602,6.3602,6.3602,6.3602,6.3602,6.3602,6.3602,6.3936,6.4545,6.473,6.5645,6.7094,6.7243,6.7763,6.8481,6.8481,6.8481,6.8481,6.8481,6.8481,6.8481,6.8481,6.8481,6.8481,4.7612,0.0,0.0,0.0,0.0,0.0,0.0,0.0,0.0,0.0,0.0,0.0,0.0,0.0,0.0,0.0,0.0,0.0,0.0,0.0,5.3493,5.3493,5.3867,5.4296,5.4689,5.4689,0.0,0.0,0.0,0.0,0.0,0.0,0.0,0.0,0.0,0.0,0.0,0.0,5.8698,5.8698,5.8698,5.8698,5.8698,5.8698,5.8698,5.8698,5.8698,5.8698,5.8698,5.8797,5.8818,0.0,5.8842,5.8965,5.9159,0.0,5.9588,5.983,0.0,0.0,0.0,6.0469,0.0,0.0,0.0,6.0027,5.9908,5.9863,5.9847,5.9832,5.9839,0.0,0.0,0.0,0.0,0.0,0.0,0.0,0.0,6.1076,6.1558,6.2116,6.2933,6.3007,6.3193,6.3565,6.3602,6.3602,6.3602,6.3602,6.3602,6.3602,6.3602,6.3602,6.3602,6.3602,6.3602,6.3602,6.3988,6.4396,6.4828,6.5859,6.6694,6.7341,6.8122,6.8622,6.8832,6.9019,6.9106,6.9063,6.866,6.8481,6.8481,6.8481,6.8481,6.853,4.8438,0.0,0.0,0.0,0.0,0.0,0.0,0.0,0.0,0.0,0.0,0.0,0.0,0.0,0.0,0.0,0.0,0.0,0.0,0.0,5.4335,5.4522,5.4522,5.482,5.5492,5.5492,5.5828,0.0,0.0,0.0,0.0,0.0,0.0,0.0,0.0,0.0,0.0,0.0,5.8698,5.8698,5.8698,5.8698,5.8698,5.8698,5.8698,5.8698,5.8698,5.8698,5.8698,5.8698,5.8739,5.8801,5.8719,5.8967,0.0,0.0,0.0,0.0,0.0,0.0,0.0,0.0,0.0,6.0326,0.0,0.0,0.0,6.0113,6.0113,0.0,0.0,0.0,0.0,0.0,0.0,0.0,0.0,0.0,0.0,6.0099,6.0733,6.1437,6.2209,6.2345,6.2769,6.3639,6.3647,6.3624,6.3736,6.3647,6.3602,6.3602,6.3602,6.3602,6.3602,6.375,6.3802,6.3862,6.4733,6.5262,6.5471,6.7225,6.79,6.783,6.9144,6.9508,6.9261,6.9567,6.9702,6.9625,6.8975,6.8717,6.8717,6.8717,6.8717,6.8763,4.934,4.9415,0.0,0.0,0.0,0.0,0.0,0.0,0.0,0.0,0.0,0.0,0.0,0.0,0.0,0.0,0.0,0.0,5.4873,0.0,0.0,5.6025,5.6063,5.61,5.6174,5.6211,5.6249,0.0,0.0,0.0,0.0,0.0,0.0,0.0,5.8661,0.0,0.0,0.0,5.8698,5.8698,5.8698,5.8698,0.0,5.8698,5.8698,5.8698,5.8698,5.8698,5.8698,0.0,5.8905,5.9084,0.0,5.9178,5.9723,5.976,0.0,0.0,0.0,0.0,0.0,0.0,6.0972,0.0,0.0,0.0,6.0943,6.0892,0.0,0.0,0.0,0.0,0.0,0.0,0.0,0.0,0.0,0.0,0.0,6.0812,6.0963,6.1238,6.1748,6.2146,6.2886,6.4033,6.3786,6.3742,6.4108,6.3786,6.3602,6.3602,6.3602,6.3602,6.3602,6.4285,6.4656,6.4679,6.5908,6.6871,6.7584,6.8184,6.8793,6.9454,6.9626,6.9664,6.9625,6.9683,6.9702,6.9683,6.9587,6.9548,6.9548,6.9548,6.9548,6.9567,5.0263,5.0118,0.0,0.0,0.0,0.0,0.0,0.0,0.0,0.0,0.0,0.0,0.0,5.4837,5.5339,5.5339,0.0,5.5391,0.0,0.0,0.0,0.0,5.632,5.6506,5.6989,5.6989,5.7249,0.0,5.7695,0.0,0.0,0.0,0.0,0.0,5.8801,0.0,5.8698,0.0,5.8698,0.0,0.0,5.8995,0.0,5.8884,5.8995,5.9478,5.9961,6.0147,6.0147,0.0,6.0364,0.0,0.0,0.0,0.0,6.0492,0.0,0.0,0.0,0.0,0.0,0.0,0.0,0.0,6.1032,0.0,6.107,0.0,0.0,0.0,0.0,0.0,0.0,0.0,6.0635,0.0,0.0,0.0,0.0,0.0,0.0,0.0,6.1896,6.2636,6.3426,6.4407,6.4331,6.4311,6.4483,6.4131,6.3958,6.3958,6.3698,6.3736,6.3958,6.4764,6.5266,6.5512,6.7029,6.792,6.826,6.9165,6.9581,6.9721,7.0167,7.0271,7.0064,7.0304,7.0385,7.0385,7.0385,7.0099,6.9702,6.9702,6.9702,6.974,5.2019,0.0,0.0,0.0,0.0,0.0,5.3196,5.3347,5.3683,5.4205,5.4987,0.0,5.5354,5.5912,0.0,0.0,5.632,5.6395,0.0,0.0,5.6729,0.0,0.0,0.0,0.0,5.7843,5.8165,0.0,0.0,0.0,0.0,0.0,0.0,0.0,0.0,5.8801,5.8698,0.0,5.8764,5.8735,5.8958,5.9515,6.0184,5.9627,5.9775,6.0333,6.0964,6.1187,6.1187,6.1187,6.1453,0.0,6.145,6.1487,6.1599,0.0,0.0,0.0,6.1473,0.0,0.0,0.0,0.0,0.0,0.0,0.0,0.0,0.0,0.0,0.0,0.0,0.0,0.0,0.0,0.0,6.0913,0.0,0.0,0.0,0.0,0.0,0.0,0.0,6.2703,6.352,6.4419,6.4655,6.4751,6.4854,6.4538,6.4349,6.4349,6.4029,6.4142,6.4688,6.5498,6.6182,6.6688,6.8238,6.8975,6.9031,6.9999,7.0304,7.0047,7.0661,7.0734,7.0501,7.0777,7.0898,7.0898,7.0898,7.0547,7.0012,7.0012,7.0012,7.0064,5.5006,5.4521,0.0,0.0,0.0,5.4055,5.3963,5.4539,5.4946,5.4946,5.5726,0.0,5.6246,0.0,0.0,0.0,0.0,5.6617,5.7398,0.0,5.7806,0.0,0.0,5.8661,0.0,0.0,0.0,0.0,0.0,0.0,0.0,0.0,0.0,0.0,0.0,5.9006,5.8719,5.9064,5.9006,5.8772,5.9552,6.0407,6.115,0.0,6.115,6.115,6.1187,0.0,0.0,6.1187,6.1653,0.0,0.0,0.0,0.0,0.0,0.0,0.0,0.0,0.0,0.0,6.2055,0.0,0.0,0.0,0.0,6.1018,0.0,0.0,0.0,0.0,0.0,0.0,0.0,0.0,0.0,0.0,0.0,0.0,0.0,0.0,0.0,0.0,6.1961,6.2748,6.394,6.4432,6.4854,6.5268,6.4888,6.4681,6.4681,6.4681,6.5098,6.595,6.6727,6.7561,6.8432,6.968,7.0266,7.0266,7.0666,7.0885,7.0871,7.0885,7.0898,7.0885,7.0898,7.0898,7.0898,7.0898,7.0885,7.0871,7.0871,7.0871,7.0871,0.0,0.0,0.0,0.0,5.5937,5.5544,5.5524,5.5708,5.5874,5.5874,5.658,5.71,0.0,5.7583,5.7881,0.0,0.0,5.7992,5.8289,5.8289,0.0,0.0,0.0,5.8698,0.0,0.0,0.0,0.0,0.0,0.0,0.0,0.0,0.0,0.0,0.0,5.952,0.0,0.0,0.0,0.0,0.0,6.1744,6.2004,0.0,6.2004,6.2122,6.2907,6.3198,0.0,6.3425,6.383,6.4203,6.3813,6.3917,6.4065,6.3705,6.3447,6.3308,0.0,0.0,6.2897,6.2882,0.0,0.0,0.0,0.0,0.0,0.0,0.0,0.0,0.0,0.0,0.0,0.0,0.0,0.0,0.0,0.0,0.0,0.0,0.0,0.0,0.0,0.0,0.0,6.432,6.5095,6.5542,6.5676,6.5314,6.5089,6.5089,6.4837,6.5238,6.6401,6.7202,6.8155,6.9329,7.0239,7.0705,7.0719,7.0857,7.0898,7.0898,7.0898,7.0898,7.0898,7.0898,7.0898,7.0898,7.0898,7.0898,7.0898,7.0898,7.0898,7.0898,5.7398,0.0,0.0,0.0,5.7289,5.6617,5.6357,5.6543,5.6729,5.6729,5.7435,0.0,5.7918,0.0,5.8698,0.0,5.8698,5.8698,5.8698,5.8698,0.0,5.8698,5.8698,5.8698,0.0,0.0,0.0,0.0,0.0,5.9788,0.0,0.0,0.0,0.0,0.0,5.9922,5.9809,5.9975,6.0184,0.0,0.0,6.2764,0.0,0.0,6.3135,6.3142,0.0,6.4271,6.4407,6.4628,6.4976,6.5253,6.5009,6.4976,6.5013,6.475,6.4448,6.4205,6.4205,6.4012,0.0,6.3782,6.3537,0.0,6.3341,0.0,6.3284,0.0,0.0,0.0,0.0,0.0,0.0,0.0,0.0,0.0,0.0,6.099,0.0,0.0,0.0,0.0,0.0,0.0,6.3538,6.4089,6.5243,6.5897,0.0,6.5649,6.5499,6.5499,6.5536,6.6109,6.7237,6.8042,6.9026,7.0129,7.0667,7.0898,7.0898,7.0898,7.0898,7.0898,7.0898,7.0898,7.0898,7.0898,7.0898,7.0898,7.0898,7.0898,7.0898,7.0898,7.0898,7.0937,5.7583,5.8178,5.8698,5.8661,5.8029,5.7286,5.6469,5.7063,5.7583,5.7583,5.8252,5.8698,5.8698,5.8735,5.8772,5.8772,5.8809,5.8846,5.8846,5.8772,0.0,0.0,5.8735,5.8698,5.8698,0.0,0.0,0.0,0.0,0.0,0.0,0.0,0.0,0.0,6.0321,0.0,6.0004,6.1071,6.1153,6.0774,6.2371,6.3498,6.4251,6.4649,6.4558,6.4307,6.4269,6.4502,6.481,6.4789,6.5101,6.5429,6.5429,6.5723,6.6013,6.6013,6.5974,6.5974,6.5974,6.532,6.4666,6.4666,6.4051,0.0,0.0,0.0,6.3447,0.0,0.0,0.0,0.0,0.0,0.0,0.0,0.0,0.0,0.0,0.0,0.0,0.0,0.0,0.0,0.0,6.2394,6.332,6.3346,6.4936,0.0,0.0,6.5897,6.5897,6.5897,6.6667,6.7513,6.8385,6.9244,7.009,7.0898,7.0898,7.0898,7.0898,7.0898,7.0898,7.0898,7.0898,7.0898,7.0898,7.0898,7.0898,7.0898,7.0898,7.0898,7.0898,7.0898,7.0937,7.1091,5.8401,5.8549,5.8512,5.7918,5.8141,5.8141,5.7323,5.7881,0.0,0.0,5.8586,5.8698,5.8698,5.9255,5.9568,5.9568,6.0184,0.0,0.0,0.0,0.0,5.9568,5.9032,5.8698,5.8698,5.9045,5.9397,5.9809,0.0,0.0,6.0781,0.0,0.0,0.0,0.0,0.0,6.1505,6.151,6.1979,6.2834,6.3855,6.4367,6.4649,0.0,6.5807,6.5884,6.5237,6.5476,6.6138,6.6418,6.6968,6.7599,6.7599,6.7678,6.7782,6.7782,6.7282,6.6782,6.6782,6.6205,6.5551,6.5551,6.5397,6.5243,0.0,0.0,0.0,0.0,0.0,0.0,0.0,0.0,0.0,0.0,0.0,0.0,0.0,0.0,0.0,6.1958,0.0,0.0,6.1797,6.2748,6.3599,6.4205,6.5282,0.0,0.0,0.0,6.5897,6.5897,6.6667,6.7513,6.8385,6.9244,7.009,7.0898,7.0898,7.0898,7.0898,7.0898,7.0898,7.0898,7.0898,7.0898,7.0898,7.0898,7.0898,7.0898,7.0898,7.0898,7.0898,7.0898,7.1321,7.1898,5.8178,5.8475,5.8549,5.8103,0.0,0.0,5.8103,5.8401,0.0,5.8698,5.9032,0.0,5.9218,5.9961,6.0481,6.0481,6.0927,0.0,6.1187,0.0,0.0,6.0481,6.0149,5.9841,5.9505,5.996,0.0,6.003,0.0,0.0,6.0781,0.0,0.0,0.0,0.0,6.182,6.2615,6.2599,6.3246,6.4345,6.5182,6.5525,0.0,6.664,6.7194,6.7305,6.6845,6.696,6.741,6.7614,6.7975,6.8385,6.8385,6.8385,6.8385,6.8385,6.8052,6.7667,6.7667,6.7359,6.6974,6.6974,6.6974,6.6898,6.6513,6.6397,6.6205,0.0,6.5166,6.5013,0.0,0.0,0.0,0.0,0.0,0.0,0.0,0.0,0.0,0.0,6.2846,0.0,6.3301,6.3696,6.4126,6.4551,6.5397,0.0,0.0,0.0,6.6051,6.6397,6.7244,6.809,6.8975,6.9821,7.0437,7.0898,7.0898,7.0898,7.0898,7.0898,7.0898,7.0898,7.0898,7.0898,7.0898,7.0898,7.0898,7.0937,7.1321,7.1475,7.1514,7.1898,7.2091,7.2283,5.7658,5.8215,5.8698,0.0,0.0,0.0,0.0,5.8884,0.0,5.8884,0.0,6.0072,6.0072,6.0853,6.1373,6.1373,6.1447,6.1521,6.1521,6.141,6.1373,6.1373,6.1548,6.1317,6.068,6.1267,6.1258,0.0,0.0,0.0,0.0,0.0,0.0,0.0,0.0,0.0,0.0,6.4043,6.4747,6.5588,6.6368,6.6712,6.6972,6.815,6.8577,6.859,6.8706,6.8667,6.8577,6.8577,6.8629,6.8744,6.8744,6.8744,6.8744,6.8744,6.8667,6.8577,6.8577,6.8513,6.8385,6.8385,6.8385,6.8205,6.7436,6.7282,6.7051,6.6359,6.6128,6.6051,6.6051,0.0,0.0,0.0,0.0,0.0,0.0,0.0,0.0,0.0,0.0,0.0,6.4816,6.471,6.4691,6.4794,0.0,0.0,0.0,0.0,6.6282,6.7051,6.7936,6.8821,6.9706,7.0514,7.0898,7.0898,7.0898,7.0898,7.0898,7.0898,7.0898,7.0898,7.0898,7.0898,7.0898,7.0898,7.0975,7.1168,7.2014,7.236,7.2476,7.336,7.3168,7.2745,5.8512,5.8624,0.0,0.0,0.0,5.8921,5.9568,5.9701,5.9701,5.9701,6.0444,6.0964,6.0964,6.1707,6.219,6.219,6.2822,0.0,0.0,0.0,0.0,6.219,6.1586,6.1334,6.1487,6.1888,6.2176,0.0,0.0,0.0,0.0,0.0,0.0,0.0,0.0,0.0,6.4436,6.5231,0.0,6.6794,6.6947,6.7447,6.8177,6.9102,6.9475,6.9552,7.0206,7.0052,6.9475,6.9475,6.9898,7.0475,7.0475,7.0475,7.0475,7.0475,6.9975,6.9475,6.9475,6.8936,6.8385,6.8385,6.8385,6.8359,6.8205,6.8167,6.8129,6.8013,6.7398,6.6898,6.6898,0.0,0.0,0.0,0.0,0.0,0.0,0.0,0.0,0.0,0.0,6.4602,0.0,6.4794,6.503,0.0,0.0,0.0,0.0,0.0,6.6282,0.0,6.7936,6.8821,0.0,0.0,7.0898,7.0898,7.0898,7.0898,7.0898,7.0898,7.0898,7.0898,7.0898,7.0898,7.0898,7.0898,7.1321,7.2052,7.2937,7.3283,7.336,7.4207,7.4399,7.4322,5.8698,0.0,0.0,0.0,0.0,0.0,0.0,6.0927,6.1076,6.063,6.1298,6.1819,6.1819,6.2562,6.3044,6.3044,6.3379,6.3602,6.3602,6.3267,6.3044,6.3044,6.2876,6.2721,6.2634,6.2964,6.3123,6.3052,0.0,0.0,0.0,0.0,0.0,0.0,0.0,6.4897,0.0,0.0,0.0,6.7167,6.809,6.8706,6.9167,7.0014,7.0321,7.036,7.0744,7.0667,7.0321,7.0321,7.0591,7.0898,7.0898,7.0898,7.0898,7.0898,7.0629,7.0321,7.0321,7.0014,6.9706,6.9706,6.9706,6.959,6.9167,6.909,6.8936,6.8513,6.809,6.7782,6.7782,6.7141,0.0,0.0,0.0,0.0,0.0,0.0,0.0,0.0,0.0,0.0,0.0,0.0,0.0,0.0,0.0,0.0,0.0,0.0,6.6898,0.0,0.0,0.0,7.0321,0.0,7.0898,7.0898,7.0898,7.0898,7.0898,7.0898,7.0898,7.0898,7.0898,7.1168,7.1591,7.2052,7.2514,7.2976,7.3822,7.413,7.4207,7.5053,7.5361,7.5361,5.8921,5.8958,0.0,0.0,6.0163,6.0481,6.1336,6.2004,6.219,6.1558,6.2153,6.2673,6.2673,6.323,6.3676,6.3862,6.3839,6.3839,6.3839,6.3839,6.3833,6.3736,6.4025,6.4105,6.3892,6.4152,6.4144,0.0,0.0,0.0,0.0,0.0,0.0,0.0,0.0,0.0,0.0,0.0,6.7321,6.7782,6.9167,6.9821,7.0014,7.0667,7.0898,7.0898,7.0898,7.0898,7.0898,7.0898,7.0898,7.0898,7.0898,7.0898,7.0898,7.0898,7.0898,7.0898,7.0898,7.0898,7.0898,7.0898,7.0898,7.0744,7.009,6.9975,6.9744,6.909,6.8821,6.8629,6.8423,6.7898,0.0,0.0,0.0,0.0,0.0,0.0,0.0,0.0,0.0,0.0,6.599,0.0,0.0,0.0,0.0,0.0,6.6128,0.0,0.0,0.0,0.0,7.009,7.0898,0.0,7.0898,7.0898,7.0898,7.0898,7.0898,7.0898,7.1014,7.1168,7.1168,7.1668,7.2552,7.3399,7.3783,7.386,7.4668,7.4976,7.5053,7.5745,7.6015,7.6015,0.0,0.0,0.0,0.0,0.0,6.1373,6.2153,6.2339,6.2376,6.2301,6.3007,6.349,6.349,6.3565,6.3876,6.4619,6.4693,6.4693,6.4693,6.4693,6.4525,6.4166,6.4189,6.4501,6.5123,6.5169,6.5331,0.0,0.0,6.5243,0.0,0.0,0.0,0.0,0.0,0.0,0.0,6.7051,6.8013,6.9475,6.9629,7.0129,7.0783,7.086,7.0898,7.0898,7.0898,7.0898,7.0898,7.0898,7.0898,7.0898,7.0898,7.0898,7.0898,7.0898,7.0898,7.0898,7.0898,7.0898,7.0898,7.0898,7.0898,7.0898,7.0783,7.0783,7.0744,7.0667,7.009,6.936,6.8552,6.8359,6.8282,0.0,0.0,0.0,0.0,0.0,0.0,0.0,0.0,0.0,0.0,6.6008,0.0,0.0,6.6358,0.0,0.0,0.0,0.0,6.9513,6.9667,7.009,7.0898,7.0898,7.0898,7.0898,7.0898,7.0898,7.0898,7.0898,7.1321,7.2091,7.2091,7.2552,7.3437,7.4245,7.4591,7.4668,7.5553,7.5861,7.5899,7.5976,7.6015,7.6015,0.0,0.0,0.0,0.0,0.0,0.0,0.0,6.3862,6.4048,6.4568,6.4456,6.4531,6.5051,6.5125,6.5236,6.5571,6.5571,6.5571,6.5571,6.5807,6.5881,6.5732,6.5916,6.6307,6.6789,6.6346,6.6265,0.0,0.0,0.0,0.0,0.0,0.0,0.0,0.0,6.759,6.7898,6.8436,6.9052,6.9744,7.0244,7.0591,7.0898,7.0898,7.0898,7.0898,7.0898,7.0898,7.0898,7.0898,7.0898,7.0898,7.0898,7.0898,7.0898,7.0898,7.0898,7.0898,7.0898,7.0898,7.0898,7.0898,7.0898,7.0898,7.0898,7.0898,7.0898,7.0898,7.0629,7.0321,6.9975,6.9513,6.9167,6.9167,0.0,0.0,0.0,0.0,0.0,0.0,0.0,0.0,0.0,0.0,0.0,0.0,0.0,0.0,0.0,0.0,0.0,6.9667,0.0,7.0552,7.0898,7.0898,7.0898,7.0898,7.0898,7.1168,7.1668,7.1668,7.2168,7.3014,7.3476,7.3899,7.4284,7.513,7.5476,7.5515,7.5861,7.6015,7.6015,7.6015,7.6015,7.6015,6.1521,0.0,6.1893,0.0,6.3119,6.3602,6.4953,6.5176,6.5496,6.6351,6.5942,6.5682,6.6054,6.6091,6.6202,6.6425,6.6565,6.6657,6.6657,6.7004,6.716,6.7013,6.7293,0.0,6.7974,6.7438,6.7233,6.7475,6.6898,0.0,0.0,0.0,0.0,0.0,6.8129,6.8552,6.8821,6.9436,6.986,7.009,7.0667,7.0898,7.0898,7.0898,7.0898,7.0898,7.0898,7.1052,7.1283,7.1283,7.1437,7.1591,7.1052,7.0898,7.0898,7.0898,7.0898,7.0898,7.0898,7.0898,7.0898,7.0898,7.0898,7.0898,7.0898,7.0898,7.0898,7.0898,7.0898,7.0898,7.0898,7.0437,7.0052,7.0052,0.0,0.0,0.0,6.8936,0.0,0.0,6.8552,6.8385,6.8385,6.8385,0.0,0.0,0.0,0.0,0.0,0.0,0.0,0.0,0.0,0.0,7.0898,7.0898,7.0898,7.0898,7.1168,7.1591,7.2206,7.2706,7.3283,7.3899,7.4707,7.5091,7.513,7.5745,7.6015,7.6015,7.6015,7.6015,7.6015,7.6015,7.6015,7.6015,6.2227,6.2413,6.2896,6.447,6.4768,6.5088,6.5942,6.6091,6.6388,6.7205,6.728,6.6982,6.6202,6.6091,6.6425,6.7243,6.7666,6.7889,6.7889,6.8241,6.8253,0.0,0.0,6.7974,6.8385,6.8385,6.8385,6.8385,0.0,0.0,6.709,0.0,6.7552,6.8385,6.8385,6.8898,6.9667,6.9706,7.0167,7.0898,7.0898,7.0898,7.0898,7.0898,7.0898,7.0898,7.0898,7.1437,7.2168,7.2168,7.2745,7.3168,7.1437,7.0898,7.0898,7.0898,7.0898,7.0898,7.0898,7.0898,7.0898,7.0898,7.0898,7.0898,7.0898,7.0898,7.0898,7.0898,7.0898,7.0898,7.0898,7.0898,7.0898,7.0898,0.0,0.0,0.0,0.0,0.0,6.9667,6.8936,6.8385,6.8385,6.8385,0.0,0.0,0.0,0.0,0.0,0.0,0.0,7.086,7.0898,0.0,7.0898,7.0898,7.0898,7.0898,7.1783,7.2168,7.2245,7.3899,7.4668,7.4745,7.563,7.5976,7.5976,7.6015,7.6015,7.6015,7.6015,7.6015,7.6015,7.6015,7.6015,7.6015,6.3899,6.4025,6.4419,6.5496,6.5682,6.5979,6.6797,6.6945,6.7323,6.8376,6.8533,6.8532,6.8549,6.8318,6.8366,0.0,6.9051,6.913,0.0,6.9507,6.9671,6.9518,6.9773,6.9956,7.009,6.959,6.9283,6.9283,0.0,0.0,0.0,6.859,6.9013,6.9321,6.986,7.0244,7.0514,7.0514,7.0667,7.0898,7.0898,7.0898,7.0975,7.1552,7.1783,7.186,7.2476,7.286,7.3091,7.3091,7.3283,7.3399,7.286,7.2668,7.2668,7.2668,7.2668,7.2668,7.2668,7.2668,7.2668,7.2668,7.2668,7.2668,7.2668,7.2206,7.1629,7.1014,7.0898,7.0898,7.0898,7.0898,7.0898,7.0898,7.0898,0.0,7.0898,0.0,7.0514,7.0514,7.0283,7.009,7.009,7.009,0.0,0.0,0.0,0.0,0.0,0.0,0.0,0.0,7.0898,0.0,7.0898,7.1475,7.1783,7.1783,7.2668,7.336,7.3937,7.5053,7.5592,7.5592,7.5861,7.6015,7.6015,7.6015,7.6015,7.6015,7.6015,7.6015,7.6015,7.6015,7.6015,7.6015,6.5199,6.5311,6.5571,6.6425,6.6574,6.6844,6.7835,6.797,6.8302,6.9206,6.9344,6.9468,6.9887,6.9702,0.0,6.9683,6.9833,6.9923,6.9923,7.0304,7.0532,7.0532,7.0762,7.0898,7.0898,7.0398,0.0,7.0167,6.9629,6.936,6.936,6.9898,7.0167,7.0167,7.0667,7.0898,7.0898,7.0898,7.0898,7.0937,7.1245,7.1398,7.1475,7.236,7.2706,7.2745,7.3322,7.3707,7.3976,7.3976,7.4168,7.4437,7.4437,7.4437,7.4322,7.3668,7.3514,7.3514,7.3514,7.3514,7.3514,7.3514,7.3514,7.3514,7.3514,7.3091,7.2514,7.1975,7.1629,7.1398,7.1398,7.1129,7.0898,7.0898,7.0898,7.0898,7.0898,0.0,7.0898,0.0,0.0,0.0,0.0,7.0898,7.0898,0.0,0.0,0.0,0.0,0.0,7.0898,7.0898,7.0898,7.1052,7.1398,7.1937,7.236,7.2706,7.3553,7.4399,7.5207,7.5745,7.6015,7.6015,7.6015,7.6015,7.6015,7.6015,7.6015,7.6015,7.6015,7.6015,7.6015,7.6015,7.6015,7.6015,6.6165,6.6202,6.6462,6.729,6.7439,6.7789,6.8956,6.9134,6.9303,6.9683,6.974,6.9887,7.0304,7.0353,7.0183,6.9814,0.0,0.0,7.0353,7.0705,7.0898,7.0898,7.0898,7.0898,7.0898,7.0898,7.0898,7.0898,7.0898,7.0898,7.0898,7.0898,7.0898,7.0898,7.0898,7.0937,7.0975,7.0975,7.1014,7.1168,7.1975,7.2283,7.236,7.3245,7.3591,7.3577,7.3668,7.4168,7.4784,7.4784,7.5322,7.6015,7.6015,7.6015,7.5707,7.413,7.3668,7.3668,7.3668,7.3668,7.3668,7.3668,7.3668,7.3654,7.3577,7.3591,7.3591,7.3514,7.286,7.2283,7.2283,7.1629,7.1091,7.1091,7.1014,7.0975,7.0975,7.0937,7.0898,0.0,0.0,0.0,7.0898,7.0898,7.0898,0.0,0.0,0.0,0.0,0.0,7.1052,7.0975,7.0975,7.1398,7.2283,7.236,7.2822,7.3668,7.4437,7.5207,7.6015,7.6015,7.6015,7.6015,7.6015,7.6015,7.6015,7.6015,7.6015,7.6015,7.6015,7.6015,7.6015,7.6015,7.6015,7.6015,0.0,0.0,6.7361,6.8496,6.8675,6.8865,6.9488,6.9548,6.9702,7.0099,7.015,7.032,7.0719,7.0762,7.0719,7.0608,7.0719,7.0762,7.0762,7.0857,7.0898,7.0898,7.0898,7.0898,7.0898,7.0898,7.0898,7.0898,7.0898,7.0898,7.0898,7.0898,7.0898,7.0898,7.0898,7.1283,7.1898,7.1898,7.2283,7.2899,7.3129,7.3206,7.3283,7.4091,7.4437,7.4514,7.5168,7.5515,7.5707,7.5707,7.5822,7.6015,7.6015,7.6015,7.5938,7.5515,7.5399,7.5399,7.5399,7.5399,7.5399,7.5399,7.5399,7.5245,7.4591,7.4437,7.4245,7.363,7.336,7.3206,7.3206,7.3014,7.2899,7.2899,7.2322,7.1898,7.1898,7.1321,7.0898,0.0,7.0898,7.0898,7.0898,7.0898,7.0898,0.0,0.0,7.1898,7.1898,7.2514,7.2591,7.1898,7.1898,7.2322,7.3168,7.3822,7.4553,7.5399,7.5592,7.5784,7.6015,7.6015,7.6015,7.6015,7.6015,7.6015,7.6015,7.6015,7.6015,7.6015,7.6015,7.6015,7.6015,7.6015,7.6015,7.6015,6.7763,6.8027,6.8331,6.8972,6.9261,6.9508,6.9905,6.9977,7.0099,7.0532,7.0923,7.1266,7.1462,7.186,7.2091,7.2091,7.136,7.1052,7.1475,7.1475,7.1668,7.2091,7.2091,7.2091,7.2091,7.2091,7.2091,7.2091,7.2091,7.2091,7.2091,7.2091,7.2091,7.2091,7.2091,7.236,7.2783,7.2783,7.3091,7.3538,7.3899,7.4053,7.413,7.4976,7.5284,7.5361,7.5822,7.6015,7.6015,7.6015,7.6015,7.6015,7.6015,7.6015,7.6015,7.6015,7.6015,7.6015,7.6015,7.6015,7.6015,7.6015,7.6015,7.5861,7.5399,7.5284,7.5168,7.4745,7.4322,7.4053,7.4053,7.3745,7.3514,7.3514,7.3091,7.2783,7.2783,7.2399,7.2091,7.2091,7.2091,7.2091,7.2091,7.2091,7.2091,7.2091,7.2514,0.0,7.2783,7.3245,7.3283,7.2822,7.2783,7.3206,7.4053,7.4899,7.5515,7.6015,7.6015,7.6015,7.6015,7.6015,7.6015,7.6015,7.6015,7.6015,7.6015,7.6015,7.6015,7.6015,7.6015,7.6015,7.6015,7.6015,7.6015,7.6015,6.8602,6.8877,6.9134,6.9282,6.9567,6.9923,7.0337,7.0499,7.0724,7.1063,7.186,7.2399,7.2399,7.3053,7.3514,7.3514,7.2168,7.1591,7.236,7.2399,7.2745,7.3476,7.3514,7.3514,7.3514,7.3514,7.3514,7.3514,7.3514,7.3514,7.3514,7.3514,7.3514,7.3514,7.3514,7.3591,7.3668,7.3668,7.3783,7.3937,7.463,7.4899,7.4976,7.5707,7.6015,7.6015,7.6015,7.6015,7.6015,7.6015,7.6015,7.6015,7.6015,7.6015,7.6015,7.6015,7.6015,7.6015,7.6015,7.6015,7.6015,7.6015,7.6015,7.6015,7.6015,7.6015,7.6015,7.6015,7.5399,7.4899,7.4899,7.4361,7.3899,7.3899,7.3783,7.3668,7.3668,0.0,7.3514,7.3514,7.3514,7.3514,7.3514,7.3514,7.3514,7.3514,7.363,7.3668,7.3668,7.3822,7.3899,7.3899,7.3745,7.4091,7.4899,7.563,7.6015,7.6015,7.6015,7.6015,7.6015,7.6015,7.6015,7.6015,7.6015,7.6015,7.6015,7.6015,7.6015,7.6015,7.6015,7.6015,7.6015,7.6015,7.6015,7.6015,6.893,6.9047,6.9306,6.9995,7.015,7.0353,7.0748,7.1444,7.1934,7.1975,7.2745,7.3322,7.3322,7.3437,7.3514,7.3514,7.3245,7.3168,7.3283,7.3322,7.336,7.35,7.3514,7.3514,7.3514,7.3514,7.3514,7.3514,7.3514,7.3514,7.3514,7.3514,7.3514,7.3514,7.3514,7.3899,7.4514,7.4514,7.4938,7.563,7.5745,7.5784,7.5822,7.5938,7.6015,7.6015,7.6015,7.6015,7.6015,7.6015,7.6015,7.6015,7.6015,7.6015,7.6015,7.6015,7.6015,7.6015,7.6015,7.6015,7.6015,7.6015,7.6015,7.6015,7.6015,7.6015,7.6015,7.6015,7.5899,7.5784,7.5784,7.5707,7.563,7.563,7.4976,7.4514,7.4514,0.0,7.3514,7.3514,7.3514,7.3514,7.3514,7.3514,7.3514,7.3514,7.413,7.4514,7.4514,7.5207,7.563,7.563,7.4899,7.4938,7.5784,7.5938,7.6015,7.6015,7.6015,7.6015,7.6015,7.6015,7.6015,7.6015,7.6015,7.6015,7.6015,7.6015,7.6015,7.6015,7.6015,7.6015,7.6015,7.6015,7.6015,7.6015,6.9327,6.9606,6.9869,7.0255,7.0463,7.0858,7.15,7.1937,7.236,7.2822,7.363,7.4168,7.4168,7.4591,7.4861,7.4861,7.4861,7.4861,7.4861,7.4399,7.4361,7.4822,7.4861,7.4861,7.4861,7.4861,7.4861,7.4861,7.4861,7.4861,7.4861,7.4861,7.4861,7.4861,7.4861,7.5053,7.5399,7.5399,7.563,7.6015,7.6015,7.6015,7.6015,7.6015,7.6015,7.6015,7.6015,7.6015,7.6015,7.6015,7.6015,7.6015,7.6015,7.6015,7.6015,7.6015,7.6015,7.6015,7.6015,7.6015,7.6015,7.6015,7.6015,7.6015,7.6015,7.6015,7.6015,7.6015,7.6015,7.6015,7.6015,7.6015,7.6015,7.6015,7.5668,7.5399,7.5399,7.5091,7.4861,7.4861,7.4861,7.4861,7.4861,7.4861,7.4861,7.4861,7.5207,7.5399,7.5399,7.5784,7.6015,7.6015,7.563,7.5592,7.6015,7.6015,7.6015,7.6015,7.6015,7.6015,7.6015,7.6015,7.6015,7.6015,7.6015,7.6015,7.6015,7.6015,7.6015,7.6015,7.6015,7.6015,7.6015,7.6015,7.6015,7.6053,6.9758,7.0082,7.0375,7.0684,7.1012,7.1514,7.236,7.2668,7.3014,7.3707,7.4476,7.5014,7.5014,7.5592,7.6015,7.6015,7.6015,7.6015,7.6015,7.5361,7.5284,7.5976,7.6015,7.6015,7.6015,7.6015,7.6015,7.6015,7.6015,7.6015,7.6015,7.6015,7.6015,7.6015,7.6015,7.6015,7.6015,7.6015,7.6015,7.6015,7.6015,7.6015,7.6015,7.6015,7.6015,7.6015,7.6015,7.6015,7.6015,7.6015,7.6015,7.6015,7.6015,7.6015,7.6015,7.6015,7.6015,7.6015,7.6015,7.6015,7.6015,7.6015,7.6015,7.6015,7.6015,7.6015,7.6015,7.6015,7.6015,7.6015,7.6015,7.6015,7.6015,7.6015,0.0,7.6015,7.6015,7.6015,7.6015,7.6015,7.6015,7.6015,7.6015,7.6015,7.6015,7.6015,7.6015,7.6015,7.6015,7.6015,7.6015,7.6015,7.6015,7.6015,7.6015,7.6015,7.6015,7.6015,7.6015,7.6015,7.6015,7.6015,7.6015,7.6015,7.6015,7.6015,7.6015,7.6015,7.6015,7.6015,7.6015,7.6015,7.6015,7.6245,7.6284,7.6438,7.0167,7.0288,7.0684,7.1867,7.2077,7.2399,7.3283,7.4053,7.4553,7.4591,7.5361,7.5899,7.5899,7.5976,7.6015,7.6015,7.6015,7.6015,7.6015,7.5938,7.5938,7.6015,7.6015,7.6015,7.6015,7.6015,7.6015,7.6015,7.6015,7.6015,7.6015,7.6015,7.6015,7.6015,7.6015,7.6015,7.6015,7.6015,7.6015,7.6015,7.6015,7.6015,7.6015,7.6015,7.6015,7.6015,7.6015,7.6015,7.6015,7.6015,7.6015,7.6015,7.6015,7.6015,7.6015,7.6015,7.6015,7.6015,7.6015,7.6015,7.6015,7.6015,7.6015,7.6015,7.6015,7.6015,7.6015,7.6015,7.6015,7.6015,7.6015,7.6015,7.6015,7.6015,0.0,0.0,7.6015,7.6015,7.6015,7.6015,7.6015,7.6015,7.6015,7.6015,7.6015,7.6015,7.6015,7.6015,7.6015,7.6015,7.6015,7.6015,7.6015,7.6015,7.6015,7.6015,7.6015,7.6015,7.6015,7.6015,7.6015,7.6015,7.6015,7.6015,7.6015,7.6015,7.6015,7.6015,7.6015,7.6015,7.6015,7.6015,7.6092,7.6899,7.7207,7.7323,7.1398,7.1918,7.2447,7.2923,7.3014,7.3283,7.413,7.4514,7.4899,7.5438,7.5784,7.6015,7.6015,7.6015,7.6015,7.6015,7.6015,7.6015,7.6015,7.6015,7.6015,7.6015,7.6015,7.6015,7.6015,7.6015,7.6015,7.6015,7.6015,7.6015,7.6015,7.6015,7.6015,7.6015,7.6015,7.6015,7.6015,7.6015,7.6015,7.6015,7.6015,7.6015,7.6015,7.6015,7.6015,7.6015,7.6015,7.6015,7.6015,7.6015,7.6015,7.6015,7.6015,7.6015,7.6015,7.6015,7.6015,7.6015,7.6015,7.6015,7.6015,7.6015,7.6015,7.6015,7.6015,7.6015,7.6015,7.6015,7.6015,7.6015,7.6015,7.6015,7.6015,7.6015,0.0,7.6015,7.6015,7.6015,7.6015,7.6015,7.6015,7.6015,7.6015,7.6015,7.6015,7.6015,7.6015,7.6015,7.6015,7.6015,7.6015,7.6015,7.6015,7.6015,7.6015,7.6015,7.6015,7.6015,7.6015,7.6015,7.6015,7.6015,7.6015,7.6015,7.6015,7.6015,7.6015,7.6015,7.6015,7.6053,7.6592,7.6823,7.6899,7.7746,7.8015,7.8169,7.2549,7.3091,7.3591,7.3808,7.3899,7.4168,7.4976,7.513,7.5322,7.5938,7.6015,7.6015,7.6015,7.6015,7.6015,7.6015,7.6015,7.6015,7.6015,7.6015,7.6015,7.6015,7.6015,7.6015,7.6015,7.6015,7.6015,7.6015,7.6015,7.6015,7.6015,7.6015,7.6015,7.6015,7.6015,7.6015,7.6015,7.6015,7.6015,7.6015,7.6015,7.6015,7.6015,7.6015,7.6015,7.6015,7.6015,7.6015,7.6015,7.6015,7.6015,7.6015,7.6015,7.6015,7.6015,7.6015,7.6015,7.6015,7.6015,7.6015,7.6015,7.6015,7.6015,7.6015,7.6015,7.6015,7.6015,7.6015,7.6015,7.6015,7.6015,7.6015,7.6015,7.6015,7.6015,7.6015,7.6015,7.6015,7.6015,7.6015,7.6015,7.6015,7.6015,7.6015,7.6015,7.6015,7.6015,7.6015,7.6015,7.6015,7.6015,7.6015,7.6015,7.6015,7.6015,7.6015,7.6015,7.6015,7.6015,7.6015,7.6015,7.6015,7.6015,7.6015,7.6015,7.6169,7.6399,7.6399,7.6553,7.6823,7.7438,7.7669,7.7784,7.8592,7.89,7.9015,7.3514,7.3514,7.3769,7.4591,7.4707,7.5014,7.5861,7.6015,7.6015,7.6015,7.6015,7.6015,7.6015,7.6015,7.6015,7.6015,7.6015,7.6015,7.6015,7.6015,7.6015,7.6015,7.6015,7.6015,7.6015,7.6015,7.6015,7.6015,7.6015,7.6015,7.6015,7.6015,7.6015,7.6015,7.6015,7.6015,7.6015,7.6015,7.6015,7.6015,7.6015,7.6015,7.6015,7.6015,7.6015,7.6015,7.6015,7.6015,7.6015,7.6015,7.6015,7.6015,7.6015,7.6015,7.6015,7.6015,7.6015,7.6015,7.6015,7.6015,7.6015,7.6015,7.6015,7.6015,7.6015,7.6015,7.6015,7.6015,7.6015,7.6015,7.6015,7.6015,7.6015,7.6015,7.6015,7.6015,7.6015,7.6015,7.6015,7.6015,7.6015,7.6015,7.6015,7.6015,7.6015,7.6015,7.6015,7.6015,7.6015,7.6015,7.6015,7.6015,7.6015,7.6015,7.6015,7.6015,7.6015,7.6015,7.6015,7.6015,7.6015,7.6015,7.6015,7.6015,7.6015,7.6515,7.7323,7.7323,7.7784,7.8477,7.8515,7.8515,7.8631,7.9477,7.9823,7.9939,7.4361,7.4822,7.5322,7.5553,7.563,7.5707,7.5976,7.6015,7.6015,7.6015,7.6015,7.6015,7.6015,7.6015,7.6015,7.6015,7.6015,7.6015,7.6015,7.6015,7.6015,7.6015,7.6015,7.6015,7.6015,7.6015,7.6015,7.6015,7.6015,7.6015,7.6015,7.6015,7.6015,7.6015,7.6015,7.6015,7.6015,7.6015,7.6015,7.6015,7.6015,7.6015,7.6015,7.6015,7.6015,7.6015,7.6015,7.6015,7.6015,7.6015,7.6015,7.6015,7.6015,7.6015,7.6015,7.6015,7.6015,7.6015,7.6015,7.6015,7.6015,7.6015,7.6015,7.6015,7.6015,7.6015,7.6015,7.6015,7.6015,7.6015,7.6015,7.6015,7.6015,7.6015,7.6015,7.6015,7.6015,7.6015,7.6015,7.6015,7.6015,7.6015,7.6015,7.6015,7.6015,7.6015,7.6015,7.6015,7.6015,7.6015,7.6015,7.6015,7.6015,7.6015,7.6015,7.6015,7.6015,7.6015,7.6015,7.6015,7.6015,7.6015,7.6322,7.6899,7.6899,7.7361,7.813,7.813,7.8284,7.8554,7.9169,7.94,7.9515,8.04,8.0708,8.0746,7.5207,7.563,7.6015,7.6015,7.6015,7.6015,7.6015,7.6015,7.6015,7.6015,7.6015,7.6015,7.6015,7.6015,7.6015,7.6015,7.6015,7.6015,7.6015,7.6015,7.6015,7.6015,7.6015,7.6015,7.6015,7.6015,7.6015,7.6015,7.6015,7.6015,7.6015,7.6015,7.6015,7.6015,7.6015,7.6015,7.6015,7.6015,7.6015,7.6015,7.6015,7.6015,7.6015,7.6015,7.6015,7.6015,7.6015,7.6015,7.6015,7.6015,7.6015,7.6015,7.6015,7.6015,7.6015,7.6015,7.6015,7.6015,7.6015,7.6015,7.6015,7.6015,7.6015,7.6015,7.6015,7.6015,7.6015,7.6015,7.6015,7.6015,7.6015,7.6015,7.6015,7.6015,7.6015,7.6015,7.6015,7.6015,7.6015,7.6015,7.6015,7.6015,7.6015,7.6015,7.6015,7.6015,7.6015,7.6015,7.6015,7.6015,7.6015,7.6015,7.6015,7.6169,7.6515,7.6515,7.6322,7.6015,7.6361,7.6515,7.6515,7.6823,7.7284,7.7746,7.7746,7.8246,7.9015,7.9015,7.9208,7.9592,8.0092,8.0323,8.04,8.09,8.1093,8.1093,7.6015,7.6015,7.6015,7.6015,7.6015,7.6015,7.6015,7.6015,7.6015,7.6015,7.6015,7.6015,7.6015,7.6015,7.6015,7.6015,7.6015,7.6015,7.6015,7.6015,7.6015,7.6015,7.6015,7.6015,7.6015,7.6015,7.6015,7.6015,7.6015,7.6015,7.6015,7.6015,7.6015,7.6015,7.6015,7.6015,7.6015,7.6015,7.6015,7.6015,7.6015,7.6015,7.6015,7.6015,7.6015,7.6015,7.6015,7.6015,7.6015,7.6092,7.613,7.613,7.6207,7.6207,7.6207,7.6207,7.6207,7.6207,7.6207,7.6207,7.6207,7.6207,7.6169,7.6092,7.6015,7.6015,7.6015,7.6015,7.6015,7.6015,7.6015,7.6015,7.6015,7.6015,7.6015,7.6015,7.6015,7.6015,7.6015,7.6015,7.6015,7.6015,7.6015,7.6015,7.6015,7.6015,7.6015,7.6015,7.6015,7.6053,7.613,7.613,7.6207,7.6592,7.74,7.74,7.7015,7.6245,7.7015,7.74,7.7438,7.8169,7.8515,7.8631,7.8631,7.9092,7.9939,7.9939,8.04,8.1093,8.1093,8.1093,8.1093,8.1093,8.1108,8.1139,7.6015,7.6015,7.6015,7.6015,7.6015,7.6015,7.6015,7.6015,7.6015,7.6015,7.6015,7.6015,7.6015,7.6015,7.6015,7.6015,7.6015,7.6015,7.6015,7.6015,7.6015,7.6015,7.6015,7.6015,7.6015,7.6015,7.6015,7.6015,7.6015,7.6015,7.6015,7.6015,7.6015,7.6015,7.6015,7.6015,7.6015,7.6015,7.6015,7.6015,7.6015,7.6015,7.6015,7.6015,7.6015,7.6015,7.6015,7.6015,7.6092,7.6784,7.7015,7.713,7.7746,7.7938,7.7938,7.7938,7.7938,7.7938,7.7938,7.7938,7.7938,7.7938,7.7476,7.6823,7.6169,7.6015,7.6015,7.6015,7.6015,7.6015,7.6015,7.6015,7.6015,7.6015,7.6015,7.6015,7.6015,7.6015,7.6015,7.6015,7.6015,7.6015,7.6015,7.6015,7.6015,7.6015,7.6015,7.6015,7.6015,7.663,7.7015,7.7015,7.763,7.8054,7.8246,7.8246,7.813,7.7938,7.813,7.8246,7.8246,7.84,7.8861,7.9515,7.9515,8.0015,8.0823,8.0823,8.0939,8.1093,8.1093,8.1093,8.1093,8.1093,8.122,8.1375,7.6015,7.6015,7.6015,7.6015,7.6015,7.6015,7.6015,7.6015,7.6015,7.6015,7.6015,7.6015,7.6015,7.6015,7.6015,7.6015,7.6015,7.6015,7.6015,7.6015,7.6015,7.6015,7.6015,7.6015,7.6015,7.6015,7.6015,7.6015,7.6015,7.6015,7.6015,7.6015,7.6015,7.6015,7.6015,7.6015,7.6015,7.6015,7.6015,7.6015,7.6015,7.6015,7.6015,7.6015,7.6015,7.6015,7.6015,7.6284,7.6746,7.7592,7.7861,7.7938,7.8361,7.8477,7.8477,7.8477,7.8477,7.8477,7.8477,7.8477,7.8477,7.8477,7.8169,7.763,7.6823,7.6284,7.6015,7.6015,7.6015,7.6015,7.6015,7.6015,7.6015,7.6015,7.6015,7.6015,7.6015,7.6015,7.6015,7.6015,7.6015,7.6169,7.6592,7.6976,7.7169,7.7169,7.7169,7.7169,7.7169,7.763,7.7861,7.7861,7.8284,7.8707,7.9131,7.9131,7.9323,7.9746,7.9323,7.9131,7.9131,7.9554,7.9977,8.0439,8.0439,8.0669,8.1108,8.1181,8.1239,8.1253,8.1363,8.1401,8.1401,8.1401,8.1461,8.1547,7.6015,7.6015,7.6015,7.6015,7.6015,7.6015,7.6015,7.6015,7.6015,7.6015,7.6015,7.6015,7.6015,7.6015,7.6015,7.6015,7.6015,7.6015,7.6015,7.6015,7.6015,7.6015,7.6015,7.6015,7.6015,7.6015,7.6015,7.6015,7.6015,7.6015,7.6015,7.6015,7.6015,7.6015,7.6015,7.6015,7.6015,7.6015,7.6015,7.6015,7.6015,7.6015,7.6015,7.6015,7.6015,7.6015,7.6169,7.6784,7.763,7.8438,7.8707,7.8746,7.89,7.8938,7.8938,7.8938,7.8938,7.8938,7.8938,7.8938,7.8938,7.8938,7.8823,7.8554,7.7861,7.7053,7.6438,7.6438,7.6438,7.6438,7.6438,7.6438,7.6438,7.6438,7.6438,7.6438,7.6438,7.6438,7.6438,7.6438,7.6438,7.6707,7.7438,7.8092,7.8477,7.8477,7.8477,7.8477,7.8477,7.8631,7.8707,7.8707,7.8861,7.9285,8.0015,8.0015,8.04,8.1093,8.0423,8.0061,8.0054,8.0785,8.1124,8.1146,8.1146,8.1176,8.1234,8.1362,8.1461,8.1484,8.163,8.1698,8.1698,8.1735,8.1744,8.1753,7.6015,7.6015,7.6015,7.6015,7.6015,7.6015,7.6015,7.6015,7.6015,7.6015,7.6015,7.6015,7.6015,7.6015,7.6015,7.6015,7.6015,7.6015,7.6015,7.6015,7.6015,7.6015,7.6015,7.6015,7.6015,7.6015,7.6015,7.6015,7.6015,7.6015,7.6015,7.6015,7.6015,7.6015,7.6015,7.6015,7.6015,7.6015,7.6015,7.6015,7.6015,7.6015,7.6015,7.6015,7.6015,7.6092,7.6861,7.763,7.8477,7.9323,7.9631,7.9746,8.0516,8.0746,8.0746,8.0746,8.0746,8.0746,8.0746,8.0746,8.0746,8.0746,8.0169,7.9592,7.9477,7.8784,7.8169,7.8169,7.8169,7.8169,7.8169,7.8169,7.8169,7.8169,7.8169,7.8169,7.8169,7.8169,7.8169,7.8169,7.8169,7.8207,7.8323,7.8438,7.8477,7.8477,7.8477,7.8477,7.8477,7.9208,7.9631,7.9631,8.0362,8.0785,8.0939,8.0939,8.0977,8.1093,8.1178,8.1088,8.0939,8.1054,8.1167,8.1375,8.1375,8.1461,8.161,8.164,8.166,8.166,8.1689,8.1698,8.1717,8.1912,8.1961,8.1981,7.6015,7.6015,7.6015,7.6015,7.6015,7.6015,7.6015,7.6015,7.6015,7.6015,7.6015,7.6015,7.6015,7.6015,7.6015,7.6015,7.6015,7.6015,7.6015,7.6015,7.6015,7.6015,7.6015,7.6015,7.6015,7.6015,7.6015,7.6015,7.6015,7.6015,7.6015,7.6015,7.6015,7.6015,7.6015,7.6015,7.6015,7.6015,7.6015,7.6015,7.6015,7.6015,7.6015,7.6015,7.6284,7.6899,7.8207,7.8938,7.9361,8.0246,8.0516,8.0592,8.0977,8.1093,8.1093,8.1093,8.1093,8.1093,8.1093,8.1093,8.1093,8.1093,8.0823,8.0516,8.0516,8.0246,7.9669,7.8707,7.8477,7.8477,7.8477,7.8477,7.8477,7.8477,7.8477,7.8477,7.8477,7.8477,7.8477,7.8477,7.8938,7.9246,7.9246,7.9669,7.9939,7.9939,7.9939,7.9939,7.9939,8.0323,8.0516,8.0516,8.1003,8.128,8.128,8.1401,8.1437,8.1437,8.1541,8.1472,8.1294,8.1362,8.1496,8.1558,8.1558,8.161,8.1708,8.1812,8.1851,8.1898,8.1981,8.205,8.2056,8.2143,8.2162,8.2166]}]]